[[{"header":{"parameterUnit":"m.s-1","parameterCategory":1,"la1":31.0,"la2":29.5877,"lo1":-88.7671,"lo2":-86.6584,"dy":0.0162,"dx":0.0185,"nx":115,"ny":88,"refTime":"2023-08-28T12:00:00:Z","depth":0,"parameterNumber":2,"parameterNumberName":"U-component_of_WINDS"},"data":[0.0,0.0,0.0,0.0,0.0,0.0,0.0,0.0,0.0,0.0,0.0,0.0,0.0,0.0,0.0,0.0,0.0,0.0,0.0,0.0,0.0,0.0,0.0,0.0,0.0,0.0,0.0,0.0,0.0,0.0,0.0,0.0,0.0,0.0,0.0,0.0,0.0,0.0,0.0,0.0,0.0,0.0,0.0,0.0,0.0,0.0,0.0,0.0,0.0,0.0,0.0,0.0,0.0,0.0,0.0,0.0,0.0,0.0,0.0,0.0,0.0,0.0,0.0,0.0,0.0,0.0,0.0,0.0,0.0,0.0,0.0,0.0,0.0,0.0,0.0,0.0,0.0,0.0,0.0,0.0,0.0,0.0,0.0,0.0,0.0,0.0,0.0,0.0,0.0,0.0,0.0,0.0,0.0,0.0,0.0,0.0,0.0,0.0,0.0,0.0,0.0,0.0,0.0,0.0,0.0,0.0,0.0,0.0,0.0,0.0,0.0,0.0,0.0,0.0,0.0,0.0,0.0,0.0,0.0,0.0,0.0,0.0,0.0,0.0,0.0,0.0,0.0,0.0,0.0,0.0,0.0,0.0,0.0,0.0,0.0,0.0,0.0,0.0,0.0,0.0,0.0,0.0,0.0,0.0,0.0,0.0,0.0,0.0,0.0,0.0,0.0,0.0,0.0,0.0,0.0,0.0,0.0,0.0,0.0,0.0,0.0,0.0,0.0,0.0,0.0,0.0,0.0,0.0,0.0,0.0,0.0,0.0,0.0,0.0,0.0,0.0,0.0,0.0,0.0,0.0,0.0,0.0,0.0,0.0,0.0,0.0,0.0,0.0,0.0,0.0,0.0,0.0,0.0,0.0,0.0,0.0,0.0,0.0,0.0,0.0,0.0,0.0,0.0,0.0,0.0,0.0,0.0,0.0,0.0,0.0,0.0,0.0,0.0,0.0,0.0,0.0,0.0,0.0,0.0,0.0,0.0,0.0,0.0,0.0,0.0,0.0,0.0,0.0,0.0,0.0,0.0,0.0,0.0,0.0,0.0,0.0,0.0,0.0,0.0,0.0,0.0,0.0,0.0,0.0,0.0,0.0,0.0,0.0,0.0,0.0,0.0,0.0,0.0,0.0,0.0,0.0,0.0,0.0,0.0,0.0,0.0,0.0,0.0,0.0,0.0,0.0,0.0,0.0,0.0,0.0,0.0,0.0,0.0,0.0,0.0,0.0,0.0,0.0,0.0,0.0,0.0,0.0,0.0,0.0,0.0,0.0,0.0,0.0,0.0,0.0,0.0,0.0,0.0,0.0,0.0,0.0,0.0,0.0,0.0,0.0,0.0,0.0,0.0,0.0,0.0,0.0,0.0,0.0,0.0,0.0,0.0,0.0,0.0,0.0,0.0,0.0,0.0,0.0,0.0,0.0,0.0,0.0,0.0,0.0,0.0,0.0,0.0,0.0,0.0,0.0,0.0,0.0,0.0,0.0,0.0,0.0,0.0,0.0,0.0,0.0,0.0,0.0,0.0,0.0,0.0,0.0,0.0,0.0,0.0,0.0,0.0,0.0,0.0,0.0,0.0,0.0,0.0,0.0,0.0,0.0,0.0,0.0,0.0,0.0,0.0,0.0,0.0,0.0,0.0,0.0,0.0,0.0,0.0,0.0,0.0,0.0,0.0,0.0,0.0,0.0,0.0,0.0,0.0,0.0,0.0,0.0,0.0,0.0,0.0,0.0,0.0,0.0,0.0,0.0,0.0,0.0,0.0,0.0,0.0,0.0,0.0,0.0,0.0,0.0,0.0,0.0,0.0,0.0,0.0,0.0,0.0,0.0,0.0,0.0,0.0,0.0,0.0,0.0,0.0,0.0,0.0,0.0,0.0,0.0,0.0,0.0,0.0,0.0,0.0,0.0,0.0,0.0,0.0,0.0,0.0,0.0,0.0,0.0,0.0,0.0,0.0,0.0,0.0,0.0,0.0,0.0,0.0,0.0,0.0,0.0,0.0,0.0,0.0,0.0,0.0,0.0,0.0,0.0,0.0,0.0,0.0,0.0,0.0,0.0,0.0,0.0,0.0,0.0,0.0,0.0,0.0,0.0,0.0,0.0,0.0,0.0,0.0,0.0,0.0,0.0,0.0,0.0,0.0,0.0,0.0,0.0,0.0,0.0,0.0,0.0,0.0,0.0,0.0,0.0,0.0,0.0,0.0,0.0,0.0,0.0,0.0,0.0,0.0,0.0,0.0,0.0,0.0,0.0,0.0,0.0,0.0,0.0,0.0,0.0,0.0,0.0,0.0,0.0,0.0,0.0,0.0,0.0,0.0,0.0,0.0,0.0,0.0,0.0,0.0,0.0,0.0,0.0,0.0,0.0,0.0,0.0,0.0,0.0,0.0,0.0,0.0,0.0,0.0,0.0,0.0,0.0,0.0,0.0,0.0,0.0,0.0,0.0,0.0,0.0,0.0,0.0,0.0,0.0,0.0,0.0,0.0,0.0,0.0,0.0,0.0,0.0,0.0,0.0,0.0,0.0,0.0,0.0,0.0,0.0,0.0,0.0,0.0,0.0,0.0,0.0,0.0,0.0,0.0,0.0,0.0,0.0,0.0,0.0,0.0,0.0,0.0,0.0,0.0,0.0,0.0,0.0,0.0,0.0,0.0,0.0,0.0,0.0,0.0,0.0,0.0,0.0,0.0,0.0,0.0,0.0,0.0,0.0,0.0,0.0,0.0,0.0,0.0,0.0,0.0,0.0,0.0,0.0,0.0,0.0,0.0,0.0,0.0,0.0,0.0,0.0,0.0,0.0,0.0,0.0,0.0,0.0,0.0,0.0,0.0,0.0,0.0,0.0,0.0,0.0,0.0,0.0,0.0,0.0,0.0,0.0,0.0,0.0,0.0,0.0,0.0,0.0,0.0,0.0,0.0,0.0,0.0,0.0,0.0,0.0,0.0,0.0,0.0,0.0,0.0,0.0,0.0,0.0,0.0,0.0,0.0,0.0,0.0,0.0,0.0,0.0,0.0,0.0,0.0,0.0,0.0,0.0,0.0,0.0,0.0,0.0,0.0,0.0,0.0,0.0,0.0,0.0,0.0,0.0,0.0,0.0,0.0,0.0,0.0,0.0,0.0,0.0,0.0,0.0,0.0,0.0,0.0,0.0,0.0,0.0,0.0,0.0,0.0,0.0,0.0,0.0,0.0,0.0,0.0,0.0,0.0,0.0,0.0,0.0,0.0,0.0,0.0,0.0,0.0,0.0,0.0,0.0,0.0,0.0,0.0,0.0,0.0,0.0,0.0,0.0,0.0,0.0,0.0,0.0,0.0,0.0,0.0,0.0,0.0,0.0,0.0,0.0,0.0,0.0,0.0,0.0,0.0,0.0,0.0,0.0,0.0,0.0,0.0,0.0,0.0,0.0,0.0,0.0,0.0,0.0,0.0,0.0,0.0,0.0,0.0,0.0,0.0,0.0,0.0,0.0,0.0,0.0,0.0,0.0,0.0,0.0,0.0,0.0,0.0,0.0,0.0,0.0,0.0,0.0,0.0,0.0,0.0,0.0,0.0,0.0,0.0,0.0,0.0,0.0,0.0,0.0,0.0,0.0,0.0,0.0,0.0,0.0,0.0,0.0,0.0,0.0,0.0,0.0,0.0,0.0,0.0,0.0,0.0,0.0,0.0,0.0,0.0,0.0,0.0,0.0,0.0,0.0,0.0,0.0,0.0,0.0,0.0,0.0,0.0,0.0,0.0,0.0,0.0,0.0,0.0,0.0,0.0,0.0,0.0,0.0,0.0,0.0,0.0,0.0,0.0,0.0,0.0,0.0,0.0,0.0,0.0,0.0,0.0,0.0,0.0,0.0,0.0,0.0,0.0,0.0,0.0,0.0,0.0,0.0,0.0,0.0,0.0,0.0,0.0,0.0,0.0,0.0,0.0,0.0,0.0,0.0,0.0,0.0,0.0,0.0,0.0,0.0,0.0,0.0,0.0,0.0,0.0,0.0,0.0,0.0,0.0,0.0,0.0,0.0,0.0,0.0,0.0,0.0,0.0,0.0,0.0,0.0,0.0,0.0,0.0,0.0,0.0,0.0,0.0,0.0,0.0,0.0,0.0,0.0,0.0,0.0,0.0,0.0,0.0,0.0,0.0,0.0,0.0,0.0,0.0,0.0,0.0,0.0,0.0,0.0,0.0,0.0,0.0,0.0,0.0,0.0,0.0,0.0,0.0,0.0,0.0,0.0,0.0,0.0,0.0,0.0,0.0,0.0,0.0,0.0,0.0,0.0,0.1206,0.0,0.0,0.0,0.0,0.0,0.0,0.0,0.0,0.0,0.0,0.0,0.0,0.0,0.0,0.0,0.0,0.0,0.0,0.0,0.0,0.0,0.0,0.0,0.0,0.0,0.0,0.0,0.0,0.0,0.0,0.0,0.0,0.0,0.0,0.0,0.0,0.0,0.0,0.0,0.0,0.0,0.0,0.0,0.0,0.0,0.0,0.0,0.0,0.0,0.0,0.0,0.0,0.0,0.0,0.0,0.0,0.0,0.0,0.0,0.0,0.0,0.0,0.0,0.0,0.0,0.0,0.0,0.0,0.0,0.0,0.0,0.0,0.0,0.0,0.0,0.0,0.0,0.0,0.0,0.0,0.0,0.0,0.0,0.0,0.0,0.0,0.0,0.0,0.0,0.0,0.0,0.0,0.0,0.0,0.0,0.0,0.0,0.0,0.0,0.0,0.0,0.0,0.0,0.0,0.0,0.0,0.0,0.0,0.0,0.0,0.0926,0.1347,0.115,0.1094,0.1206,0.0,0.0,0.0,0.0,0.0,0.0,0.0,0.0,0.0,0.0,0.0,0.0,0.0,0.0,0.0,0.0,0.0,0.0,0.0,0.0,0.0,0.0,0.0,0.0,0.0,0.0,0.0,0.0,0.0,0.0,0.0,0.0,0.0,0.0,0.0,0.0,0.0,0.0,0.0,0.0,0.0,0.0,0.0,0.0,0.0,0.0,0.0,0.0,0.0,0.0,0.0,0.0,0.0,0.0,0.0,0.0,0.0,0.0,0.0,0.0,0.0,0.0,0.0,0.0,0.0,0.0,0.0,0.0,0.0,0.0,0.0,0.0,0.0,0.0,0.0,0.0,0.0,0.0,0.0,0.0,0.0,0.0,0.0,0.0,0.0,0.0,0.0,0.0,0.0,0.0,0.0,0.0,0.0,0.0,0.0,0.0,0.0,0.0,0.0,0.0,0.0,0.0,0.0,0.0,0.0,0.0,0.0,0.0,0.0,0.0,0.0,0.0,0.0617,0.0477,0.101,0.0,0.0,0.0,0.0,0.0,0.0,0.0,0.0,0.0,0.0,0.0,0.0,0.0,0.0,0.0,0.0,0.0,0.0,0.0,0.0,0.0,0.0,0.0,0.0,0.0,0.0,0.0,0.0,0.0,0.0,0.0,0.0,0.0,0.0,0.0,0.0,0.0,0.0,0.0,0.0,0.0,0.0,0.0,0.0,0.0,0.0,0.0,0.0,0.0,0.0,0.0,0.0,0.0,0.0,0.0,0.0,0.0,0.0,0.0,0.0,0.0,0.0,0.0,0.0,0.0,0.0,0.0,0.0,0.0,0.0,0.0,0.0,0.0,0.0,0.0,0.0,0.0,0.0,0.0,0.0,0.0,0.0,0.0,0.0,0.0,0.0,0.0,0.0,0.0,0.0,0.0,0.0,0.0,0.0,0.0,0.0,0.0,0.0,0.0,0.0,0.0,0.0,0.0,0.0,0.0,0.0,0.0,0.0,0.0,0.0,0.0393,0.0757,0.0056,0.0,0.028,0.0,0.0,0.0,0.0,0.0,0.0,0.0,0.0,0.0,0.0,0.0,0.0,0.0,0.0,0.0,0.0,0.0,0.0,0.0,0.0,0.0,0.0,0.0,0.0,0.0,0.0,0.0,0.0,0.0,0.0,0.0,0.0,0.0,0.0,0.0,0.0,0.0,0.0,0.0,0.0,0.0,0.0,0.0,0.0,0.0,0.0,0.0,0.0,0.0,0.0,0.0,0.0,0.0,0.0,0.0,0.0,0.0,0.0,0.0,0.0,0.0,0.0,0.0,0.0,0.0,0.0,0.0,0.0,0.0,0.0,0.0,0.0,0.0,0.0,0.0,0.0,0.0,0.0,0.0,0.0,0.0,0.0,0.0,0.0,0.0,0.0,0.0,0.0,0.0,0.0,0.0,0.0,0.0,0.0,0.0,0.0,0.0,0.0,0.0,0.0,0.0,0.0,0.0,0.0,0.0,0.0,0.0,0.0,0.0,0.0,-0.0786,-0.0267,-0.0652,-0.08,0.0,0.0,0.0,0.0,0.0,0.0,0.0,0.0,0.0,0.0,0.0,0.0,0.0,0.0,0.0,0.0,0.0,0.0,0.0,0.0,0.0,0.0,0.0,0.0,0.0,0.0,0.0,0.0,0.0,0.0,0.0,0.0,0.0,0.0,0.0,0.0,0.0,0.0,0.0,0.0,0.0,0.0,0.0,0.0,0.0,0.0,0.0,0.0,0.0,0.0,0.0,0.0,0.0,0.0,0.0,0.0,0.0,0.0,0.0,0.0,0.0,0.0,0.0,0.0,0.0,0.0,0.0,0.0,0.0,0.0,0.0,0.0,0.0,0.0,0.0,0.0,0.0,0.0,0.0,0.0,0.0,0.0,0.0,0.0,0.0,0.0,0.0,0.0,0.0,0.0,0.0,0.0,0.0,0.0,0.0,0.0,0.0,0.0,0.0,0.0,0.0,0.0,0.0,0.0,0.0,0.0,0.0,0.0,0.0,0.0,-0.1369,-0.1414,-0.0891,-0.0801,-0.0862,-0.1108,0.0,0.0,0.0,0.0,0.0,0.0,0.0,0.0,0.0,0.0,0.0,0.0,0.0,0.0,0.0,0.0,0.0,0.0,0.0,0.0,0.0,0.0,0.0,0.0,0.0,0.0,0.0,0.0,0.0,0.0,0.0,0.0,0.0,0.0,0.0,0.0,0.0,0.0,0.0,0.0,0.0,0.0,0.0,0.0,0.0,0.0,0.0,0.0,0.0,0.0,0.0,0.0,0.0,0.0,0.0,0.0,0.0,0.0,0.0,0.0,0.0,0.0,0.0,0.0,0.0,0.0,0.0,0.0,0.0,0.0,0.0,0.0,0.0,0.0,0.0,0.0,0.0,0.0,0.0,0.0,0.0,0.0,0.0,0.0,0.0,0.0,0.0,0.0,0.0,0.0,0.0,0.0,0.0,0.0,0.0,0.0,0.0,0.0,0.0,0.0,0.0,0.0,0.0,0.0,0.0,0.0,0.0,0.0,-0.092,-0.1014,-0.0984,-0.0832,-0.0031,-0.0031,0.0,0.0,0.0,0.0,0.0,0.0,0.0,0.0,0.0,0.0,0.0,0.0,0.0,0.0,0.0,0.0,0.0,0.0,0.0,0.0,0.0,0.0,0.0,0.0,0.0,0.0,0.0,0.0,0.0,0.0,0.0,0.0,0.0,0.0,0.0,0.0,0.0,0.0,0.0,0.0,0.0,0.0,0.0,0.0,0.0,0.0,0.0,0.0,0.0,0.0,0.0,0.0,0.0,0.0,0.0,0.0,0.0,0.0,0.0,0.0,0.0,0.0,0.0,0.0,0.0,0.0,0.0,0.0,0.0,0.0,0.0,0.0,0.0,0.0,0.0,0.0,0.0,0.0,0.0,0.0,0.0,0.0,0.0,0.0,0.0,0.0,0.0,0.0,0.0,0.0,0.0,0.0,0.0,0.0,0.0,0.0,0.0,0.0,0.0,0.0,0.0,0.0,0.0,0.0,0.0,0.0,0.0,0.0,0.0,-0.1647,-0.171,-0.1757,-0.1692,-0.14,-0.1172,0.0,0.0,0.0,0.0,0.0,0.0,0.0,0.0,0.0,0.0,0.0,0.0,0.0,0.0,0.0,0.0,0.0,0.0,0.0,0.0,0.0,0.0,0.0,0.0,0.0,0.0,0.0,0.0,0.0,0.0,0.0,0.0,0.0,0.0,0.0,0.0,0.0,0.0,0.0,0.0,0.0,0.0,0.0,0.0,0.0,0.0,0.0,0.0,0.0,0.0,0.0,0.0,0.0,0.0,0.0,0.0,0.0,0.0,0.0,0.0,0.0,0.0,0.0,0.0,0.0,0.0,0.0,0.0,0.0,0.0,0.0,0.0,0.0,0.0,0.0,0.0,0.0,0.0,0.0,0.0,0.0,0.0,0.0,0.0,0.0,0.0,0.0,0.0,0.0,0.0,0.0,0.0,0.0,0.0,0.0,0.0,0.0,0.0,0.0,0.0,0.0,0.0,0.0,0.0,0.0,0.0,0.0,0.0,0.0,-0.2089,0.0,-0.1978,-0.1509,-0.1745,-0.1511,0.0,0.0,0.0,0.0,0.0,0.0,0.0,0.0,0.0,0.0,0.0,0.0,0.0,0.0,0.0,0.0,0.0,0.0,0.0,0.0,0.0,0.0,0.0,0.0,0.0,0.0,0.0,0.0,0.0,0.0,0.0,0.0,0.0,0.0,0.0,0.0,0.0,0.0,0.0,0.0,0.0,0.0,0.0,0.0,0.0,0.0,0.0,0.0,0.0,0.0,0.0,0.0,0.0,0.0,0.0,0.0,0.0,0.0,0.0,0.0,0.0,0.0,0.0,0.0,0.0,0.0,0.0,0.0,0.0,0.0,0.0,0.0,0.0,0.0,0.0,0.0,0.0,0.0,0.0,0.0,0.0,0.0,0.0,0.0,0.0,0.0,0.0,0.0,0.0,0.0,0.0,0.0,0.0,0.0,0.0,0.0,0.0,0.0,0.0,0.0,0.0,0.0,0.0,0.0,0.0,0.0,0.0,0.0,-0.2807,-0.2243,-0.2214,-0.1577,-0.0134,-0.0806,-0.0806,0.0,0.0,0.0,0.0,0.0,0.0,0.0,0.0,0.0,0.0,0.0,0.0,0.0,0.0,0.0,0.0,0.0,0.0,0.0,0.0,0.0,0.0,0.0,0.0,0.0,0.0,0.0,0.0,0.0,0.0,0.0,0.0,0.0,0.0,0.0,0.0,0.0,0.0,0.0,0.0,0.0,0.0,0.0,0.0,0.0,0.0,0.0,0.0,0.0,0.0,0.0,0.0,0.0,0.0,0.0,0.0,0.0,0.0,0.0,0.0,0.0,0.0,0.0,0.0,0.0,0.0,0.0,0.0,0.0,0.0,0.0,0.0,0.0,0.0,0.0,0.0,0.0,0.0,0.0,0.0,0.0,0.0,0.0,0.0,0.0,0.0,0.0,0.0,0.0,0.0,0.0,0.0,0.0,0.0,0.0,0.0,0.0,0.0,0.0,0.0,0.0,0.0,0.0,0.0,0.0,0.0,0.0,0.0,0.0,-0.2887,-0.245,-0.1978,-0.1543,-0.1745,-0.1276,0.0,0.0,0.0,0.0,0.0,0.0,0.0,0.0,0.0,0.0,0.0,0.0,0.0,0.0,0.0,0.0,0.0,0.0,0.0,0.0,0.0,0.0,0.0,0.0,0.0,0.0,0.0,0.0,0.0,0.0,0.0,0.0,0.0,0.0,0.0,0.0,0.0,0.0,0.0,0.0,0.0,0.0,0.0,0.0,0.0,0.0,0.0,0.0,0.0,0.0,0.0,0.0,0.0,0.0,0.0,0.0,0.0,0.0,0.0,0.0,0.0,0.0,0.0,0.0,0.0,0.0,0.0,0.0,0.0,0.0,0.0,0.0,0.0,0.0,0.0,0.0,0.0,0.0,0.0,0.0,0.0,0.0,0.0,0.0,0.0,0.0,0.0,0.0,0.0,0.0,0.0,0.0,0.0,0.0,0.0,0.0,0.0,0.0,0.0,0.0,0.0,0.0,0.0,0.0,0.0,0.0,0.0,0.0,0.0,-0.3393,-0.2854,-0.245,-0.2214,-0.2417,-0.1913,-0.047,0.0,0.0,0.0,0.0,0.0,0.0,0.0,0.0,0.0,0.0,0.0,0.0,0.0,0.0,0.0,0.0,0.0,0.0,0.0,0.0,0.0,0.0,0.0,0.0,0.0,0.0,0.0,0.0,0.0,0.0,0.0,0.0,0.0,0.0,0.0,0.0,0.0,0.0,0.0,0.0,0.0,0.0,0.0,0.0,0.0,0.0,0.0,0.0,0.0,0.0,0.0,0.0,0.0,0.0,0.0,0.0,0.0,0.0,0.0,0.0,0.0,0.0,0.0,0.0,0.0,0.0,0.0,0.0,0.0,0.0,0.0,0.0,0.0,0.0,0.0,0.0,0.0,0.0,0.0,0.0,0.0,0.0,0.0,0.0,0.0,0.0,0.0,0.0,0.0,0.0,0.0,0.0,0.0,0.0,0.0,0.0,0.0,0.0,0.0,0.0,0.0,0.0,0.0,0.0,0.0,0.0,0.0,0.0,-0.3811,-0.3442,-0.2967,-0.235,-0.2894,-0.2591,0.0,0.0,0.0,0.0,0.0,0.0,0.0,0.0,0.0,0.0,0.0,0.0,0.0,0.0,0.0,0.0,0.0,0.0,0.0,0.0,0.0,0.0,0.0,0.0,0.0,0.0,0.0,0.0,0.0,0.0,0.0,0.0,0.0,0.0,0.0,0.0,0.0,0.0,0.0,0.0,0.0,0.0,0.0,0.0,0.0,0.0,0.0,0.0,0.0,0.0,0.0,0.0,0.0,0.0,0.0,0.0,0.0,0.0,0.0,0.0,0.0,0.0,0.0,0.0,0.0,0.0,0.0,0.0,0.0,0.0,0.0,0.0,0.0,0.0,0.0,0.0,0.0,0.0,0.0,0.0,0.0,0.0,0.0,0.0,0.0,0.0,0.0,0.0,0.0,0.0,0.0,0.0,0.0,0.0,0.0,0.0,0.0,0.0,0.0,0.0,0.0,0.0,0.0,0.0,0.0,0.0,0.0,0.0,0.0,-0.403,-0.3923,-0.3709,-0.3395,-0.3457,-0.305,0.0,0.0,0.0,0.0,0.0,0.0,0.0,0.0,0.0,0.0,0.0,0.0,0.0,0.0,0.0,0.0,0.0,0.0,0.0,0.0,0.0,0.0,0.0,0.0,0.0,0.0,0.0,0.0,0.0,0.0,0.0,0.0,0.0,0.0,0.0,0.0,0.0,0.0,0.0,0.0,0.0,0.0,0.0,0.0,0.0,0.0,0.0,0.0,0.0,0.0,0.0,0.0,0.0,0.0,0.0,0.0,0.0,0.0,0.0,0.0,0.0,0.0,0.0,0.0,0.0,0.0,0.0,0.0,0.0,0.0,0.0,0.0,0.0,0.0,0.0,0.0,0.0,0.0,0.0,0.0,0.0,0.0,0.0,0.0,0.0,0.0,0.0,0.0,0.0,0.0,0.0,0.0,0.0,0.0,0.0,0.0,0.0,0.0,0.0,0.0,0.0,0.0,0.0,0.0,0.0,0.0,0.0,0.0,-0.4256,-0.4367,-0.4331,-0.4303,-0.4171,-0.3951,-0.3565,0.0,0.0,0.0,0.0,0.0,0.0,0.0,0.0,0.0,0.0,0.0,0.0,0.0,0.0,0.0,0.0,0.0,0.0,0.0,0.0,0.0,0.0,0.0,0.0,0.0,0.0,0.0,0.0,0.0,0.0,0.0,0.0,0.0,0.0,0.0,0.0,0.0,0.0,0.0,0.0,0.0,0.0,0.0,0.0,0.0,0.0,0.0,0.0,0.0,0.0,0.0,0.0,0.0,0.0,0.0,0.0,0.0,0.0,0.0,0.0,0.0,0.0,0.0,0.0,0.0,0.0,0.0,0.0,0.0,0.0,0.0,0.0,0.0,0.0,0.0,0.0,0.0,0.0,0.0,0.0,0.0,0.0,0.0,0.0,0.0,0.0,0.0,0.0,0.0,0.0,0.0,0.0,0.0,0.0,0.0,0.0,0.0,0.0,0.0,0.0,0.0,0.0,0.0,0.0,0.0,0.0,0.0,0.0,-0.4543,-0.4728,-0.4728,-0.4728,-0.4728,-0.4354,-0.4051,0.0,0.0,0.0,0.0,0.0,0.0,0.0,0.0,0.0,0.0,0.0,0.0,0.0,0.0,0.0,0.0,0.0,0.0,0.0,0.0,0.0,0.0,0.0,0.0,0.0,0.0,0.0,0.0,0.0,0.0,0.0,0.0,0.0,0.0,0.0,0.0,0.0,0.0,0.0,0.0,0.0,0.0,0.0,0.0,0.0,0.0,0.0,0.0,0.0,0.0,0.0,0.0,0.0,0.0,0.0,0.0,0.0,0.0,0.0,0.0,0.0,0.0,0.0,0.0,0.0,0.0,0.0,0.0,0.0,0.0,0.0,0.0,0.0,0.0,0.0,0.0,0.0,0.0,0.0,0.0,0.0,0.0,0.0,0.0,0.0,0.0,0.0,0.0,0.0,0.0,0.0,0.0,0.0,0.0,0.0,0.0,0.0,0.0,0.0,0.0,0.0,0.0,0.0,0.0,0.0,0.0,0.0,0.0,-0.4901,-0.4936,-0.4939,-0.4942,-0.4939,-0.4618,-0.4306,0.0,0.0,0.0,0.0,0.0,0.0,0.0,0.0,0.0,0.0,0.0,0.0,0.0,0.0,0.0,0.0,0.0,0.0,0.0,0.0,0.0,0.0,0.0,0.0,0.0,0.0,0.0,0.0,0.0,0.0,0.0,0.0,0.0,0.0,0.0,0.0,0.0,0.0,0.0,0.0,0.0,0.0,0.0,0.0,0.0,0.0,0.0,0.0,0.1787,0.0,0.0,0.0,0.0,0.0,0.0,0.0,0.0,0.0,0.0,0.0,0.0,0.0,0.0,0.0,0.0,0.0,0.0,0.0,0.0,0.0,0.0,0.0,0.0,0.0,0.0,0.0,0.0,0.0,0.0,0.0,0.0,0.0,0.0,0.0,0.0,0.0,0.0,0.0,0.0,0.0,0.0,0.0,0.0,0.0,0.0,0.0,0.0,0.0,0.0,0.0,0.0,0.0,0.0,0.0,0.0,0.0,0.0,0.0,-0.5018,-0.5018,-0.5018,-0.5018,-0.4976,-0.4835,-0.4622,0.0,0.0,0.0,0.0,0.0,0.0,0.0,0.0,0.0,0.0,0.0,0.0,0.0,0.0,0.0,0.0,0.0,0.0,0.0,0.0,0.0,0.0,0.0,0.0,0.0,0.0,0.0,0.0,0.0,0.0,0.0,0.0,0.0,0.0,0.0,0.0,0.0,0.0,0.0,0.0,0.0,0.0,0.0,0.0,0.0,0.0,0.0,0.0,0.0,0.0,0.0,0.0,0.0,0.0,0.0,0.0,0.0,0.0,0.0,0.0,0.0,0.0,0.0,0.0,0.0,0.0,0.0,0.0,0.0,0.0,0.0,0.0,0.0,0.0,0.0,0.0,0.0,0.0,0.0,0.0,0.0,0.0,0.0,0.0,0.0,0.0,0.0,0.0,0.0,0.0,0.0,0.0,0.0,0.0,0.0,0.0,0.0,0.0,0.0,0.0,0.0,0.0,0.0,0.0,0.0,0.0,0.0,-0.5018,-0.5018,-0.5018,-0.5018,-0.5018,-0.5018,-0.5018,-0.4898,-0.474,0.0,0.0,0.0,0.0,0.0,0.0,0.0,0.0,0.0,0.0,0.0,0.0,0.0,0.0,0.0,0.0,0.0,0.0,0.0,0.0,0.0,0.0,0.0,0.0,0.0,0.0,0.0,0.0,0.0,0.0,0.0,0.0,0.0,0.0,0.0,0.0,0.0,0.0,0.1917,0.1776,0.0,0.0,0.0,0.0,0.0,0.0,0.0,0.0,0.158,0.0,0.0,0.0,0.0,0.0,0.0,0.0,0.0,0.0,0.0,0.0,0.0,0.0,0.0,0.0,0.0,0.0,0.0,0.0,0.0,0.0,0.0,0.0,0.0,0.0,0.0,0.0,0.0,0.0,0.0,0.0,0.0,0.0,0.0,0.0,0.0,0.0,0.0,0.0,0.0,0.0,0.0,0.0,0.0,0.0,0.0,0.0,0.0,0.0,0.0,0.0,0.0,0.0,0.0,0.0,0.0,-0.5018,-0.5018,-0.5018,-0.5018,-0.5018,-0.5018,-0.5018,-0.5018,-0.4979,-0.494,0.0,0.0,0.0,0.0,0.0,0.0,0.0,0.0,0.0,0.0,0.0,0.0,0.0,0.0,0.0,0.0,0.0,0.0,0.0,0.0,0.0,0.0,0.0,0.0,0.0,0.0,0.0,0.0,0.0,0.0,0.0,0.0,0.0,0.0,0.0,0.0,0.0,0.0,0.0,0.16,0.1528,0.0,0.0,0.0,0.0,0.0,0.0,0.0,0.0,0.1543,0.0,0.0,0.0,0.0,0.0,0.0,0.0,0.0,0.0,0.0,0.0,0.0,0.0,0.0,0.0,0.0,0.0,0.0,0.0,0.0,0.0,0.0,0.0,0.0,0.0,0.0,0.0,0.0,0.0,0.0,0.0,0.0,0.0,0.0,0.0,0.0,0.0,0.0,0.0,0.0,0.0,0.0,0.0,0.0,0.0,0.0,0.0,0.0,0.0,0.0,0.0,0.0,0.0,0.0,0.0,-0.5021,-0.5075,-0.5105,-0.5105,-0.5167,-0.52,-0.52,-0.52,-0.52,0.0,0.0,0.0,0.0,0.0,0.0,0.0,0.0,0.0,0.0,0.0,0.0,0.0,0.0,0.0,0.0,0.0,0.0,0.0,0.0,0.0,0.0,0.0,0.0,0.0,0.0,0.0,0.0,0.0,0.0,0.0,0.0,0.0,0.0,0.0,0.0,0.0,0.0,0.0,0.0,0.1433,0.1244,0.0706,0.0,0.0,0.0,0.0,0.0,0.0,0.1369,0.1439,0.0,0.0,0.0,0.0,0.0,0.0,0.0,0.0,0.0,0.0,0.0,0.0,0.0,0.0,0.0,0.0,0.0,0.0,0.0,0.0,0.0,0.0,0.0,0.0,0.0,0.0,0.0,0.0,0.0,0.0,0.0,0.0,0.0,0.0,0.0,0.0,0.0,0.0,0.0,0.0,0.0,0.0,0.0,0.0,0.0,0.0,0.0,0.0,0.0,0.0,0.0,0.0,0.0,0.0,0.0,-0.5089,-0.5175,-0.5265,-0.5227,-0.5361,-0.5413,-0.5413,-0.5413,-0.5413,0.0,0.0,0.0,0.0,0.0,0.0,0.0,0.0,0.0,0.0,0.0,0.0,0.0,0.0,0.0,0.0,0.0,0.0,0.0,0.0,0.0,0.0,0.0,0.0,0.0,0.0,0.0,0.0,0.0,0.0,0.0,0.0,0.0,0.0,0.0,0.0,0.0,0.0,0.0,0.0,0.0,0.0748,0.0068,0.0488,0.0,0.0,0.0,0.0,0.0765,0.0911,0.0,0.0,0.0,0.0,0.0,0.0,0.0,0.0,0.0,0.0,0.0,0.0,0.0,0.0,0.0,0.0,0.0,0.0,0.0,0.0,0.0,0.0,0.0,0.0,0.0,0.0,0.0,0.0,0.0,0.0,0.0,0.0,0.0,0.0,0.0,0.0,0.0,0.0,0.0,0.0,0.0,0.0,0.0,0.0,0.0,0.0,0.0,0.0,0.0,0.0,0.0,0.0,0.0,0.0,0.0,0.0,-0.5366,-0.538,-0.5388,-0.5349,-0.5405,-0.5413,-0.5413,-0.5413,-0.5413,0.0,0.0,0.0,0.0,0.0,0.0,0.0,0.0,0.0,0.0,0.0,0.0,0.0,0.0,0.0,0.0,0.0,0.0,0.0,0.0,0.0,0.0,0.0,0.0,0.0,0.0,0.0,0.0,0.0,0.0,0.0,0.0,0.0,0.0,0.0,0.0,0.0,0.0,0.0,0.0,0.0,0.0035,-0.0072,0.0,-0.0254,0.0,0.0,-0.0182,-0.0909,-0.04,0.0,0.0,0.0,0.0,0.0,0.0,0.0,0.0,0.0,0.0,0.0,0.0,0.0,0.0,0.0,0.0,0.0,0.0,0.0,0.0,0.0,0.0,0.0,0.0,0.0,0.0,0.0,0.0,0.0,0.0,0.0,0.0,0.0,0.0,0.0,0.0,0.0,0.0,0.0,0.0,0.0,0.0,0.0,0.0,0.0,0.0,0.0,0.0,0.0,0.0,0.0,0.0,0.0,0.0,0.0,-0.5358,-0.5413,-0.5439,-0.5472,-0.5432,-0.554,-0.5578,-0.5578,-0.5575,-0.5575,0.0,0.0,0.0,0.0,0.0,0.0,0.0,0.0,0.0,0.0,0.0,0.0,0.0,0.0,0.0,0.0,0.0,0.0,0.0,0.0,0.0,0.0,0.0,0.0,0.0,0.0,0.0,0.0,0.0,0.0,0.0,0.0,0.0,0.0,0.0,0.0,0.0,0.0,0.0,0.0,0.0,0.0,-0.0654,-0.0774,0.0,0.0,0.0,-0.0912,-0.1252,0.0,0.0,0.0,0.0,0.0,0.0,0.0,0.0,0.0,0.0,0.0,0.0,0.0,0.0,0.0,0.0,0.0,0.0,0.0,0.0,0.0,0.0,0.0,0.0,0.0,0.0,0.0,0.0,0.0,0.0,0.0,0.0,0.0,0.0,0.0,0.0,0.0,0.0,0.0,0.0,0.0,0.0,0.0,0.0,0.0,0.0,0.0,0.0,0.0,0.0,0.0,0.0,0.0,0.0,0.0,0.0,0.0,-0.5588,-0.5806,-0.5811,-0.5684,-0.5687,-0.5688,-0.5688,-0.5688,0.0,0.0,0.0,0.0,0.0,0.0,0.0,0.0,0.0,0.0,0.0,0.0,0.0,0.0,0.0,0.0,0.0,0.0,0.0,0.0,0.0,0.0,0.0,0.0,0.0,0.0,0.0,0.091,0.0,0.0,0.0,0.0,0.0,0.0,0.0,0.0,0.0,0.0,0.0,0.0,0.0,0.0,-0.0921,-0.1445,-0.1582,-0.1868,0.0,0.0,-0.1685,-0.1881,-0.1763,-0.141,0.0,0.0,0.0,0.0,0.0,0.0,0.0,0.0,0.0,0.0,0.0,0.0,0.0,0.0,0.0,0.0,0.0,0.0,0.0,0.0,0.0,0.0,0.0,0.0,0.0,0.0,0.0,0.0,0.0,0.0,0.0,0.0,0.0,0.0,0.0,0.0,0.0,0.0,0.0,0.0,0.0,0.0,0.0,0.0,0.0,0.0,0.0,0.0,0.0,0.0,0.0,0.0,0.0,0.0,0.0,-0.6098,-0.6678,-0.6684,-0.6071,-0.5816,-0.5688,-0.5688,-0.5688,-0.5688,0.0,0.0,0.0,0.0,0.0,0.0,0.0,0.0,0.0,0.0,0.0,0.0,0.0,0.0,0.0,0.0,0.0,0.0,0.0,0.0,0.0,0.0,0.0,0.0,0.0,0.0,0.0,0.0,0.0,0.0,0.0,0.0,0.0,0.0,0.0,0.0,0.0,0.0,0.0,0.0,0.0,-0.2433,-0.2411,-0.2423,-0.2738,0.0,0.0,-0.2707,-0.3528,-0.2942,-0.2392,-0.2353,0.0,0.0,0.0,0.0,0.0,0.0,0.0,0.0,0.0,0.0,0.0,0.0,0.0,0.0,0.0,0.0,0.0,0.0,0.0,0.0,0.0,0.0,0.0,0.0,0.0,0.0,0.0,0.0,0.0,0.0,0.0,0.0,0.0,0.0,0.0,0.0,0.0,0.0,0.0,0.0,0.0,0.0,0.0,0.0,0.0,0.0,0.0,0.0,0.0,0.0,0.0,0.0,0.0,-0.6339,-0.6124,-0.6479,-0.6564,-0.6302,-0.6169,-0.6083,-0.5952,-0.5952,-0.5863,0.0,0.0,0.0,0.0,0.0,0.0,0.0,0.0,0.0,0.0,0.0,0.0,0.0,0.0,0.0,0.0,0.0,0.0,0.0,0.0,0.0,0.0,0.0,0.0,0.0,0.0,0.0,0.0,-0.1254,-0.1556,-0.2225,0.0,0.0,0.0,0.0,0.0,0.0,0.0,0.0,0.0,0.0,-0.2907,-0.2856,-0.3329,0.0,0.0,-0.4006,-0.3865,-0.4123,-0.3887,-0.3437,-0.2782,-0.2126,0.0,0.0,0.0,0.0,0.0,0.0,0.0,0.0,0.0,0.0,0.0,0.0,0.0,0.0,0.0,0.0,0.0,0.0,0.0,0.0,0.0,0.0,0.0,0.0,0.0,0.0,0.0,0.0,0.0,0.0,0.0,0.0,0.0,0.0,0.0,0.0,0.0,0.0,0.0,0.0,0.0,0.0,0.0,0.0,0.0,0.0,0.0,0.0,0.0,0.0,0.0,0.0,-0.7349,-0.7132,-0.7482,-0.7566,-0.7349,-0.7,-0.6738,-0.6609,-0.6343,-0.6083,0.0,0.0,0.0,0.0,0.0,0.0,0.0,0.0,0.0,0.0,0.0,0.0,0.0,0.0,0.0,0.0,0.0,0.0,0.0,0.0,0.0,0.0,0.0,0.0,0.0,0.0,0.0,0.0,-0.222,-0.2545,-0.3275,0.0,0.0,0.0,0.0,0.0,0.0,0.0,0.0,0.0,0.0,-0.3599,-0.3601,-0.4079,-0.4503,-0.4623,-0.4632,-0.4615,-0.4522,-0.449,-0.4239,-0.3482,0.0,0.0,0.0,0.0,0.0,0.0,0.0,0.0,0.0,0.0,0.0,0.0,0.0,0.0,0.0,0.0,0.0,0.0,0.0,0.0,0.0,0.0,0.0,0.0,0.0,0.0,0.0,0.0,0.0,0.0,-0.4676,0.0,0.0,0.0,0.0,0.0,0.0,0.0,0.0,0.0,0.0,0.0,0.0,0.0,0.0,0.0,0.0,0.0,0.0,0.0,0.0,0.0,0.0,-1.0091,-0.9536,-1.0048,-1.0135,-0.9492,-0.84,-0.7786,-0.7746,-0.6868,-0.6387,-0.6387,0.0,0.0,0.0,0.0,0.0,0.0,0.0,0.0,0.0,0.0,0.0,0.0,0.0,0.0,0.0,0.0,0.0,0.0,0.0,0.0,0.0,0.0,0.0,0.0,0.0,0.0,-0.4152,-0.4282,-0.43,0.0,0.0,0.0,0.0,0.0,0.0,0.0,0.0,0.0,0.0,-0.4588,-0.4652,-0.465,-0.4694,-0.4689,-0.4701,-0.4699,-0.4701,-0.4711,-0.4708,-0.4703,0.0,0.0,0.0,0.0,0.0,0.0,0.0,0.0,0.0,0.0,0.0,0.0,0.0,0.0,0.0,0.0,0.0,0.0,0.0,0.0,0.0,0.0,0.0,0.0,0.0,0.0,0.0,-0.4837,-0.4726,0.0,0.0,0.0,0.0,0.0,0.0,0.0,0.0,0.0,0.0,0.0,-0.8312,-0.8543,0.0,0.0,0.0,0.0,0.0,0.0,0.0,0.0,0.0,0.0,0.0,0.0,-0.984,-0.9623,-0.9966,-1.0009,-0.9792,-0.9401,-0.9135,-0.9013,-0.8093,-0.7217,-0.6428,0.0,0.0,0.0,0.0,0.0,0.0,0.0,0.0,0.0,0.0,0.0,0.0,0.0,0.0,0.0,0.0,0.0,0.0,0.0,0.0,0.0,0.0,0.0,0.0,0.0,-0.4282,0.0,0.0,0.0,0.0,0.0,0.0,0.0,0.0,0.0,0.0,0.0,-0.4935,-0.4935,-0.5054,-0.5163,-0.5163,-0.5163,-0.5189,0.0,0.0,0.0,0.0,0.0,0.0,0.0,0.0,0.0,0.0,0.0,0.0,0.0,0.0,-0.1967,-0.078,-0.0575,-0.0575,-0.0575,0.0,0.0,0.0,0.0,0.0,0.0,0.0,0.0,0.0,0.0,0.0,0.0,0.0,0.0,-0.5992,0.0,-0.6118,0.0,0.0,0.0,0.0,0.0,0.0,0.0,0.0,-0.8354,-0.888,-0.9664,-0.9824,-1.0063,0.0,-1.0266,-1.028,0.0,0.0,0.0,0.0,0.0,0.0,0.0,0.0,-1.0664,-1.0664,-1.0794,-1.088,-1.088,-1.0577,-1.0318,-1.0193,-0.927,-0.8396,-0.7522,-0.7217,-0.6912,0.0,0.0,0.0,0.0,0.0,0.0,0.0,0.0,0.0,0.0,0.0,0.0,0.0,0.0,0.0,0.0,0.0,0.0,0.0,0.0,0.0,0.0,0.0,-0.4804,0.0,0.0,0.0,0.0,0.0,0.0,0.0,0.0,0.0,-0.5006,-0.511,-0.5218,-0.5218,-0.5384,-0.5494,-0.5496,0.0,0.0,0.0,0.0,0.0,0.0,0.0,-0.5463,-0.528,-0.5235,-0.5235,-0.5146,-0.5134,-0.4846,-0.4128,0.0,0.0,-0.1937,-0.1637,-0.1638,-0.1512,-0.1513,-0.1515,-0.1484,-0.1487,-0.149,0.0,0.0,0.0,0.0,0.0,0.0,0.0,0.0,-0.8097,-0.8097,0.0,-0.8325,0.0,0.0,0.0,0.0,0.0,-0.7757,0.0,0.0,-0.9591,-1.0223,-1.1113,-1.1294,-1.1794,-1.2662,-1.2656,-1.265,-1.2565,-1.0659,0.0,0.0,0.0,0.0,0.0,0.0,-1.2705,-1.2662,-1.2662,-1.2656,-1.2619,-1.18,-1.1322,-1.1235,-1.0404,-0.9836,-0.9579,-0.8703,-0.8137,-0.7834,-0.6782,0.0,0.0,0.0,0.0,0.0,0.0,0.0,0.0,0.0,0.0,0.0,0.0,0.0,0.0,0.0,0.0,0.0,0.0,0.0,0.0,-0.5288,0.0,0.0,0.0,0.0,0.0,0.0,0.0,0.0,0.0,0.0,-0.5628,-0.5528,-0.551,-0.5513,0.0,0.0,0.0,0.0,-0.5819,-0.5819,-0.5777,-0.573,-0.5777,-0.5733,-0.5688,-0.5688,0.0,0.0,-0.5419,-0.5416,-0.5322,-0.5053,-0.4999,-0.437,-0.2415,-0.2106,-0.2022,-0.1729,-0.1732,-0.1612,-0.164,-0.1821,-0.1745,-0.9657,0.0,0.0,0.0,0.0,-0.8524,-0.8591,-0.8684,-0.8813,-0.8813,-0.8689,-0.8913,0.0,0.0,0.0,0.0,0.0,0.0,-0.97,-1.0693,-1.0809,-1.1347,-1.2209,-1.2279,-1.2443,-1.2705,-1.2705,-1.2705,-1.2662,-1.2095,-1.1923,-1.2095,0.0,0.0,0.0,0.0,-1.2705,-1.2705,-1.2705,-1.2705,-1.2705,-1.2443,-1.1972,-1.1322,-1.1063,-1.0577,-0.9836,-0.957,-0.9314,-0.9056,-0.8137,0.0,0.0,0.0,0.0,0.0,0.0,0.0,0.0,0.0,0.0,0.0,0.0,0.0,0.0,0.0,0.0,0.0,0.0,0.0,-0.5327,-0.5405,-0.5456,0.0,0.0,0.0,0.0,0.0,0.0,0.0,0.0,0.0,-0.7994,-0.6652,-0.5637,0.0,0.0,-0.67,-0.67,-0.7272,-0.7713,-0.7709,-0.7139,0.0,0.0,-0.613,-0.5688,-0.5688,-0.5688,-0.5688,-0.5644,-0.5599,-0.5599,-0.5508,-0.5508,-0.526,-0.4588,-0.4216,-0.4039,-0.3869,-0.3784,-0.3791,-0.3765,-0.377,-0.3776,-1.1398,-1.0367,-0.9988,-0.9877,-0.9958,-0.9958,-1.004,-1.0115,-1.0207,-1.0207,-1.0126,-1.0341,-1.0177,-0.9683,-0.9428,0.0,0.0,0.0,-1.0884,-1.1886,-1.1843,-1.2143,-1.2662,-1.2705,-1.2705,-1.2705,-1.2705,-1.2705,-1.2705,-1.2705,-1.2705,-1.2705,0.0,0.0,-1.2705,-1.2705,-1.2705,-1.2705,-1.2705,-1.2705,-1.2705,-1.2705,-1.2443,-1.188,-1.1843,-1.1574,-1.1052,-1.0664,-1.0404,-1.0279,-0.8965,-0.8313,0.0,0.0,0.0,0.0,0.0,0.0,0.0,0.0,0.0,0.0,0.0,-0.5684,-0.602,0.0,0.0,0.0,-0.674,-0.6613,-0.6275,-0.6688,0.0,0.0,0.0,0.0,0.0,0.0,0.0,-0.8133,-0.8261,-0.8563,-0.9083,-0.7954,-0.7085,-0.7085,-0.7265,-0.7485,-0.7874,0.0,-0.8675,-0.8671,-0.8105,-0.7533,-0.7183,-0.6612,-0.6127,-0.5777,-0.5688,-0.5688,-0.5688,-0.5688,-0.5688,-0.5688,-0.5688,-0.5644,-0.5552,-0.5371,-0.5146,-0.4879,-0.479,-0.4835,-0.4835,-0.4837,-0.4882,-1.2771,-1.2686,-1.1846,-1.1549,-1.1704,-1.1704,-1.1785,-1.198,-1.1946,-1.194,-1.1999,-1.224,-1.1844,-1.1015,-1.0401,0.0,-1.1413,-1.1408,-1.1892,-1.2735,-1.2741,-1.2747,-1.2771,-1.2771,-1.2771,-1.2765,-1.2765,-1.2771,-1.2777,-1.2771,-1.2765,-1.2765,-1.2771,-1.2747,-1.2711,-1.2705,-1.2705,-1.2705,-1.2705,-1.2705,-1.2705,-1.2705,-1.2705,-1.2705,-1.2705,-1.2699,-1.2656,-1.1886,-1.1413,-1.137,-0.9531,-0.8834,-0.9623,0.0,0.0,0.0,0.0,0.0,0.0,0.0,0.0,0.0,0.0,0.0,0.0,0.0,0.0,0.0,-0.8803,0.0,-0.7705,-0.8567,0.0,0.0,0.0,-0.9209,-0.9209,-0.9209,-0.9257,-0.9339,0.0,0.0,-0.9474,-0.9426,-0.9387,-0.947,-0.8655,-0.8352,-0.917,-0.927,-0.9152,-0.924,-0.8846,-0.8324,-0.7621,-0.7231,-0.6745,-0.6041,-0.5733,-0.5688,-0.5688,-0.5688,-0.5688,-0.5688,-0.5688,-0.5688,-0.5688,-0.5688,-0.5552,-0.5146,-0.5055,-0.5055,-0.501,-0.5055,-0.5055,-1.332,-1.3308,-1.3055,-1.2768,-1.2439,-1.2433,-1.2476,-1.2518,-1.2524,-1.2518,-1.2524,-1.2584,-1.2481,-1.2275,-1.2114,-1.218,-1.2357,-1.2363,-1.2604,-1.3019,-1.3025,-1.3127,-1.332,-1.332,-1.332,-1.332,-1.332,-1.332,-1.332,-1.332,-1.3326,-1.332,-1.332,-1.3115,-1.2717,-1.2705,-1.2705,-1.2705,-1.2705,-1.2705,-1.2705,-1.2705,-1.2705,-1.2705,-1.2705,-1.2705,-1.2705,-1.2485,-1.2357,-1.2314,-1.123,-1.0669,-1.0842,-0.9797,0.0,0.0,0.0,0.0,0.0,0.0,0.0,0.0,0.0,-0.7929,-0.7445,0.0,-0.8145,0.0,-0.9091,-0.9043,-0.8821,-0.9039,0.0,0.0,-0.9209,-0.9209,-0.9209,-0.9392,-0.9788,-1.0476,-1.0702,-1.1052,-1.1783,-1.123,-1.1052,-1.174,-1.074,-1.0043,-1.026,-1.089,-1.1214,-1.1003,-1.0357,-0.9724,-0.9165,-0.7973,-0.7017,-0.6786,-0.6174,-0.5688,-0.5691,-0.5688,-0.5688,-0.5688,-0.5688,-0.5688,-0.5694,-0.5688,-0.5691,-0.5552,-0.5416,-0.5327,-0.5327,-0.5327,-0.5374,-1.3468,-1.3468,-1.3468,-1.3338,-1.3067,-1.3061,-1.3061,-1.3067,-1.3061,-1.3061,-1.3067,-1.3061,-1.3061,-1.3067,-1.3061,-1.3061,-1.3067,-1.3061,-1.3145,-1.3252,-1.3252,-1.3375,-1.3513,-1.3468,-1.3468,-1.3468,-1.3468,-1.3468,-1.3468,-1.3468,-1.3468,-1.3468,-1.3468,-1.3363,-1.3079,-1.3067,-1.3067,-1.3067,-1.3067,-1.3006,-1.2892,-1.2892,-1.2903,-1.3055,-1.2831,-1.2765,-1.2892,-1.2771,-1.2705,-1.2662,-1.1901,-1.1603,-1.1892,-1.1022,-1.0416,0.0,0.0,0.0,0.0,0.0,0.0,0.0,0.0,0.0,0.0,0.0,-0.8917,-0.917,-1.0038,-1.0476,-1.0038,-1.0433,-1.0778,-1.0735,-1.074,-1.0735,-1.074,-1.0875,-1.1187,-1.1697,-1.1837,-1.21,-1.2619,-1.2339,-1.2284,-1.2805,-1.2321,-1.1861,-1.1761,-1.2105,-1.233,-1.2313,-1.1744,-1.08,-0.9772,-0.8332,-0.72,-0.6706,-0.6205,-0.589,-0.589,-0.589,-0.589,-0.589,-0.589,-0.5888,-0.589,-0.5842,-0.589,-0.5845,-0.5796,-0.5686,-0.5636,-0.5665,-0.5751,-1.3616,-1.3616,-1.361,-1.361,-1.361,-1.3616,-1.358,-1.3468,-1.3468,-1.3468,-1.3468,-1.3468,-1.3468,-1.3468,-1.3468,-1.3468,-1.3468,-1.3468,-1.3532,-1.3568,-1.3562,-1.3586,-1.3616,-1.3616,-1.3616,-1.3616,-1.361,-1.3616,-1.3616,-1.3616,-1.3616,-1.3616,-1.361,-1.361,-1.3616,-1.3616,-1.3586,-1.3513,-1.3468,-1.3354,-1.3181,-1.3131,-1.3239,-1.3483,-1.3055,-1.291,-1.3109,-1.2892,-1.2741,-1.2668,-1.2177,-1.2106,-1.2637,-1.2127,-1.1663,0.0,-1.109,0.0,0.0,0.0,0.0,0.0,0.0,0.0,0.0,-1.0043,-0.9648,-0.96,-1.1305,-1.2095,-1.1305,-1.2137,-1.2705,-1.2705,-1.2705,-1.2705,-1.2705,-1.2735,-1.2759,-1.2759,-1.2783,-1.2807,-1.2837,-1.3025,-1.3131,-1.3188,-1.3249,-1.327,-1.3183,-1.2978,-1.2942,-1.3172,-1.278,-1.171,-1.0103,-0.887,-0.7937,-0.701,-0.672,-0.6461,-0.6355,-0.6355,-0.6264,-0.6125,-0.6067,-0.6075,-0.6086,-0.6081,-0.6081,-0.607,-0.6081,-0.6062,-0.5966,-0.5996,-0.6081,-1.4153,-1.4153,-1.4147,-1.4153,-1.4153,-1.4153,-1.3906,-1.3468,-1.3468,-1.3468,-1.3468,-1.3468,-1.3468,-1.3468,-1.3468,-1.3468,-1.3468,-1.3468,-1.3628,-1.3833,-1.3827,-1.3948,-1.4135,-1.4147,-1.4147,-1.4147,-1.4153,-1.4153,-1.4153,-1.4153,-1.4147,-1.4147,-1.4153,-1.4147,-1.4153,0.0,0.0,0.0,-1.3468,-1.3489,-1.3447,-1.3396,-1.3465,-1.3468,-1.3417,0.0,-1.3133,-1.3073,-1.294,-1.2723,-1.2582,0.0,0.0,0.0,0.0,0.0,0.0,0.0,0.0,0.0,0.0,0.0,-1.2046,-1.174,-1.1042,-1.1612,-1.196,-1.1832,-1.2308,-1.2571,-1.24,-1.2577,-1.2705,-1.2705,-1.2705,-1.2705,-1.2711,-1.2904,-1.3005,-1.3049,-1.3224,-1.3357,-1.3344,-1.3417,-1.3441,-1.3447,-1.3483,-1.358,-1.3737,-1.3522,-1.3335,-1.3195,-1.2957,-1.2517,-1.1854,-1.0893,-1.0032,-0.976,-0.9064,-0.8329,-0.7597,-0.7409,-0.7029,-0.6425,-0.6086,-0.6139,-0.6139,-0.6086,-0.6147,-0.6089,-0.6168,-0.6246,-0.6078,-0.607,-0.6086,-1.4244,0.0,-1.4244,-1.4319,0.0,-1.4294,-1.4221,-1.4092,-1.3952,-1.39,-1.39,-1.39,-1.39,-1.39,-1.39,-1.39,-1.39,-1.39,-1.4019,-1.4288,-1.4288,-1.4415,-1.4694,-1.4592,-1.449,-1.449,-1.4394,-1.4298,-1.4298,-1.4298,-1.4298,-1.4298,-1.4298,-1.4298,-1.4298,-1.4298,-1.4105,-1.3713,-1.3833,-1.3833,-1.3713,-1.3707,-1.3773,-1.3888,-1.3646,0.0,0.0,0.0,0.0,0.0,0.0,0.0,0.0,0.0,0.0,-1.2711,-1.2229,-1.2186,-1.2619,-1.2272,-1.2192,-1.2662,-1.2705,-1.2443,-1.1869,-1.2357,-1.2662,-1.2577,-1.2662,-1.2705,-1.2705,-1.2831,-1.291,-1.2916,-1.3025,-1.3103,-1.3115,-1.323,-1.332,-1.3326,-1.3429,-1.3468,-1.3468,-1.364,-1.3707,-1.3719,-1.3827,-1.3942,-1.4045,-1.3876,-1.3656,-1.3561,-1.3444,-1.3057,-1.234,-1.1716,-1.1043,-1.043,-0.9806,-0.9236,-0.8712,-0.862,-0.8427,-0.7949,-0.7849,-0.7704,-0.7127,-0.703,-0.6888,-0.6409,-0.6309,-0.6333,-0.6268,-0.626,-0.6257,-1.4884,-1.4832,-1.4663,-1.4701,-1.4913,-1.4493,-1.4477,-1.4736,0.0,0.0,0.0,-1.4298,-1.4298,-1.4298,-1.434,-1.4394,-1.4394,-1.4442,-1.4538,-1.4742,-1.4785,-1.4961,-1.5159,-1.4956,-1.483,-1.483,-1.4631,-1.4485,-1.4534,-1.4534,-1.4509,-1.4419,-1.4364,-1.4346,-1.4304,-1.4298,-1.4189,-1.3996,-1.4183,-1.4195,-1.3978,-1.3972,-1.4075,-1.4292,-1.3876,-1.3731,-1.3894,-1.3701,-1.3562,-1.3519,-1.3468,-1.3417,-1.3161,-1.3149,-1.3047,-1.2868,-1.285,-1.285,-1.285,-1.285,-1.285,-1.2843,-1.2843,-1.2831,-1.2783,-1.2777,-1.2801,-1.2837,-1.285,-1.285,-1.2856,-1.3049,-1.3149,-1.32,-1.3336,-1.3507,-1.3513,-1.3562,-1.358,-1.3586,-1.364,-1.3658,-1.3682,-1.3845,-1.3972,-1.4002,-1.4135,-1.4298,-1.4274,-1.4105,-1.3944,-1.3933,-1.3903,-1.3553,-1.2684,-1.2226,-1.1614,-1.0947,-1.0471,-1.0149,-0.9953,-0.9899,-0.9801,-0.9428,-0.9604,-0.9148,-0.846,-0.8248,-0.7932,-0.6912,-0.6918,-0.6974,-0.6793,-0.6802,-0.6732,-1.742,-1.7396,-1.636,-1.606,-1.6155,-1.5095,-1.4806,-1.4981,-1.4544,-1.4298,-1.4298,-1.4298,-1.4298,-1.4298,-1.4544,-1.464,-1.4646,-1.4885,-1.5035,-1.5048,-1.5282,-1.539,-1.5445,-1.5426,-1.5382,-1.5382,-1.5325,-1.5332,-1.5325,-1.5319,-1.5214,-1.4955,-1.4752,-1.4539,-1.4316,-1.4298,-1.428,-1.425,-1.428,-1.428,-1.425,-1.4244,-1.4256,-1.4292,-1.4226,-1.4093,-1.3912,-1.3876,-1.3749,-1.3532,-1.3468,-1.3495,-1.342,-1.3459,-1.3447,-1.3405,-1.3399,-1.3399,-1.3354,-1.3405,-1.3399,-1.3399,-1.3405,-1.3308,-1.3085,-1.3067,-1.3163,-1.3363,-1.3375,-1.3399,-1.3405,-1.3435,-1.3414,-1.3465,-1.345,-1.3474,-1.3504,-1.3731,-1.3845,-1.3857,-1.4051,-1.4165,-1.4147,-1.4195,-1.422,-1.4238,-1.4262,-1.4298,-1.4292,-1.4268,-1.4256,-1.4244,-1.425,-1.4058,-1.3624,-1.3588,-1.3195,-1.2754,-1.2511,-1.2014,-1.1126,-1.0993,-1.0752,-0.9858,-0.9883,-0.9735,-0.9434,-0.9357,-0.8992,-0.8238,-0.8621,-0.906,-0.8395,-0.8218,-0.7849,-1.7948,-1.7858,-1.7356,-1.6963,-1.6632,-1.561,-1.5124,-1.5083,-1.4838,-1.4742,-1.4742,-1.4742,-1.4742,-1.4742,-1.4885,-1.4933,-1.4939,-1.5187,-1.5402,-1.5561,-1.5838,-1.6017,-1.6123,-1.5996,-1.596,-1.596,-1.5802,-1.5758,-1.5752,-1.5758,-1.5689,-1.5576,-1.5476,-1.5258,-1.4974,-1.4777,-1.4661,-1.4521,-1.4377,-1.4298,-1.4298,-1.4298,-1.4298,-1.4298,-1.4298,-1.4244,-1.4123,-1.4117,-1.4063,-1.3942,-1.3803,-1.3725,-1.3725,-1.3592,-1.3468,-1.3468,-1.3468,-1.3468,-1.3468,-1.3468,-1.3468,-1.3468,-1.3468,-1.3532,-1.355,-1.3417,-1.3336,-1.3501,-1.3468,-1.3468,-1.3519,-1.3646,-1.3731,-1.3725,-1.3845,-1.3936,-1.3948,-1.4032,-1.4111,-1.4129,-1.422,-1.4298,-1.4298,-1.4298,-1.4298,-1.4298,-1.4298,-1.4304,-1.4316,-1.4437,-1.4467,-1.4334,-1.4298,-1.4256,-1.4118,-1.3979,-1.3786,-1.3588,-1.3394,-1.3044,-1.2365,-1.2291,-1.2132,-1.1657,-1.1585,-1.1465,-1.1006,-1.0854,-1.0395,-0.9674,-0.9713,-0.9912,-0.9551,-0.9097,-0.8154,-1.874,-1.874,-1.8469,-1.7906,-1.7174,-1.6275,-1.5913,-1.5879,-1.5458,-1.5363,-1.5553,-1.5274,-1.5131,-1.5131,-1.5178,-1.521,-1.5342,-1.5534,-1.5816,-1.6091,-1.638,-1.6619,-1.677,-1.6577,-1.6514,-1.6463,-1.6362,-1.626,-1.626,-1.626,-1.6221,-1.6062,-1.5998,-1.5859,-1.5493,-1.5289,-1.5035,-1.4793,-1.4588,-1.4419,-1.4304,-1.4298,-1.4298,-1.4298,-1.4298,-1.4298,-1.4298,-1.4298,-1.4298,-1.4292,-1.4105,-1.3996,-1.3984,-1.3803,-1.3688,-1.3688,-1.3694,-1.3688,-1.3694,-1.3694,-1.3694,-1.3694,-1.3688,-1.3779,-1.3948,-1.3815,-1.3688,-1.3694,-1.3713,-1.3713,-1.3737,-1.387,-1.3996,-1.4002,-1.4165,-1.4262,-1.4292,-1.4298,-1.4298,-1.4298,-1.4298,-1.4298,-1.431,-1.4352,-1.4431,-1.4497,-1.4479,-1.4479,-1.4509,-1.4678,-1.4684,-1.4558,-1.4479,-1.4509,-1.4479,-1.4314,-1.418,-1.4107,-1.3929,-1.3652,-1.3423,-1.354,-1.3518,-1.3245,-1.3324,-1.3104,-1.2463,-1.2253,-1.1803,-1.0963,-1.1041,-1.1059,-1.0391,-0.9447,-0.8431,-2.1292,-2.1167,-2.0121,-1.9149,-1.8203,-1.7436,-1.7598,-1.8102,-1.652,-1.6251,-1.6911,-1.5689,-1.5178,-1.5131,-1.5363,-1.5588,-1.5817,-1.6113,-1.6377,-1.663,-1.6974,-1.7114,-1.7134,-1.7121,-1.7101,-1.7081,-1.7068,-1.7042,-1.7042,-1.7068,-1.6794,-1.6336,-1.6088,-1.5885,-1.555,-1.5525,-1.5362,-1.5071,-1.5046,-1.4793,-1.4334,-1.4298,-1.4298,-1.4298,-1.4298,-1.4298,-1.4298,-1.4298,-1.4298,-1.4298,-1.4274,-1.4256,-1.425,-1.4232,-1.422,-1.4214,-1.422,-1.4226,-1.422,-1.4226,-1.4208,-1.4226,-1.4201,-1.4208,-1.425,-1.4232,-1.422,-1.4195,-1.4208,-1.4183,-1.4226,-1.4238,-1.4238,-1.4226,-1.4268,-1.4298,-1.4304,-1.4298,-1.4298,-1.4298,-1.4352,-1.4304,-1.4383,-1.4545,-1.4757,-1.4926,-1.4932,-1.4938,-1.495,-1.5016,-1.5065,-1.5028,-1.5028,-1.5016,-1.4992,-1.5028,-1.4811,-1.4633,-1.4607,-1.4408,-1.4195,-1.4128,-1.4146,-1.3891,-1.3885,-1.374,-1.3523,-1.3326,-1.2998,-1.2365,-1.2476,-1.2881,-1.1162,-0.9832,-0.8926,-2.1687,-2.1642,-2.1177,-2.0393,-1.9467,-1.8557,-1.8427,-1.8703,-1.7963,-1.7816,-1.811,-1.7544,-1.6615,-1.5566,-1.5813,-1.6062,-1.6139,-1.6627,-1.6854,-1.7045,-1.732,-1.746,-1.7422,-1.7423,-1.743,-1.7437,-1.743,-1.7424,-1.743,-1.7437,-1.7312,-1.7095,-1.697,-1.6814,-1.6497,-1.6343,-1.6106,-1.5838,-1.5688,-1.5444,-1.5029,-1.4722,-1.4461,-1.4316,-1.4298,-1.4298,-1.4298,-1.4298,-1.4298,-1.4298,-1.4298,-1.4298,-1.4298,-1.4298,-1.4298,-1.4298,-1.4298,-1.4298,-1.4298,-1.4298,-1.4298,-1.4298,-1.4298,-1.4298,-1.4298,-1.4298,-1.4298,-1.4298,-1.4304,-1.4298,-1.4304,-1.4304,-1.4298,-1.4298,-1.4298,-1.4304,-1.4298,-1.4455,-1.4545,-1.4558,-1.4684,-1.4769,-1.4787,-1.4877,-1.4992,-1.5095,-1.5119,-1.5137,-1.5125,-1.5234,-1.533,-1.536,-1.5463,-1.5415,-1.5209,-1.5113,-1.5068,-1.4961,-1.4949,-1.4847,-1.4673,-1.4687,-1.4705,-1.4453,-1.4451,-1.4425,-1.4175,-1.4153,-1.3927,-1.3479,-1.3447,-1.3697,-1.2906,-1.1278,-1.0151,-2.1687,-2.1687,-2.1687,-2.1311,-2.0619,-1.9613,-1.9347,-1.9476,-1.9063,-1.8926,-1.9209,-1.903,-1.8186,-1.6959,-1.7028,-1.7252,-1.7478,-1.7851,-1.8156,-1.8247,-1.8414,-1.8356,-1.8048,-1.8042,-1.7891,-1.7635,-1.7589,-1.7589,-1.7589,-1.7589,-1.7589,-1.7589,-1.7589,-1.7483,-1.7213,-1.7016,-1.6756,-1.6418,-1.6285,-1.6049,-1.5694,-1.5325,-1.4948,-1.4545,-1.4449,-1.4455,-1.4503,-1.4388,-1.4346,-1.44,-1.4346,-1.4298,-1.4298,-1.4298,-1.4298,-1.4298,-1.4346,-1.4394,-1.4298,-1.4298,-1.4298,-1.4298,-1.4298,-1.4298,-1.431,-1.4364,-1.4413,-1.4425,-1.4473,-1.4521,-1.4419,-1.4413,-1.4437,-1.4503,-1.4521,-1.4521,-1.4552,-1.4714,-1.4823,-1.4847,-1.4962,-1.5143,-1.5197,-1.5221,-1.5252,-1.5336,-1.5342,-1.5318,-1.5336,-1.5493,-1.5608,-1.5614,-1.5771,-1.5716,-1.5396,-1.5366,-1.5324,-1.5318,-1.5354,-1.5263,-1.5055,-1.5245,-1.5229,-1.5001,-1.5115,-1.5007,-1.4672,-1.4609,-1.4476,-1.4229,-1.4018,-1.3792,-1.3251,-1.1878,-1.0945,-2.1687,-2.1705,-2.1687,-2.167,-2.1562,-2.0663,-2.0744,-2.1356,-1.9708,-1.9409,-2.0169,-1.9753,-1.9375,-1.9296,-1.9304,-1.9581,-2.0093,-2.0095,-2.0249,-2.0507,-2.0613,-2.0158,-1.9176,-1.9124,-1.861,-1.7943,-1.795,-1.7845,-1.7793,-1.7687,-1.7589,-1.7687,-1.7793,-1.7589,-1.743,-1.7457,-1.7087,-1.6989,-1.6963,-1.665,-1.6439,-1.633,-1.5985,-1.5374,-1.4829,-1.4838,-1.5004,-1.4582,-1.446,-1.4706,-1.4527,-1.437,-1.4358,-1.4352,-1.4346,-1.4346,-1.4538,-1.4598,-1.4358,-1.437,-1.4376,-1.4376,-1.4461,-1.437,-1.4485,-1.4625,-1.4734,-1.4696,-1.4877,-1.492,-1.4763,-1.4708,-1.4787,-1.498,-1.504,-1.5028,-1.5046,-1.5046,-1.5089,-1.5095,-1.5143,-1.527,-1.5457,-1.5481,-1.5584,-1.5728,-1.5825,-1.5807,-1.5777,-1.5831,-1.5843,-1.5843,-1.5861,-1.5873,-1.5843,-1.5734,-1.5759,-1.5741,-1.568,-1.5783,-1.5843,-1.582,-1.5654,-1.5541,-1.5512,-1.5309,-1.5041,-1.4826,-1.4557,-1.418,-1.3516,-1.3186,-1.3516,-1.1823,-1.1076,-2.2318,-2.2071,-2.2071,-2.2062,-2.2099,-2.2014,-2.2131,-2.2381,-2.1751,-2.1611,-2.187,-2.1714,-2.1795,-2.2031,-2.2031,-2.1436,-2.046,-2.0633,-2.0766,-2.0885,-2.0885,-2.0672,-2.0313,-2.0261,-2.0107,-1.9753,-1.9694,-1.9694,-1.9702,-1.9694,-1.9702,-1.9702,-1.9702,-1.9642,-1.9598,-1.9598,-1.9495,-1.9383,-1.9383,-1.9214,-1.8883,-1.8935,-1.8715,-1.8191,-1.6485,-1.557,-1.5657,-1.5506,-1.5413,-1.5518,-1.5406,-1.5282,-1.5058,-1.4877,-1.479,-1.4838,-1.4892,-1.5009,-1.5063,-1.5045,-1.5182,-1.5338,-1.5413,-1.5344,-1.5376,-1.5301,-1.5201,-1.5225,-1.5085,-1.5101,-1.5179,-1.5071,-1.5004,-1.5083,-1.5113,-1.5131,-1.5143,-1.5252,-1.536,-1.5384,-1.5487,-1.565,-1.5692,-1.5747,-1.5789,-1.5861,-1.5885,-1.5885,-1.5885,-1.5885,-1.5885,-1.5885,-1.5885,-1.5885,-1.5885,-1.5879,-1.5879,-1.5879,-1.5867,-1.5855,-1.5885,-1.5885,-1.5767,-1.5713,-1.5731,-1.5583,-1.5309,-1.5047,-1.4778,-1.4557,-1.3894,-1.3725,-1.3835,-1.2816,-1.2211,-2.2748,-2.2501,-2.2483,-2.2483,-2.251,-2.2785,-2.2913,-2.2913,-2.2913,-2.2913,-2.2931,-2.3041,-2.3251,-2.3499,-2.3636,-2.3037,-2.1753,-2.1896,-2.1954,-2.1954,-2.1962,-2.1802,-2.1446,-2.1395,-2.1242,-2.0936,-2.0885,-2.0885,-2.0885,-2.0885,-2.0885,-2.0885,-2.0885,-2.0885,-2.0885,-2.0885,-2.0885,-2.0885,-2.0885,-2.0767,-2.0605,-2.0546,-2.0495,-2.0082,-1.8498,-1.7477,-1.7294,-1.7141,-1.7086,-1.7093,-1.675,-1.6271,-1.5735,-1.5556,-1.5454,-1.5399,-1.5454,-1.5524,-1.5641,-1.5679,-1.5762,-1.5941,-1.5966,-1.5966,-1.5973,-1.5834,-1.577,-1.5738,-1.5632,-1.5606,-1.5646,-1.5515,-1.536,-1.536,-1.536,-1.536,-1.5372,-1.5517,-1.5608,-1.5644,-1.5753,-1.5861,-1.5885,-1.5885,-1.5885,-1.5885,-1.5885,-1.5885,-1.5885,-1.5885,-1.5885,-1.5885,-1.5885,-1.5885,-1.5885,-1.5885,-1.5885,-1.5885,-1.5885,-1.5885,-1.5885,-1.5885,-1.5885,-1.5885,-1.5844,-1.5743,-1.5583,-1.5321,-1.5166,-1.507,-1.4874,-1.462,-1.4516,-1.4215,-1.3759,-2.2922,-2.2904,-2.2913,-2.2904,-2.2913,-2.2995,-2.2959,-2.3004,-2.2995,-2.3041,-2.3114,-2.3343,-2.3526,-2.3648,-2.395,-2.4066,-2.3899,-2.3827,-2.3845,-2.3904,-2.3954,-2.3438,-2.2526,-2.2526,-2.2064,-2.1293,-2.1038,-2.103,-2.1242,-2.1242,-2.1242,-2.1089,-2.1251,-2.1344,-2.1038,-2.1242,-2.114,-2.1191,-2.1293,-2.114,-2.0936,-2.1132,-2.1183,-2.1081,-2.0872,-2.0545,-2.0045,-1.9436,-1.9174,-1.9305,-1.8377,-1.7164,-1.652,-1.646,-1.6336,-1.634,-1.6273,-1.6249,-1.6111,-1.6117,-1.613,-1.6163,-1.6068,-1.6163,-1.6215,-1.6253,-1.6323,-1.6303,-1.6264,-1.6287,-1.6221,-1.6037,-1.5866,-1.5873,-1.5795,-1.5795,-1.5831,-1.5867,-1.5879,-1.5861,-1.5885,-1.5885,-1.5885,-1.5885,-1.5885,-1.5885,-1.5885,-1.5885,-1.5885,-1.5885,-1.5885,-1.5885,-1.5885,-1.5885,-1.5885,-1.5885,-1.5885,-1.5885,-1.5885,-1.5885,-1.5885,-1.5885,-1.5885,-1.5891,-1.5994,-1.5899,-1.5887,-1.5683,-1.5615,-1.553,-1.5442,-1.5412,-1.522,-1.5055,-1.5199,-2.3316,-2.3316,-2.3316,-2.3316,-2.3352,-2.3657,-2.3785,-2.3776,-2.3785,-2.3776,-2.3804,-2.3904,-2.396,-2.3978,-2.4156,-2.4211,-2.4211,-2.4211,-2.4211,-2.4211,-2.4211,-2.3994,-2.3696,-2.3637,-2.3497,-2.3229,-2.3179,-2.3138,-2.3129,-2.3129,-2.3179,-2.3179,-2.3129,-2.3179,-2.307,-2.3179,-2.3179,-2.3179,-2.3188,-2.3179,-2.3179,-2.3129,-2.3129,-2.3188,-2.3179,-2.3059,-2.2836,-2.1253,-2.0443,-2.0535,-2.0097,-1.9593,-1.9115,-1.8939,-1.8818,-1.8671,-1.8086,-1.786,-1.7829,-1.7269,-1.7005,-1.7048,-1.71,-1.7107,-1.7062,-1.6971,-1.6918,-1.6872,-1.6751,-1.6583,-1.6577,-1.6524,-1.6311,-1.5945,-1.5885,-1.5945,-1.5939,-1.5885,-1.5885,-1.5885,-1.5885,-1.5885,-1.5885,-1.5885,-1.5885,-1.5885,-1.5885,-1.5885,-1.5885,-1.5885,-1.5885,-1.5885,-1.5885,-1.5885,-1.5885,-1.5885,-1.5885,-1.5885,-1.5885,-1.5885,-1.5885,-1.5891,-1.5891,-1.5976,-1.6072,-1.6157,-1.6084,-1.6084,-1.6034,-1.6068,-1.6063,-1.6054,-1.6016,-1.6009,-1.6046,-2.3767,-2.3767,-2.3767,-2.3767,-2.3794,-2.4101,-2.4211,-2.4211,-2.4211,-2.4211,-2.4202,-2.4202,-2.4211,-2.4211,-2.4211,-2.4211,-2.4211,-2.4211,-2.4211,-2.4211,-2.4211,-2.4211,-2.4211,-2.4211,-2.4211,-2.4211,-2.4211,-2.4211,-2.4211,-2.4211,-2.4211,-2.4202,-2.4211,-2.4161,-2.4211,-2.4211,-2.4211,-2.4211,-2.4161,-2.4211,-2.4211,-2.4211,-2.4211,-2.4211,-2.4211,-2.4211,-2.4102,-2.2811,-2.2106,-2.2055,-2.1751,-2.1223,-2.0644,-2.0403,-2.0333,-2.0234,-1.9794,-1.9393,-1.9474,-1.8994,-1.8649,-1.8731,-1.8454,-1.8192,-1.8094,-1.774,-1.7384,-1.7331,-1.706,-1.6895,-1.6902,-1.6789,-1.6524,-1.6258,-1.6205,-1.6152,-1.6045,-1.5939,-1.5885,-1.5885,-1.5885,-1.5885,-1.5885,-1.5885,-1.5885,-1.5885,-1.5885,-1.5885,-1.5885,-1.5885,-1.5903,-1.5903,-1.5885,-1.5885,-1.5885,-1.5885,-1.5885,-1.5885,-1.5885,-1.5885,-1.5885,-1.5891,-1.5897,-1.6127,-1.6266,-1.641,-1.6409,-1.647,-1.648,-1.6594,-1.6621,-1.6607,-1.658,-1.6641,-1.6662,-2.4202,-2.4211,-2.4202,-2.4174,-2.4174,-2.4202,-2.4211,-2.4211,-2.4211,-2.4211,-2.4211,-2.4211,-2.4211,-2.4211,-2.4211,-2.4211,-2.4211,-2.4211,-2.4211,-2.4211,-2.4211,-2.4211,-2.4211,-2.4211,-2.4211,-2.4211,-2.4211,-2.4211,-2.4211,-2.4211,-2.4211,-2.4211,-2.4211,-2.4211,-2.4211,-2.4211,-2.4211,-2.4211,-2.4211,-2.4211,-2.4211,-2.4211,-2.4211,-2.4211,-2.4211,-2.4211,-2.4152,-2.3954,-2.4003,-2.4003,-2.3029,-2.2207,-2.1379,-2.1081,-2.1271,-2.1298,-2.1065,-2.0923,-2.0963,-2.0625,-2.0538,-2.0459,-1.9746,-1.928,-1.9228,-1.8461,-1.7845,-1.7786,-1.743,-1.7232,-1.7173,-1.7008,-1.6842,-1.6789,-1.6683,-1.6524,-1.6324,-1.6105,-1.6051,-1.5998,-1.5945,-1.5969,-1.6011,-1.6023,-1.6,-1.6,-1.6018,-1.6042,-1.6036,-1.6072,-1.5982,-1.6,-1.6085,-1.6115,-1.6181,-1.6187,-1.6187,-1.6193,-1.6145,-1.6085,-1.6054,-1.6048,-1.6091,-1.6308,-1.6507,-1.6646,-1.6761,-1.6827,-1.6869,-1.6879,-1.6957,-1.708,-1.7101,-1.7082,-1.7065,-2.4211,-2.4211,-2.4211,-2.4211,-2.4211,-2.4211,-2.4211,-2.4211,-2.4211,-2.4211,-2.4211,-2.4211,-2.4211,-2.4211,-2.4211,-2.4211,-2.4211,-2.4211,-2.4211,-2.4211,-2.4211,-2.4211,-2.4211,-2.4211,-2.4211,-2.4211,-2.4211,-2.4211,-2.4211,-2.4211,-2.4211,-2.4211,-2.4211,-2.4211,-2.4211,-2.4211,-2.4211,-2.4211,-2.4211,-2.4211,-2.4211,-2.4211,-2.4211,-2.4211,-2.4211,-2.4211,-2.4211,-2.4211,-2.4211,-2.4211,-2.3945,-2.3646,-2.3229,-2.3179,-2.3129,-2.302,-2.2476,-2.2072,-2.1912,-2.1395,-2.0987,-2.0885,-2.068,-2.0467,-2.0416,-1.9435,-1.8871,-1.861,-1.8048,-1.7529,-1.7536,-1.7424,-1.7371,-1.7318,-1.7027,-1.6755,-1.6649,-1.6524,-1.6465,-1.6483,-1.6497,-1.6488,-1.6489,-1.649,-1.6484,-1.6441,-1.6435,-1.6429,-1.6374,-1.6386,-1.635,-1.6447,-1.6519,-1.6507,-1.6513,-1.6513,-1.6519,-1.6543,-1.6501,-1.6423,-1.6398,-1.6386,-1.6465,-1.661,-1.6815,-1.6978,-1.7068,-1.7147,-1.7171,-1.7159,-1.7243,-1.7316,-1.7358,-1.7366,-1.7354,-2.4211,-2.4211,-2.4211,-2.4211,-2.4211,-2.4211,-2.4211,-2.4211,-2.4211,-2.4211,-2.4211,-2.4211,-2.4211,-2.4211,-2.4211,-2.4211,-2.4211,-2.4211,-2.4211,-2.4211,-2.4211,-2.4211,-2.4211,-2.4211,-2.4211,-2.4211,-2.4211,-2.4211,-2.4211,-2.4211,-2.4211,-2.4211,-2.4211,-2.4211,-2.4211,-2.4211,-2.4211,-2.4211,-2.4211,-2.4211,-2.4211,-2.4211,-2.4211,-2.4211,-2.4211,-2.4211,-2.4211,-2.4211,-2.4211,-2.4211,-2.4211,-2.4211,-2.4211,-2.4211,-2.4211,-2.4152,-2.3546,-2.3188,-2.3129,-2.2619,-2.2316,-2.2215,-2.1962,-2.1607,-2.1395,-2.057,-1.9901,-1.9857,-1.9287,-1.8819,-1.8251,-1.7891,-1.7702,-1.7709,-1.7449,-1.7175,-1.7068,-1.6974,-1.6978,-1.7032,-1.7068,-1.701,-1.6961,-1.6888,-1.6844,-1.6738,-1.6646,-1.6652,-1.6658,-1.6706,-1.673,-1.6767,-1.6761,-1.6706,-1.6682,-1.6682,-1.6706,-1.6748,-1.6833,-1.6754,-1.6706,-1.67,-1.6791,-1.6911,-1.7117,-1.7261,-1.7304,-1.7346,-1.7364,-1.7388,-1.7473,-1.7485,-1.7485,-1.7485,-1.7485,-2.4211,-2.4211,-2.4211,-2.4211,-2.4211,-2.4211,-2.4211,-2.4211,-2.4211,-2.4211,-2.4211,-2.4211,-2.4211,-2.4211,-2.4211,-2.4211,-2.4211,-2.4211,-2.4211,-2.4211,-2.4211,-2.4211,-2.4211,-2.4211,-2.4211,-2.4211,-2.4211,-2.4211,-2.4211,-2.4211,-2.4211,-2.4211,-2.4211,-2.4257,-2.433,-2.4312,-2.4275,-2.4312,-2.4349,-2.4284,-2.4229,-2.4211,-2.4211,-2.4211,-2.4211,-2.4211,-2.4211,-2.4211,-2.4211,-2.4211,-2.4211,-2.4211,-2.4211,-2.4211,-2.4211,-2.4211,-2.4102,-2.4053,-2.4152,-2.3954,-2.4053,-2.3795,-2.3079,-2.2677,-2.2467,-2.17,-2.1038,-2.1038,-2.0987,-2.021,-1.9502,-1.8482,-1.8174,-1.8258,-1.8171,-1.7914,-1.7784,-1.7498,-1.7412,-1.7606,-1.7706,-1.7571,-1.7409,-1.7316,-1.7253,-1.7389,-1.7244,-1.72,-1.72,-1.7155,-1.708,-1.693,-1.6899,-1.6845,-1.6839,-1.6839,-1.6869,-1.6911,-1.7068,-1.7074,-1.699,-1.6996,-1.708,-1.7195,-1.7304,-1.7376,-1.7424,-1.7461,-1.7485,-1.7485,-1.7485,-1.7485,-1.7485,-1.7485,-1.7485,-2.4211,-2.4211,-2.4211,-2.4211,-2.4211,-2.4211,-2.4211,-2.4211,-2.4211,-2.4211,-2.4211,-2.4211,-2.4211,-2.4211,-2.4211,-2.4211,-2.4211,-2.4211,-2.4211,-2.4211,-2.4211,-2.4211,-2.4211,-2.4211,-2.4211,-2.4211,-2.4211,-2.4211,-2.4211,-2.4211,-2.4211,-2.4211,-2.4229,-2.4376,-2.4583,-2.4643,-2.4647,-2.4698,-2.4689,-2.4505,-2.4266,-2.422,-2.4211,-2.4211,-2.4211,-2.4211,-2.4211,-2.4211,-2.4211,-2.4211,-2.4211,-2.4211,-2.4211,-2.4211,-2.4211,-2.4211,-2.4211,-2.4211,-2.4211,-2.4211,-2.4211,-2.4152,-2.3945,-2.3845,-2.3737,-2.2778,-2.2224,-2.2013,-2.1395,-2.0987,-2.0542,-1.9784,-1.9358,-1.9281,-1.885,-1.8532,-1.8575,-1.8413,-1.8229,-1.8259,-1.8249,-1.819,-1.8139,-1.8091,-1.8039,-1.7987,-1.7929,-1.7884,-1.7807,-1.7654,-1.7496,-1.7371,-1.7268,-1.7238,-1.7238,-1.7174,-1.7111,-1.7117,-1.7237,-1.7316,-1.7237,-1.7225,-1.7286,-1.7352,-1.743,-1.7479,-1.7485,-1.7485,-1.7485,-1.7485,-1.7485,-1.7485,-1.7485,-1.7485,-1.7485,-2.4211,-2.4211,-2.4211,-2.4211,-2.4211,-2.4211,-2.4211,-2.4211,-2.4211,-2.4211,-2.4211,-2.4211,-2.4211,-2.4211,-2.4211,-2.4211,-2.4211,-2.4211,-2.4211,-2.4211,-2.4211,-2.4211,-2.4211,-2.4211,-2.4211,-2.4211,-2.4211,-2.4211,-2.4211,-2.4211,-2.4211,-2.4211,-2.4211,-2.4422,-2.4721,-2.4803,-2.4886,-2.5029,-2.4909,-2.4716,-2.4523,-2.4293,-2.4211,-2.4211,-2.4211,-2.4211,-2.4211,-2.4211,-2.4211,-2.4211,-2.4211,-2.4211,-2.4211,-2.4211,-2.4211,-2.4211,-2.4211,-2.4211,-2.4211,-2.4211,-2.4211,-2.4211,-2.4211,-2.4211,-2.4152,-2.3587,-2.3397,-2.3188,-2.2778,-2.2316,-2.1725,-2.0979,-2.062,-2.0558,-2.0019,-1.9682,-1.9779,-1.926,-1.8764,-1.8871,-1.8874,-1.8812,-1.8724,-1.8642,-1.8487,-1.832,-1.8261,-1.8216,-1.8164,-1.8081,-1.8048,-1.7913,-1.7781,-1.767,-1.7664,-1.7588,-1.7382,-1.737,-1.7382,-1.7424,-1.7388,-1.7412,-1.7455,-1.7479,-1.7479,-1.7479,-1.7485,-1.7485,-1.7485,-1.7485,-1.7485,-1.7485,-1.7485,-1.7485,-1.7485,-2.4211,-2.4211,-2.4211,-2.4211,-2.4211,-2.4211,-2.4211,-2.4211,-2.4211,-2.4211,-2.4211,-2.4211,-2.4211,-2.4211,-2.4211,-2.4211,-2.4211,-2.4211,-2.4211,-2.4211,-2.4211,-2.4211,-2.4211,-2.4211,-2.4211,-2.4211,-2.4211,-2.4211,-2.4211,-2.4211,-2.4211,-2.4211,-2.4211,-2.4431,-2.4693,-2.4876,-2.5032,-2.5286,-2.5221,-2.4922,-2.473,-2.4486,-2.4339,-2.4211,-2.4211,-2.4211,-2.4211,-2.4211,-2.4211,-2.4211,-2.4211,-2.4211,-2.4211,-2.4211,-2.4211,-2.4211,-2.4211,-2.4211,-2.4211,-2.4211,-2.4211,-2.4211,-2.4211,-2.4211,-2.4152,-2.4102,-2.4053,-2.4053,-2.3845,-2.3587,-2.2863,-2.2233,-2.1978,-2.1947,-2.1486,-2.1141,-2.0929,-1.9975,-1.9576,-1.9245,-1.9259,-1.9143,-1.9054,-1.8991,-1.8765,-1.8596,-1.8596,-1.8538,-1.848,-1.848,-1.8421,-1.8305,-1.8129,-1.7908,-1.7849,-1.7784,-1.7667,-1.7485,-1.7485,-1.7485,-1.7485,-1.7485,-1.7485,-1.7485,-1.7479,-1.7485,-1.7485,-1.7485,-1.7485,-1.7485,-1.7485,-1.7485,-1.7485,-1.7485,-1.7485,-2.4211,-2.4211,-2.4211,-2.4211,-2.4211,-2.4211,-2.4211,-2.4211,-2.4211,-2.4211,-2.4202,-2.4211,-2.4211,-2.4202,-2.4211,-2.4211,-2.4211,-2.4211,-2.4211,-2.4211,-2.4211,-2.4211,-2.4211,-2.4211,-2.4211,-2.4211,-2.4211,-2.4211,-2.4211,-2.4211,-2.4211,-2.4211,-2.4211,-2.4422,-2.4766,-2.5078,-2.5262,-2.5506,-2.5589,-2.5451,-2.5038,-2.4753,-2.4532,-2.4293,-2.4238,-2.4211,-2.4211,-2.4211,-2.4211,-2.4211,-2.4211,-2.4211,-2.4211,-2.4211,-2.4211,-2.4211,-2.4211,-2.4211,-2.4211,-2.4211,-2.4211,-2.4211,-2.4211,-2.4211,-2.4211,-2.4211,-2.4211,-2.4211,-2.4211,-2.4053,-2.3981,-2.3452,-2.3328,-2.3198,-2.2897,-2.2317,-2.1586,-2.0887,-2.0337,-1.9809,-1.9591,-1.9366,-1.9301,-1.9185,-1.9127,-1.901,-1.901,-1.8887,-1.8829,-1.8771,-1.8713,-1.8538,-1.8363,-1.8194,-1.8031,-1.7972,-1.7849,-1.7602,-1.7543,-1.7485,-1.7485,-1.7485,-1.7485,-1.7485,-1.7485,-1.7485,-1.7485,-1.7485,-1.7485,-1.7485,-1.7485,-1.7485,-1.7485,-1.7485,-1.7485,-2.4211,-2.4211,-2.4211,-2.4211,-2.4211,-2.4211,-2.4211,-2.4211,-2.4202,-2.4242,-2.4291,-2.4251,-2.4251,-2.4291,-2.4251,-2.4211,-2.4211,-2.4211,-2.4211,-2.4211,-2.4211,-2.4211,-2.4202,-2.4211,-2.4211,-2.4211,-2.4211,-2.4211,-2.4211,-2.4211,-2.4211,-2.4211,-2.4211,-2.4413,-2.4826,-2.5203,-2.5454,-2.569,-2.5874,-2.5855,-2.5405,-2.5111,-2.4656,-2.456,-2.4321,-2.422,-2.4211,-2.4211,-2.4211,-2.4211,-2.4211,-2.4211,-2.4211,-2.4211,-2.4211,-2.4211,-2.4211,-2.4211,-2.4211,-2.4211,-2.4211,-2.4211,-2.4211,-2.4211,-2.4211,-2.4211,-2.4211,-2.4211,-2.4211,-2.4211,-2.418,-2.4322,-2.4542,-2.4474,-2.4153,-2.3702,-2.2974,-2.1964,-2.1117,-2.0385,-1.9822,-1.9591,-1.9424,-1.9366,-1.9424,-1.9424,-1.9424,-1.9301,-1.912,-1.9062,-1.901,-1.8894,-1.8713,-1.848,-1.8317,-1.82,-1.8083,-1.7843,-1.7602,-1.7543,-1.7485,-1.7543,-1.7485,-1.7485,-1.7485,-1.7485,-1.7485,-1.7485,-1.7485,-1.7485,-1.7485,-1.7485,-1.7485,-1.7485,-1.7485,-2.435,-2.435,-2.4301,-2.4251,-2.4251,-2.4251,-2.4242,-2.4242,-2.4341,-2.444,-2.4538,-2.444,-2.4449,-2.4538,-2.444,-2.435,-2.435,-2.435,-2.4399,-2.435,-2.4301,-2.4251,-2.4251,-2.4202,-2.4211,-2.4211,-2.4211,-2.4211,-2.4211,-2.4211,-2.4211,-2.4211,-2.4211,-2.4339,-2.4698,-2.5157,-2.5571,-2.5819,-2.6104,-2.6122,-2.5855,-2.5359,-2.4904,-2.4858,-2.4551,-2.4358,-2.4385,-2.4257,-2.422,-2.4211,-2.4211,-2.4211,-2.4211,-2.4211,-2.4211,-2.4211,-2.4211,-2.4211,-2.4211,-2.4211,-2.4211,-2.4211,-2.4211,-2.4211,-2.4211,-2.4211,-2.4211,-2.4211,-2.4211,-2.4211,-2.4303,-2.4886,-2.5228,-2.5309,-2.5156,-2.4944,-2.4214,-2.3311,-2.2297,-2.1395,-2.0385,-1.9822,-1.9707,-1.9424,-1.9424,-1.9424,-1.9424,-1.9424,-1.9301,-1.9301,-1.9249,-1.9249,-1.9127,-1.8829,-1.8655,-1.8421,-1.8311,-1.8135,-1.7843,-1.7726,-1.7661,-1.7543,-1.7543,-1.7485,-1.7485,-1.7485,-1.7485,-1.7485,-1.7485,-1.7485,-1.7485,-1.7485,-1.7485,-1.7485,-1.7485,-2.4833,-2.4784,-2.4587,-2.443,-2.448,-2.444,-2.4489,-2.4489,-2.4695,-2.4833,-2.4824,-2.4794,-2.4794,-2.4794,-2.4784,-2.4784,-2.4784,-2.4745,-2.4745,-2.4695,-2.4538,-2.448,-2.443,-2.4242,-2.4251,-2.4251,-2.4251,-2.4211,-2.4211,-2.4211,-2.4211,-2.4211,-2.4211,-2.4248,-2.4413,-2.501,-2.5424,-2.5564,-2.6133,-2.6325,-2.603,-2.5598,-2.5387,-2.5249,-2.4992,-2.4725,-2.4611,-2.444,-2.4257,-2.4211,-2.4211,-2.4211,-2.4211,-2.4211,-2.4211,-2.4211,-2.4211,-2.4211,-2.4211,-2.4211,-2.4211,-2.4211,-2.4211,-2.4211,-2.4211,-2.4211,-2.4211,-2.4211,-2.4211,-2.4211,-2.4339,-2.4955,-2.5252,-2.5628,-2.5801,-2.5518,-2.5008,-2.4326,-2.3368,-2.2636,-2.168,-2.0673,-2.0046,-1.9707,-1.9424,-1.9424,-1.9424,-1.9424,-1.9424,-1.9424,-1.9424,-1.9366,-1.9366,-1.9127,-1.8946,-1.8713,-1.8538,-1.8363,-1.8135,-1.7908,-1.779,-1.7726,-1.7543,-1.7543,-1.7485,-1.7485,-1.7485,-1.7485,-1.7485,-1.7485,-1.7485,-1.7485,-1.7485,-1.7485,-1.7485,-2.5186,-2.4892,-2.4794,-2.4735,-2.4735,-2.4735,-2.4735,-2.4735,-2.4833,-2.4981,-2.5088,-2.4941,-2.4892,-2.4941,-2.4892,-2.4892,-2.4892,-2.4941,-2.4892,-2.4941,-2.4775,-2.4735,-2.4735,-2.4637,-2.4538,-2.444,-2.4489,-2.439,-2.4301,-2.4211,-2.4211,-2.4211,-2.4211,-2.4211,-2.4248,-2.479,-2.5166,-2.558,-2.6096,-2.6517,-2.6261,-2.5949,-2.5764,-2.5736,-2.5378,-2.5041,-2.4803,-2.4647,-2.4413,-2.4293,-2.4211,-2.4211,-2.4211,-2.4211,-2.4211,-2.4211,-2.4211,-2.4211,-2.4211,-2.4211,-2.4211,-2.4211,-2.4211,-2.4211,-2.4211,-2.4211,-2.4211,-2.4211,-2.4211,-2.4211,-2.4339,-2.4955,-2.5216,-2.5592,-2.6068,-2.6154,-2.5734,-2.5064,-2.4334,-2.3656,-2.3038,-2.2078,-2.101,-2.027,-1.9931,-1.9597,-1.954,-1.9424,-1.9424,-1.9424,-1.9424,-1.9424,-1.9366,-1.9301,-1.9185,-1.9004,-1.8823,-1.8648,-1.8421,-1.8194,-1.7966,-1.7849,-1.7726,-1.755,-1.7543,-1.7485,-1.7485,-1.7485,-1.7485,-1.7485,-1.7485,-1.7485,-1.7485,-1.7485,-1.7485,-2.5489,-2.5088,-2.5039,-2.4981,-2.4981,-2.4981,-2.4981,-2.499,-2.5079,-2.5235,-2.5284,-2.5186,-2.5137,-2.5088,-2.5137,-2.5147,-2.5147,-2.5088,-2.5079,-2.5079,-2.503,-2.4981,-2.4932,-2.4932,-2.4784,-2.4587,-2.4735,-2.4686,-2.4498,-2.435,-2.4251,-2.4211,-2.4211,-2.4211,-2.4312,-2.4611,-2.5032,-2.5653,-2.6096,-2.6417,-2.6463,-2.6279,-2.6205,-2.6048,-2.5738,-2.5372,-2.5124,-2.495,-2.478,-2.4643,-2.444,-2.4422,-2.4413,-2.4293,-2.422,-2.4211,-2.4211,-2.4211,-2.4211,-2.4211,-2.4211,-2.4211,-2.4211,-2.4211,-2.4211,-2.4211,-2.4211,-2.4211,-2.4211,-2.4211,-2.4349,-2.4854,-2.5142,-2.5509,-2.6021,-2.6298,-2.6455,-2.5789,-2.5348,-2.5008,-2.439,-2.3712,-2.2587,-2.1338,-2.0551,-1.9989,-1.9707,-1.954,-1.9482,-1.954,-1.9424,-1.9424,-1.9424,-1.9366,-1.9301,-1.9185,-1.9055,-1.8939,-1.8713,-1.8538,-1.8369,-1.8083,-1.7849,-1.7726,-1.7602,-1.7485,-1.7485,-1.7485,-1.7485,-1.7485,-1.7485,-1.7485,-1.7485,-1.7485,-1.7485,-2.5684,-2.5635,-2.5391,-2.5284,-2.5284,-2.5284,-2.5294,-2.5284,-2.5538,-2.5586,-2.5635,-2.5635,-2.5586,-2.5596,-2.5538,-2.5586,-2.5635,-2.5635,-2.5577,-2.5489,-2.544,-2.5284,-2.5235,-2.5088,-2.4932,-2.4892,-2.499,-2.499,-2.4794,-2.4587,-2.444,-2.4251,-2.4251,-2.4202,-2.433,-2.4583,-2.5115,-2.5672,-2.6067,-2.6333,-2.6481,-2.6509,-2.649,-2.6417,-2.6205,-2.5938,-2.5892,-2.5561,-2.5243,-2.5176,-2.4927,-2.4739,-2.4744,-2.4551,-2.4431,-2.433,-2.4312,-2.4284,-2.4229,-2.4211,-2.4211,-2.4211,-2.4211,-2.4211,-2.4211,-2.4211,-2.4211,-2.4211,-2.4211,-2.4211,-2.433,-2.4597,-2.5005,-2.5417,-2.5901,-2.6224,-2.6472,-2.6527,-2.619,-2.6136,-2.5688,-2.4953,-2.4278,-2.303,-2.1851,-2.1231,-2.0666,-2.05,-1.9931,-1.9815,-1.9597,-1.9482,-1.9424,-1.9424,-1.9424,-1.9301,-1.9243,-1.9178,-1.9004,-1.8881,-1.8765,-1.848,-1.8194,-1.7908,-1.7726,-1.7602,-1.7485,-1.7485,-1.7485,-1.7485,-1.7485,-1.7485,-1.7485,-1.7485,-1.7485,-2.6235,-2.5684,-2.5586,-2.5538,-2.5538,-2.5538,-2.5538,-2.5586,-2.5635,-2.5684,-2.5684,-2.5684,-2.5684,-2.5684,-2.5684,-2.5684,-2.5684,-2.5684,-2.5684,-2.5684,-2.5586,-2.5538,-2.5489,-2.544,-2.5342,-2.5235,-2.5284,-2.5177,-2.4883,-2.4883,-2.4833,-2.4637,-2.439,-2.4202,-2.4349,-2.4597,-2.5111,-2.5543,-2.5901,-2.6214,-2.6545,-2.6591,-2.6591,-2.6554,-2.6499,-2.6241,-2.603,-2.5874,-2.5663,-2.546,-2.5234,-2.517,-2.5185,-2.4973,-2.479,-2.4624,-2.4587,-2.4486,-2.4275,-2.4238,-2.4211,-2.4211,-2.4211,-2.4211,-2.4211,-2.4211,-2.4211,-2.4211,-2.4211,-2.4211,-2.4257,-2.4578,-2.495,-2.5387,-2.5764,-2.6096,-2.6371,-2.649,-2.6582,-2.6364,-2.6309,-2.5971,-2.5404,-2.4787,-2.36,-2.2531,-2.1964,-2.1395,-2.0831,-2.0385,-2.022,-1.9822,-1.9764,-1.9482,-1.9424,-1.9424,-1.9424,-1.9366,-1.9243,-1.9178,-1.8997,-1.8874,-1.8532,-1.8246,-1.7908,-1.7726,-1.7608,-1.7543,-1.7485,-1.7485,-1.7485,-1.7485,-1.7485,-1.7485,-1.7485,-2.7247,-2.661,-2.661,-2.6428,-2.6149,-2.583,-2.5868,-2.6052,-2.583,-2.5684,-2.5684,-2.5684,-2.5684,-2.5684,-2.5684,-2.5684,-2.5684,-2.5684,-2.5684,-2.5684,-2.5684,-2.5684,-2.5684,-2.5684,-2.5538,-2.5479,-2.5538,-2.5489,-2.5235,-2.5284,-2.5137,-2.4941,-2.4637,-2.4449,-2.4365,-2.4486,-2.4845,-2.5282,-2.5635,-2.6039,-2.6379,-2.6527,-2.6582,-2.6591,-2.6554,-2.6454,-2.6252,-2.6205,-2.6104,-2.5839,-2.5656,-2.5607,-2.5552,-2.547,-2.5234,-2.5069,-2.4973,-2.4845,-2.4624,-2.4303,-2.4238,-2.4211,-2.4211,-2.4211,-2.4211,-2.4211,-2.4211,-2.4211,-2.4211,-2.4211,-2.4211,-2.4459,-2.4762,-2.5102,-2.5497,-2.5883,-2.6206,-2.6417,-2.6518,-2.6527,-2.6527,-2.6473,-2.6254,-2.5569,-2.4445,-2.3376,-2.2587,-2.2191,-2.1957,-2.1509,-2.1181,-2.073,-2.022,-1.988,-1.9482,-1.9424,-1.9424,-1.9424,-1.9307,-1.9301,-1.9178,-1.9055,-1.8874,-1.8596,-1.8252,-1.7966,-1.7726,-1.7602,-1.7543,-1.7485,-1.7485,-1.7485,-1.7485,-1.7485,-1.7485,-2.8612,-2.8634,-2.8541,-2.8028,-2.7189,-2.6149,-2.6332,-2.701,-2.6235,-2.582,-2.582,-2.5781,-2.5684,-2.5684,-2.5684,-2.5684,-2.5684,-2.5684,-2.5684,-2.5684,-2.5684,-2.5684,-2.5684,-2.5684,-2.5684,-2.5684,-2.5684,-2.5684,-2.5586,-2.543,-2.5333,-2.5235,-2.499,-2.4745,-2.4489,-2.4301,-2.4522,-2.5052,-2.5352,-2.5721,-2.6056,-2.6406,-2.6571,-2.659,-2.6627,-2.6518,-2.6472,-2.6444,-2.638,-2.6316,-2.6122,-2.6021,-2.5993,-2.5727,-2.5543,-2.5381,-2.5362,-2.5326,-2.5262,-2.4633,-2.4358,-2.4229,-2.4211,-2.4211,-2.4211,-2.4211,-2.4211,-2.4211,-2.4211,-2.4211,-2.422,-2.4257,-2.4542,-2.4891,-2.5295,-2.569,-2.6076,-2.6408,-2.6527,-2.6591,-2.6591,-2.6591,-2.6591,-2.6245,-2.5174,-2.4167,-2.332,-2.2982,-2.2974,-2.2749,-2.2418,-2.1574,-2.0952,-2.0443,-2.0046,-1.954,-1.9424,-1.9424,-1.9366,-1.9366,-1.9249,-1.9127,-1.9004,-1.8829,-1.848,-1.8077,-1.7901,-1.7719,-1.7602,-1.7485,-1.7485,-1.7485,-1.7485,-1.7485,-1.7485,-2.8991,-2.8727,-2.868,-2.8912,-2.9004,-2.8132,-2.7887,-2.7981,-2.72,-2.6686,-2.6552,-2.6042,-2.5684,-2.5684,-2.5771,-2.582,-2.5732,-2.5684,-2.5684,-2.5684,-2.5684,-2.5684,-2.5684,-2.5684,-2.5684,-2.5684,-2.5684,-2.5684,-2.5684,-2.5577,-2.5577,-2.5489,-2.5294,-2.5039,-2.4843,-2.4723,-2.4932,-2.528,-2.5474,-2.5657,-2.6026,-2.6312,-2.6456,-2.6474,-2.6544,-2.6618,-2.6636,-2.6591,-2.6591,-2.6591,-2.6407,-2.6398,-2.6388,-2.6159,-2.6013,-2.5901,-2.581,-2.5619,-2.5497,-2.5065,-2.4753,-2.4468,-2.4248,-2.4257,-2.4211,-2.4211,-2.4211,-2.4211,-2.4211,-2.4211,-2.4211,-2.4211,-2.445,-2.4776,-2.517,-2.5607,-2.6002,-2.6398,-2.6591,-2.6591,-2.6591,-2.6591,-2.6591,-2.6591,-2.5798,-2.5514,-2.4898,-2.439,-2.4326,-2.4103,-2.3768,-2.258,-2.1737,-2.1174,-2.0615,-1.9931,-1.9482,-1.9424,-1.9424,-1.9366,-1.9307,-1.9249,-1.9127,-1.8946,-1.8596,-1.8194,-1.796,-1.7784,-1.7602,-1.7485,-1.7485,-1.7485,-1.7485,-1.7485,-1.7485,-2.9741,-2.95,-2.9681,-3.0079,-3.0453,-2.928,-2.868,-2.8588,-2.8028,-2.7699,-2.7558,-2.703,-2.6802,-2.6791,-2.6744,-2.637,-2.6284,-2.6235,-2.582,-2.5771,-2.5684,-2.5684,-2.5684,-2.5781,-2.5684,-2.5732,-2.5732,-2.5684,-2.5684,-2.5684,-2.5684,-2.5635,-2.5528,-2.5391,-2.5186,-2.5077,-2.5036,-2.531,-2.5471,-2.5597,-2.5876,-2.6083,-2.6306,-2.6377,-2.6484,-2.6525,-2.6591,-2.6636,-2.6646,-2.6646,-2.6591,-2.6591,-2.6591,-2.6545,-2.6444,-2.6306,-2.6205,-2.6021,-2.5745,-2.5635,-2.5267,-2.479,-2.4542,-2.4349,-2.4248,-2.4211,-2.4211,-2.4211,-2.4211,-2.4211,-2.4211,-2.4211,-2.4349,-2.4735,-2.5001,-2.5387,-2.5745,-2.6131,-2.6463,-2.6472,-2.6582,-2.6582,-2.6591,-2.6591,-2.6364,-2.6418,-2.6473,-2.5971,-2.5459,-2.5229,-2.4889,-2.3824,-2.2636,-2.1851,-2.101,-1.9989,-1.9649,-1.9424,-1.9424,-1.9424,-1.9424,-1.9307,-1.9243,-1.9062,-1.8771,-1.8421,-1.8077,-1.7784,-1.7602,-1.7485,-1.7485,-1.7485,-1.7485,-1.7485,-1.7485,-3.0843,-3.0939,-3.1476,-3.1593,-3.1339,-2.9749,-2.8958,-2.8866,-2.8762,-2.8762,-2.8727,-2.8588,-2.8308,-2.8495,-2.8541,-2.8028,-2.7379,-2.7237,-2.6781,-2.6284,-2.6332,-2.6197,-2.6149,-2.6149,-2.6187,-2.5955,-2.5868,-2.5965,-2.5781,-2.5684,-2.5684,-2.5684,-2.5635,-2.5586,-2.543,-2.5294,-2.5224,-2.5417,-2.5521,-2.5584,-2.5724,-2.5945,-2.6163,-2.6313,-2.6418,-2.6528,-2.6596,-2.6636,-2.6682,-2.6646,-2.6591,-2.6591,-2.6591,-2.6591,-2.6582,-2.6573,-2.6545,-2.6342,-2.6122,-2.6048,-2.5819,-2.5359,-2.5093,-2.4707,-2.4413,-2.433,-2.4312,-2.4248,-2.4211,-2.4211,-2.4211,-2.4211,-2.422,-2.4477,-2.4689,-2.5029,-2.5378,-2.572,-2.6142,-2.6344,-2.6518,-2.6573,-2.6582,-2.6591,-2.6591,-2.6591,-2.6591,-2.6527,-2.6136,-2.619,-2.5743,-2.5008,-2.3824,-2.2644,-2.1623,-2.0666,-1.9758,-1.9533,-1.9424,-1.9424,-1.9424,-1.9424,-1.9307,-1.9185,-1.8997,-1.8706,-1.8135,-1.7843,-1.7602,-1.7543,-1.7485,-1.7485,-1.7485,-1.7485,-1.7485,-3.0194,-3.0879,-3.1036,-3.1356,-3.1581,-3.1048,-3.0812,-3.0779,-3.0125,-2.9795,-2.9704,-2.9004,-2.8912,-2.868,-2.868,-2.8541,-2.8402,-2.8262,-2.8121,-2.7851,-2.7484,-2.7709,-2.7757,-2.7579,-2.7379,-2.6962,-2.6696,-2.6466,-2.5917,-2.5781,-2.5781,-2.5684,-2.5684,-2.5684,-2.5635,-2.5538,-2.5538,-2.5518,-2.5604,-2.5594,-2.565,-2.5848,-2.6034,-2.6091,-2.6451,-2.6576,-2.6695,-2.6805,-2.6834,-2.6899,-2.6691,-2.6646,-2.6591,-2.6591,-2.6582,-2.6582,-2.6573,-2.6509,-2.648,-2.6462,-2.6224,-2.5938,-2.5708,-2.5295,-2.4909,-2.4615,-2.4523,-2.4385,-2.4238,-2.4211,-2.4211,-2.4211,-2.4211,-2.433,-2.4542,-2.4808,-2.5115,-2.5518,-2.594,-2.6289,-2.6463,-2.6573,-2.6582,-2.6591,-2.6591,-2.6591,-2.6591,-2.6591,-2.6591,-2.6591,-2.6473,-2.5743,-2.4778,-2.3544,-2.2531,-2.1566,-2.0493,-1.97,-1.9533,-1.9424,-1.9424,-1.9424,-1.9424,-1.9301,-1.9062,-1.8655,-1.8142,-1.7849,-1.7726,-1.7543,-1.7485,-1.7485,-1.7485,-1.7485,-1.7485,-2.9677,-3.0242,-3.0525,-3.0867,-3.1344,-3.1404,-3.15,-3.1536,-3.1048,-3.0824,-3.0734,-3.0215,-2.9886,-2.9977,-2.9977,-2.9749,-2.9326,-2.9292,-2.9061,-2.8541,-2.8786,-2.8588,-2.8634,-2.8727,-2.8251,-2.7934,-2.7746,-2.7579,-2.6791,-2.6322,-2.6235,-2.5684,-2.5684,-2.5684,-2.5684,-2.5684,-2.5684,-2.5684,-2.5693,-2.5684,-2.5752,-2.5809,-2.5836,-2.5966,-2.6368,-2.6522,-2.6778,-2.6877,-2.6955,-2.7114,-2.6954,-2.6963,-2.6899,-2.6845,-2.6691,-2.6636,-2.6582,-2.6582,-2.6591,-2.6554,-2.6426,-2.6342,-2.6232,-2.5911,-2.5424,-2.5029,-2.478,-2.4551,-2.4349,-2.4211,-2.4211,-2.4211,-2.4211,-2.422,-2.4431,-2.4592,-2.4977,-2.5424,-2.5775,-2.6178,-2.6399,-2.6536,-2.6591,-2.6591,-2.6591,-2.6591,-2.6591,-2.6591,-2.6591,-2.6591,-2.6591,-2.63,-2.534,-2.4326,-2.3424,-2.2418,-2.1231,-2.0213,-1.9649,-1.9533,-1.9482,-1.9424,-1.9424,-1.9301,-1.912,-1.8713,-1.8252,-1.8031,-1.7908,-1.7667,-1.7543,-1.7485,-1.7485,-1.7485,-1.7485,-2.9268,-2.9388,-2.9869,-3.0386,-3.0826,-3.0862,-3.1103,-3.1548,-3.1388,-3.1541,-3.1484,-3.146,-3.1221,-3.0882,-3.0837,-3.054,-3.0126,-2.9903,-2.9703,-2.8881,-2.9159,-2.9238,-2.9315,-2.9004,-2.9177,-2.9004,-2.8727,-2.8448,-2.8168,-2.7426,-2.6504,-2.5771,-2.5684,-2.5684,-2.5684,-2.5684,-2.5684,-2.5684,-2.5684,-2.5684,-2.5684,-2.5703,-2.5751,-2.5863,-2.6023,-2.6212,-2.6631,-2.685,-2.6958,-2.7223,-2.7302,-2.7283,-2.726,-2.7161,-2.6899,-2.6845,-2.68,-2.6745,-2.6745,-2.6682,-2.6636,-2.66,-2.6564,-2.6307,-2.5867,-2.546,-2.5166,-2.4753,-2.4523,-2.4321,-2.4266,-2.4229,-2.4211,-2.4211,-2.4321,-2.4468,-2.4689,-2.513,-2.5598,-2.5931,-2.6252,-2.6462,-2.6591,-2.6591,-2.6591,-2.6591,-2.6591,-2.6591,-2.6591,-2.6591,-2.6591,-2.6591,-2.6017,-2.5119,-2.427,-2.3263,-2.2021,-2.101,-2.027,-1.9591,-1.9482,-1.9424,-1.9424,-1.9301,-1.9178,-1.8881,-1.8538,-1.8369,-1.8135,-1.7784,-1.7602,-1.7543,-1.7543,-1.7485,-1.7485,-2.8931,-2.934,-2.9869,-3.017,-3.0266,-3.0278,-3.0392,-3.0458,-3.0458,-3.0699,-3.0939,-3.0718,-3.0518,-3.0603,-3.0603,-3.0334,-3.0212,-3.0127,-3.0206,-3.0144,-3.0173,-3.0184,-3.0754,-3.0553,-3.0429,-3.0022,-2.9647,-2.9189,-2.8215,-2.7474,-2.6781,-2.5917,-2.5868,-2.6014,-2.6014,-2.6014,-2.6004,-2.61,-2.6052,-2.6052,-2.6014,-2.583,-2.5723,-2.5849,-2.6023,-2.6256,-2.6541,-2.6631,-2.6897,-2.717,-2.6992,-2.7119,-2.7349,-2.7305,-2.7269,-2.7215,-2.7171,-2.7062,-2.6944,-2.689,-2.6845,-2.6691,-2.6627,-2.6581,-2.6307,-2.5957,-2.5534,-2.5084,-2.4698,-2.4486,-2.4321,-2.4275,-2.4211,-2.4211,-2.422,-2.4303,-2.4395,-2.4863,-2.5359,-2.5727,-2.6094,-2.6315,-2.6454,-2.6554,-2.6582,-2.6591,-2.6591,-2.6591,-2.6591,-2.6591,-2.6591,-2.6591,-2.6591,-2.5907,-2.5064,-2.4223,-2.3038,-2.2021,-2.1224,-2.0436,-1.9649,-1.9424,-1.9424,-1.9366,-1.9301,-1.9004,-1.8823,-1.8758,-1.8473,-1.8012,-1.7784,-1.7726,-1.7543,-1.7485,-1.7485,-2.8958,-2.925,-2.95,-2.9796,-3.0002,-3.0014,-3.0065,-3.0151,-2.9999,-2.9977,-3.0182,-3.011,-3.0086,-3.0074,-3.0086,-3.0037,-3.0037,-3.011,-3.0163,-3.0452,-3.0747,-3.0949,-3.1332,-3.1585,-3.1359,-3.0913,-3.0767,-3.0068,-2.8577,-2.8484,-2.8168,-2.7115,-2.6935,-2.6935,-2.6982,-2.6972,-2.6924,-2.7067,-2.6935,-2.6935,-2.6754,-2.6332,-2.5771,-2.5801,-2.5957,-2.6231,-2.6426,-2.6499,-2.673,-2.7066,-2.7184,-2.719,-2.7405,-2.7523,-2.7511,-2.7431,-2.7377,-2.7323,-2.7196,-2.7142,-2.7098,-2.6954,-2.6781,-2.6789,-2.6754,-2.6384,-2.6039,-2.558,-2.4927,-2.4652,-2.4514,-2.444,-2.4275,-2.4211,-2.4248,-2.4312,-2.4505,-2.4785,-2.517,-2.5491,-2.581,-2.5938,-2.6122,-2.6278,-2.6361,-2.6582,-2.6582,-2.6582,-2.6582,-2.6591,-2.6591,-2.6591,-2.6591,-2.6527,-2.5962,-2.5119,-2.4158,-2.3199,-2.224,-2.1395,-2.0608,-1.9822,-1.9424,-1.9424,-1.9366,-1.9185,-1.9062,-1.8997,-1.859,-1.8077,-1.7908,-1.7908,-1.7726,-1.7543,-1.7543,-2.9104,-2.9104,-2.9116,-2.9361,-2.9754,-2.9791,-2.9927,-3.0109,-2.9744,-2.9428,-2.9362,-2.9747,-2.9952,-2.9893,-2.9881,-2.9893,-2.9809,-2.9617,-2.9785,-3.0074,-3.0417,-3.0742,-3.1055,-3.13,-3.138,-3.1524,-3.1472,-3.0869,-2.9852,-2.9749,-2.9372,-2.8866,-2.868,-2.8634,-2.868,-2.8634,-2.8402,-2.8262,-2.8262,-2.8448,-2.7898,-2.7125,-2.6562,-2.6245,-2.614,-2.6319,-2.6566,-2.6794,-2.6973,-2.7006,-2.7327,-2.7243,-2.7274,-2.7415,-2.7434,-2.7376,-2.7428,-2.7403,-2.7362,-2.7428,-2.7403,-2.7314,-2.7124,-2.6959,-2.6896,-2.6639,-2.6284,-2.5872,-2.5218,-2.4808,-2.4661,-2.4427,-2.4312,-2.4211,-2.4266,-2.4303,-2.4482,-2.4684,-2.4941,-2.5243,-2.5381,-2.5552,-2.5754,-2.5911,-2.6131,-2.6371,-2.6527,-2.6554,-2.6573,-2.6582,-2.6591,-2.6591,-2.6591,-2.6527,-2.6473,-2.5907,-2.5064,-2.4326,-2.3368,-2.2467,-2.1566,-2.0666,-1.988,-1.9424,-1.9366,-1.9243,-1.9185,-1.9062,-1.8661,-1.8252,-1.8252,-1.8252,-1.7849,-1.7667,-1.7602,-2.9104,-2.9104,-2.9104,-2.9165,-2.929,-2.9251,-2.9312,-2.9346,-2.9297,-2.908,-2.9034,-2.9126,-2.9132,-2.8835,-2.8811,-2.8883,-2.9063,-2.8991,-2.9196,-2.946,-2.9713,-3.0206,-3.0639,-3.0922,-3.1308,-3.1476,-3.1484,-3.1069,-3.0539,-3.0248,-2.9795,-2.8947,-2.8866,-2.8819,-2.8819,-2.8866,-2.905,-2.9096,-2.905,-2.905,-2.8912,-2.8412,-2.8272,-2.8132,-2.8132,-2.8186,-2.825,-2.8261,-2.8046,-2.7734,-2.7422,-2.7265,-2.7197,-2.7234,-2.7195,-2.7269,-2.7342,-2.7376,-2.7338,-2.7501,-2.7487,-2.7311,-2.7066,-2.6824,-2.6676,-2.6436,-2.6119,-2.586,-2.5307,-2.4877,-2.4643,-2.4395,-2.4211,-2.4211,-2.4238,-2.4238,-2.4349,-2.4431,-2.456,-2.479,-2.4922,-2.5133,-2.5399,-2.5589,-2.5718,-2.5966,-2.6078,-2.6133,-2.6344,-2.6444,-2.6518,-2.6527,-2.6509,-2.6591,-2.6582,-2.6527,-2.5852,-2.5174,-2.4445,-2.3432,-2.2418,-2.1345,-2.0673,-2.0046,-1.954,-1.9366,-1.9301,-1.9185,-1.9004,-1.8713,-1.8765,-1.8655,-1.8135,-1.779,-1.7726]},{"header":{"parameterUnit":"m.s-1","parameterCategory":1,"la1":31.0,"la2":29.5877,"lo1":-88.7671,"lo2":-86.6584,"dy":0.0162,"dx":0.0185,"nx":115,"ny":88,"refTime":"2023-08-28T12:00:00:Z","depth":0,"parameterNumber":3,"parameterNumberName":"V-component_of_WINDS"},"data":[0.0,0.0,0.0,0.0,0.0,0.0,0.0,0.0,0.0,0.0,0.0,0.0,0.0,0.0,0.0,0.0,0.0,0.0,0.0,0.0,0.0,0.0,0.0,0.0,0.0,0.0,0.0,0.0,0.0,0.0,0.0,0.0,0.0,0.0,0.0,0.0,0.0,0.0,0.0,0.0,0.0,0.0,0.0,0.0,0.0,0.0,0.0,0.0,0.0,0.0,0.0,0.0,0.0,0.0,0.0,0.0,0.0,0.0,0.0,0.0,0.0,0.0,0.0,0.0,0.0,0.0,0.0,0.0,0.0,0.0,0.0,0.0,0.0,0.0,0.0,0.0,0.0,0.0,0.0,0.0,0.0,0.0,0.0,0.0,0.0,0.0,0.0,0.0,0.0,0.0,0.0,0.0,0.0,0.0,0.0,0.0,0.0,0.0,0.0,0.0,0.0,0.0,0.0,0.0,0.0,0.0,0.0,0.0,0.0,0.0,0.0,0.0,0.0,0.0,0.0,0.0,0.0,0.0,0.0,0.0,0.0,0.0,0.0,0.0,0.0,0.0,0.0,0.0,0.0,0.0,0.0,0.0,0.0,0.0,0.0,0.0,0.0,0.0,0.0,0.0,0.0,0.0,0.0,0.0,0.0,0.0,0.0,0.0,0.0,0.0,0.0,0.0,0.0,0.0,0.0,0.0,0.0,0.0,0.0,0.0,0.0,0.0,0.0,0.0,0.0,0.0,0.0,0.0,0.0,0.0,0.0,0.0,0.0,0.0,0.0,0.0,0.0,0.0,0.0,0.0,0.0,0.0,0.0,0.0,0.0,0.0,0.0,0.0,0.0,0.0,0.0,0.0,0.0,0.0,0.0,0.0,0.0,0.0,0.0,0.0,0.0,0.0,0.0,0.0,0.0,0.0,0.0,0.0,0.0,0.0,0.0,0.0,0.0,0.0,0.0,0.0,0.0,0.0,0.0,0.0,0.0,0.0,0.0,0.0,0.0,0.0,0.0,0.0,0.0,0.0,0.0,0.0,0.0,0.0,0.0,0.0,0.0,0.0,0.0,0.0,0.0,0.0,0.0,0.0,0.0,0.0,0.0,0.0,0.0,0.0,0.0,0.0,0.0,0.0,0.0,0.0,0.0,0.0,0.0,0.0,0.0,0.0,0.0,0.0,0.0,0.0,0.0,0.0,0.0,0.0,0.0,0.0,0.0,0.0,0.0,0.0,0.0,0.0,0.0,0.0,0.0,0.0,0.0,0.0,0.0,0.0,0.0,0.0,0.0,0.0,0.0,0.0,0.0,0.0,0.0,0.0,0.0,0.0,0.0,0.0,0.0,0.0,0.0,0.0,0.0,0.0,0.0,0.0,0.0,0.0,0.0,0.0,0.0,0.0,0.0,0.0,0.0,0.0,0.0,0.0,0.0,0.0,0.0,0.0,0.0,0.0,0.0,0.0,0.0,0.0,0.0,0.0,0.0,0.0,0.0,0.0,0.0,0.0,0.0,0.0,0.0,0.0,0.0,0.0,0.0,0.0,0.0,0.0,0.0,0.0,0.0,0.0,0.0,0.0,0.0,0.0,0.0,0.0,0.0,0.0,0.0,0.0,0.0,0.0,0.0,0.0,0.0,0.0,0.0,0.0,0.0,0.0,0.0,0.0,0.0,0.0,0.0,0.0,0.0,0.0,0.0,0.0,0.0,0.0,0.0,0.0,0.0,0.0,0.0,0.0,0.0,0.0,0.0,0.0,0.0,0.0,0.0,0.0,0.0,0.0,0.0,0.0,0.0,0.0,0.0,0.0,0.0,0.0,0.0,0.0,0.0,0.0,0.0,0.0,0.0,0.0,0.0,0.0,0.0,0.0,0.0,0.0,0.0,0.0,0.0,0.0,0.0,0.0,0.0,0.0,0.0,0.0,0.0,0.0,0.0,0.0,0.0,0.0,0.0,0.0,0.0,0.0,0.0,0.0,0.0,0.0,0.0,0.0,0.0,0.0,0.0,0.0,0.0,0.0,0.0,0.0,0.0,0.0,0.0,0.0,0.0,0.0,0.0,0.0,0.0,0.0,0.0,0.0,0.0,0.0,0.0,0.0,0.0,0.0,0.0,0.0,0.0,0.0,0.0,0.0,0.0,0.0,0.0,0.0,0.0,0.0,0.0,0.0,0.0,0.0,0.0,0.0,0.0,0.0,0.0,0.0,0.0,0.0,0.0,0.0,0.0,0.0,0.0,0.0,0.0,0.0,0.0,0.0,0.0,0.0,0.0,0.0,0.0,0.0,0.0,0.0,0.0,0.0,0.0,0.0,0.0,0.0,0.0,0.0,0.0,0.0,0.0,0.0,0.0,0.0,0.0,0.0,0.0,0.0,0.0,0.0,0.0,0.0,0.0,0.0,0.0,0.0,0.0,0.0,0.0,0.0,0.0,0.0,0.0,0.0,0.0,0.0,0.0,0.0,0.0,0.0,0.0,0.0,0.0,0.0,0.0,0.0,0.0,0.0,0.0,0.0,0.0,0.0,0.0,0.0,0.0,0.0,0.0,0.0,0.0,0.0,0.0,0.0,0.0,0.0,0.0,0.0,0.0,0.0,0.0,0.0,0.0,0.0,0.0,0.0,0.0,0.0,0.0,0.0,0.0,0.0,0.0,0.0,0.0,0.0,0.0,0.0,0.0,0.0,0.0,0.0,0.0,0.0,0.0,0.0,0.0,0.0,0.0,0.0,0.0,0.0,0.0,0.0,0.0,0.0,0.0,0.0,0.0,0.0,0.0,0.0,0.0,0.0,0.0,0.0,0.0,0.0,0.0,0.0,0.0,0.0,0.0,0.0,0.0,0.0,0.0,0.0,0.0,0.0,0.0,0.0,0.0,0.0,0.0,0.0,0.0,0.0,0.0,0.0,0.0,0.0,0.0,0.0,0.0,0.0,0.0,0.0,0.0,0.0,0.0,0.0,0.0,0.0,0.0,0.0,0.0,0.0,0.0,0.0,0.0,0.0,0.0,0.0,0.0,0.0,0.0,0.0,0.0,0.0,0.0,0.0,0.0,0.0,0.0,0.0,0.0,0.0,0.0,0.0,0.0,0.0,0.0,0.0,0.0,0.0,0.0,0.0,0.0,0.0,0.0,0.0,0.0,0.0,0.0,0.0,0.0,0.0,0.0,0.0,0.0,0.0,0.0,0.0,0.0,0.0,0.0,0.0,0.0,0.0,0.0,0.0,0.0,0.0,0.0,0.0,0.0,0.0,0.0,0.0,0.0,0.0,0.0,0.0,0.0,0.0,0.0,0.0,0.0,0.0,0.0,0.0,0.0,0.0,0.0,0.0,0.0,0.0,0.0,0.0,0.0,0.0,0.0,0.0,0.0,0.0,0.0,0.0,0.0,0.0,0.0,0.0,0.0,0.0,0.0,0.0,0.0,0.0,0.0,0.0,0.0,0.0,0.0,0.0,0.0,0.0,0.0,0.0,0.0,0.0,0.0,0.0,0.0,0.0,0.0,0.0,0.0,0.0,0.0,0.0,0.0,0.0,0.0,0.0,0.0,0.0,0.0,0.0,0.0,0.0,0.0,0.0,0.0,0.0,0.0,0.0,0.0,0.0,0.0,0.0,0.0,0.0,0.0,0.0,0.0,0.0,0.0,0.0,0.0,0.0,0.0,0.0,0.0,0.0,0.0,0.0,0.0,0.0,0.0,0.0,0.0,0.0,0.0,0.0,0.0,0.0,0.0,0.0,0.0,0.0,0.0,0.0,0.0,0.0,0.0,0.0,0.0,0.0,0.0,0.0,0.0,0.0,0.0,0.0,0.0,0.0,0.0,0.0,0.0,0.0,0.0,0.0,0.0,0.0,0.0,0.0,0.0,0.0,0.0,0.0,0.0,0.0,0.0,0.0,0.0,0.0,0.0,0.0,0.0,0.0,0.0,0.0,0.0,0.0,0.0,0.0,0.0,0.0,0.0,0.0,0.0,0.0,0.0,0.0,0.0,0.0,0.0,0.0,0.0,0.0,0.0,0.0,0.0,0.0,0.0,0.0,0.0,0.0,0.0,0.0,0.0,0.0,0.0,0.0,0.0,0.0,0.0,0.0,0.0,0.0,0.0,0.0,0.0,0.0,0.0,0.0,0.0,0.0,0.0,0.0,0.0,0.0,0.0,0.0,0.0,0.0,0.0,0.0,0.0,0.0,0.0,0.0,0.0,0.0,0.0,0.0,0.0,0.0,0.0,0.0,0.0,0.0,0.0,0.0,0.0,0.0,0.0,0.0,0.0,0.0,0.0,0.0,2.5694,0.0,0.0,0.0,0.0,0.0,0.0,0.0,0.0,0.0,0.0,0.0,0.0,0.0,0.0,0.0,0.0,0.0,0.0,0.0,0.0,0.0,0.0,0.0,0.0,0.0,0.0,0.0,0.0,0.0,0.0,0.0,0.0,0.0,0.0,0.0,0.0,0.0,0.0,0.0,0.0,0.0,0.0,0.0,0.0,0.0,0.0,0.0,0.0,0.0,0.0,0.0,0.0,0.0,0.0,0.0,0.0,0.0,0.0,0.0,0.0,0.0,0.0,0.0,0.0,0.0,0.0,0.0,0.0,0.0,0.0,0.0,0.0,0.0,0.0,0.0,0.0,0.0,0.0,0.0,0.0,0.0,0.0,0.0,0.0,0.0,0.0,0.0,0.0,0.0,0.0,0.0,0.0,0.0,0.0,0.0,0.0,0.0,0.0,0.0,0.0,0.0,0.0,0.0,0.0,0.0,0.0,0.0,0.0,0.0,0.0,2.5706,2.5707,2.5697,2.5699,2.5694,0.0,0.0,0.0,0.0,0.0,0.0,0.0,0.0,0.0,0.0,0.0,0.0,0.0,0.0,0.0,0.0,0.0,0.0,0.0,0.0,0.0,0.0,0.0,0.0,0.0,0.0,0.0,0.0,0.0,0.0,0.0,0.0,0.0,0.0,0.0,0.0,0.0,0.0,0.0,0.0,0.0,0.0,0.0,0.0,0.0,0.0,0.0,0.0,0.0,0.0,0.0,0.0,0.0,0.0,0.0,0.0,0.0,0.0,0.0,0.0,0.0,0.0,0.0,0.0,0.0,0.0,0.0,0.0,0.0,0.0,0.0,0.0,0.0,0.0,0.0,0.0,0.0,0.0,0.0,0.0,0.0,0.0,0.0,0.0,0.0,0.0,0.0,0.0,0.0,0.0,0.0,0.0,0.0,0.0,0.0,0.0,0.0,0.0,0.0,0.0,0.0,0.0,0.0,0.0,0.0,0.0,0.0,0.0,0.0,0.0,0.0,0.0,2.5696,2.5699,2.5703,0.0,0.0,0.0,0.0,0.0,0.0,0.0,0.0,0.0,0.0,0.0,0.0,0.0,0.0,0.0,0.0,0.0,0.0,0.0,0.0,0.0,0.0,0.0,0.0,0.0,0.0,0.0,0.0,0.0,0.0,0.0,0.0,0.0,0.0,0.0,0.0,0.0,0.0,0.0,0.0,0.0,0.0,0.0,0.0,0.0,0.0,0.0,0.0,0.0,0.0,0.0,0.0,0.0,0.0,0.0,0.0,0.0,0.0,0.0,0.0,0.0,0.0,0.0,0.0,0.0,0.0,0.0,0.0,0.0,0.0,0.0,0.0,0.0,0.0,0.0,0.0,0.0,0.0,0.0,0.0,0.0,0.0,0.0,0.0,0.0,0.0,0.0,0.0,0.0,0.0,0.0,0.0,0.0,0.0,0.0,0.0,0.0,0.0,0.0,0.0,0.0,0.0,0.0,0.0,0.0,0.0,0.0,0.0,0.0,0.0,2.57,2.5692,2.5644,0.0,2.5702,0.0,0.0,0.0,0.0,0.0,0.0,0.0,0.0,0.0,0.0,0.0,0.0,0.0,0.0,0.0,0.0,0.0,0.0,0.0,0.0,0.0,0.0,0.0,0.0,0.0,0.0,0.0,0.0,0.0,0.0,0.0,0.0,0.0,0.0,0.0,0.0,0.0,0.0,0.0,0.0,0.0,0.0,0.0,0.0,0.0,0.0,0.0,0.0,0.0,0.0,0.0,0.0,0.0,0.0,0.0,0.0,0.0,0.0,0.0,0.0,0.0,0.0,0.0,0.0,0.0,0.0,0.0,0.0,0.0,0.0,0.0,0.0,0.0,0.0,0.0,0.0,0.0,0.0,0.0,0.0,0.0,0.0,0.0,0.0,0.0,0.0,0.0,0.0,0.0,0.0,0.0,0.0,0.0,0.0,0.0,0.0,0.0,0.0,0.0,0.0,0.0,0.0,0.0,0.0,0.0,0.0,0.0,0.0,0.0,0.0,2.6668,2.7167,2.716,2.7156,0.0,0.0,0.0,0.0,0.0,0.0,0.0,0.0,0.0,0.0,0.0,0.0,0.0,0.0,0.0,0.0,0.0,0.0,0.0,0.0,0.0,0.0,0.0,0.0,0.0,0.0,0.0,0.0,0.0,0.0,0.0,0.0,0.0,0.0,0.0,0.0,0.0,0.0,0.0,0.0,0.0,0.0,0.0,0.0,0.0,0.0,0.0,0.0,0.0,0.0,0.0,0.0,0.0,0.0,0.0,0.0,0.0,0.0,0.0,0.0,0.0,0.0,0.0,0.0,0.0,0.0,0.0,0.0,0.0,0.0,0.0,0.0,0.0,0.0,0.0,0.0,0.0,0.0,0.0,0.0,0.0,0.0,0.0,0.0,0.0,0.0,0.0,0.0,0.0,0.0,0.0,0.0,0.0,0.0,0.0,0.0,0.0,0.0,0.0,0.0,0.0,0.0,0.0,0.0,0.0,0.0,0.0,0.0,0.0,0.0,2.7251,2.7561,2.815,2.8231,2.8229,2.8201,0.0,0.0,0.0,0.0,0.0,0.0,0.0,0.0,0.0,0.0,0.0,0.0,0.0,0.0,0.0,0.0,0.0,0.0,0.0,0.0,0.0,0.0,0.0,0.0,0.0,0.0,0.0,0.0,0.0,0.0,0.0,0.0,0.0,0.0,0.0,0.0,0.0,0.0,0.0,0.0,0.0,0.0,0.0,0.0,0.0,0.0,0.0,0.0,0.0,0.0,0.0,0.0,0.0,0.0,0.0,0.0,0.0,0.0,0.0,0.0,0.0,0.0,0.0,0.0,0.0,0.0,0.0,0.0,0.0,0.0,0.0,0.0,0.0,0.0,0.0,0.0,0.0,0.0,0.0,0.0,0.0,0.0,0.0,0.0,0.0,0.0,0.0,0.0,0.0,0.0,0.0,0.0,0.0,0.0,0.0,0.0,0.0,0.0,0.0,0.0,0.0,0.0,0.0,0.0,0.0,0.0,0.0,0.0,2.811,2.8146,2.8166,2.8249,2.8262,2.8262,0.0,0.0,0.0,0.0,0.0,0.0,0.0,0.0,0.0,0.0,0.0,0.0,0.0,0.0,0.0,0.0,0.0,0.0,0.0,0.0,0.0,0.0,0.0,0.0,0.0,0.0,0.0,0.0,0.0,0.0,0.0,0.0,0.0,0.0,0.0,0.0,0.0,0.0,0.0,0.0,0.0,0.0,0.0,0.0,0.0,0.0,0.0,0.0,0.0,0.0,0.0,0.0,0.0,0.0,0.0,0.0,0.0,0.0,0.0,0.0,0.0,0.0,0.0,0.0,0.0,0.0,0.0,0.0,0.0,0.0,0.0,0.0,0.0,0.0,0.0,0.0,0.0,0.0,0.0,0.0,0.0,0.0,0.0,0.0,0.0,0.0,0.0,0.0,0.0,0.0,0.0,0.0,0.0,0.0,0.0,0.0,0.0,0.0,0.0,0.0,0.0,0.0,0.0,0.0,0.0,0.0,0.0,0.0,0.0,2.8996,2.954,2.9792,2.9796,2.983,2.984,0.0,0.0,0.0,0.0,0.0,0.0,0.0,0.0,0.0,0.0,0.0,0.0,0.0,0.0,0.0,0.0,0.0,0.0,0.0,0.0,0.0,0.0,0.0,0.0,0.0,0.0,0.0,0.0,0.0,0.0,0.0,0.0,0.0,0.0,0.0,0.0,0.0,0.0,0.0,0.0,0.0,0.0,0.0,0.0,0.0,0.0,0.0,0.0,0.0,0.0,0.0,0.0,0.0,0.0,0.0,0.0,0.0,0.0,0.0,0.0,0.0,0.0,0.0,0.0,0.0,0.0,0.0,0.0,0.0,0.0,0.0,0.0,0.0,0.0,0.0,0.0,0.0,0.0,0.0,0.0,0.0,0.0,0.0,0.0,0.0,0.0,0.0,0.0,0.0,0.0,0.0,0.0,0.0,0.0,0.0,0.0,0.0,0.0,0.0,0.0,0.0,0.0,0.0,0.0,0.0,0.0,0.0,0.0,0.0,2.9868,0.0,3.0698,3.0725,3.0732,3.0764,0.0,0.0,0.0,0.0,0.0,0.0,0.0,0.0,0.0,0.0,0.0,0.0,0.0,0.0,0.0,0.0,0.0,0.0,0.0,0.0,0.0,0.0,0.0,0.0,0.0,0.0,0.0,0.0,0.0,0.0,0.0,0.0,0.0,0.0,0.0,0.0,0.0,0.0,0.0,0.0,0.0,0.0,0.0,0.0,0.0,0.0,0.0,0.0,0.0,0.0,0.0,0.0,0.0,0.0,0.0,0.0,0.0,0.0,0.0,0.0,0.0,0.0,0.0,0.0,0.0,0.0,0.0,0.0,0.0,0.0,0.0,0.0,0.0,0.0,0.0,0.0,0.0,0.0,0.0,0.0,0.0,0.0,0.0,0.0,0.0,0.0,0.0,0.0,0.0,0.0,0.0,0.0,0.0,0.0,0.0,0.0,0.0,0.0,0.0,0.0,0.0,0.0,0.0,0.0,0.0,0.0,0.0,0.0,2.9829,3.0641,3.0701,3.0741,3.08,3.079,3.079,0.0,0.0,0.0,0.0,0.0,0.0,0.0,0.0,0.0,0.0,0.0,0.0,0.0,0.0,0.0,0.0,0.0,0.0,0.0,0.0,0.0,0.0,0.0,0.0,0.0,0.0,0.0,0.0,0.0,0.0,0.0,0.0,0.0,0.0,0.0,0.0,0.0,0.0,0.0,0.0,0.0,0.0,0.0,0.0,0.0,0.0,0.0,0.0,0.0,0.0,0.0,0.0,0.0,0.0,0.0,0.0,0.0,0.0,0.0,0.0,0.0,0.0,0.0,0.0,0.0,0.0,0.0,0.0,0.0,0.0,0.0,0.0,0.0,0.0,0.0,0.0,0.0,0.0,0.0,0.0,0.0,0.0,0.0,0.0,0.0,0.0,0.0,0.0,0.0,0.0,0.0,0.0,0.0,0.0,0.0,0.0,0.0,0.0,0.0,0.0,0.0,0.0,0.0,0.0,0.0,0.0,0.0,0.0,0.0,3.0685,3.0703,3.0698,3.0723,3.0732,3.0755,0.0,0.0,0.0,0.0,0.0,0.0,0.0,0.0,0.0,0.0,0.0,0.0,0.0,0.0,0.0,0.0,0.0,0.0,0.0,0.0,0.0,0.0,0.0,0.0,0.0,0.0,0.0,0.0,0.0,0.0,0.0,0.0,0.0,0.0,0.0,0.0,0.0,0.0,0.0,0.0,0.0,0.0,0.0,0.0,0.0,0.0,0.0,0.0,0.0,0.0,0.0,0.0,0.0,0.0,0.0,0.0,0.0,0.0,0.0,0.0,0.0,0.0,0.0,0.0,0.0,0.0,0.0,0.0,0.0,0.0,0.0,0.0,0.0,0.0,0.0,0.0,0.0,0.0,0.0,0.0,0.0,0.0,0.0,0.0,0.0,0.0,0.0,0.0,0.0,0.0,0.0,0.0,0.0,0.0,0.0,0.0,0.0,0.0,0.0,0.0,0.0,0.0,0.0,0.0,0.0,0.0,0.0,0.0,0.0,3.0672,3.0688,3.0703,3.0701,3.0706,3.0722,3.0797,0.0,0.0,0.0,0.0,0.0,0.0,0.0,0.0,0.0,0.0,0.0,0.0,0.0,0.0,0.0,0.0,0.0,0.0,0.0,0.0,0.0,0.0,0.0,0.0,0.0,0.0,0.0,0.0,0.0,0.0,0.0,0.0,0.0,0.0,0.0,0.0,0.0,0.0,0.0,0.0,0.0,0.0,0.0,0.0,0.0,0.0,0.0,0.0,0.0,0.0,0.0,0.0,0.0,0.0,0.0,0.0,0.0,0.0,0.0,0.0,0.0,0.0,0.0,0.0,0.0,0.0,0.0,0.0,0.0,0.0,0.0,0.0,0.0,0.0,0.0,0.0,0.0,0.0,0.0,0.0,0.0,0.0,0.0,0.0,0.0,0.0,0.0,0.0,0.0,0.0,0.0,0.0,0.0,0.0,0.0,0.0,0.0,0.0,0.0,0.0,0.0,0.0,0.0,0.0,0.0,0.0,0.0,0.0,3.0761,3.0804,3.0814,3.0711,3.0763,3.077,0.0,0.0,0.0,0.0,0.0,0.0,0.0,0.0,0.0,0.0,0.0,0.0,0.0,0.0,0.0,0.0,0.0,0.0,0.0,0.0,0.0,0.0,0.0,0.0,0.0,0.0,0.0,0.0,0.0,0.0,0.0,0.0,0.0,0.0,0.0,0.0,0.0,0.0,0.0,0.0,0.0,0.0,0.0,0.0,0.0,0.0,0.0,0.0,0.0,0.0,0.0,0.0,0.0,0.0,0.0,0.0,0.0,0.0,0.0,0.0,0.0,0.0,0.0,0.0,0.0,0.0,0.0,0.0,0.0,0.0,0.0,0.0,0.0,0.0,0.0,0.0,0.0,0.0,0.0,0.0,0.0,0.0,0.0,0.0,0.0,0.0,0.0,0.0,0.0,0.0,0.0,0.0,0.0,0.0,0.0,0.0,0.0,0.0,0.0,0.0,0.0,0.0,0.0,0.0,0.0,0.0,0.0,0.0,0.0,3.2525,3.2538,3.1934,3.0692,3.1255,3.1317,0.0,0.0,0.0,0.0,0.0,0.0,0.0,0.0,0.0,0.0,0.0,0.0,0.0,0.0,0.0,0.0,0.0,0.0,0.0,0.0,0.0,0.0,0.0,0.0,0.0,0.0,0.0,0.0,0.0,0.0,0.0,0.0,0.0,0.0,0.0,0.0,0.0,0.0,0.0,0.0,0.0,0.0,0.0,0.0,0.0,0.0,0.0,0.0,0.0,0.0,0.0,0.0,0.0,0.0,0.0,0.0,0.0,0.0,0.0,0.0,0.0,0.0,0.0,0.0,0.0,0.0,0.0,0.0,0.0,0.0,0.0,0.0,0.0,0.0,0.0,0.0,0.0,0.0,0.0,0.0,0.0,0.0,0.0,0.0,0.0,0.0,0.0,0.0,0.0,0.0,0.0,0.0,0.0,0.0,0.0,0.0,0.0,0.0,0.0,0.0,0.0,0.0,0.0,0.0,0.0,0.0,0.0,0.0,3.3165,3.3171,3.3175,3.2687,3.168,3.218,3.2225,0.0,0.0,0.0,0.0,0.0,0.0,0.0,0.0,0.0,0.0,0.0,0.0,0.0,0.0,0.0,0.0,0.0,0.0,0.0,0.0,0.0,0.0,0.0,0.0,0.0,0.0,0.0,0.0,0.0,0.0,0.0,0.0,0.0,0.0,0.0,0.0,0.0,0.0,0.0,0.0,0.0,0.0,0.0,0.0,0.0,0.0,0.0,0.0,0.0,0.0,0.0,0.0,0.0,0.0,0.0,0.0,0.0,0.0,0.0,0.0,0.0,0.0,0.0,0.0,0.0,0.0,0.0,0.0,0.0,0.0,0.0,0.0,0.0,0.0,0.0,0.0,0.0,0.0,0.0,0.0,0.0,0.0,0.0,0.0,0.0,0.0,0.0,0.0,0.0,0.0,0.0,0.0,0.0,0.0,0.0,0.0,0.0,0.0,0.0,0.0,0.0,0.0,0.0,0.0,0.0,0.0,0.0,0.0,3.3384,3.3378,3.3378,3.3378,3.3378,3.335,3.329,0.0,0.0,0.0,0.0,0.0,0.0,0.0,0.0,0.0,0.0,0.0,0.0,0.0,0.0,0.0,0.0,0.0,0.0,0.0,0.0,0.0,0.0,0.0,0.0,0.0,0.0,0.0,0.0,0.0,0.0,0.0,0.0,0.0,0.0,0.0,0.0,0.0,0.0,0.0,0.0,0.0,0.0,0.0,0.0,0.0,0.0,0.0,0.0,0.0,0.0,0.0,0.0,0.0,0.0,0.0,0.0,0.0,0.0,0.0,0.0,0.0,0.0,0.0,0.0,0.0,0.0,0.0,0.0,0.0,0.0,0.0,0.0,0.0,0.0,0.0,0.0,0.0,0.0,0.0,0.0,0.0,0.0,0.0,0.0,0.0,0.0,0.0,0.0,0.0,0.0,0.0,0.0,0.0,0.0,0.0,0.0,0.0,0.0,0.0,0.0,0.0,0.0,0.0,0.0,0.0,0.0,0.0,0.0,3.5148,3.5123,3.5143,3.5162,3.5143,3.4497,3.3848,0.0,0.0,0.0,0.0,0.0,0.0,0.0,0.0,0.0,0.0,0.0,0.0,0.0,0.0,0.0,0.0,0.0,0.0,0.0,0.0,0.0,0.0,0.0,0.0,0.0,0.0,0.0,0.0,0.0,0.0,0.0,0.0,0.0,0.0,0.0,0.0,0.0,0.0,0.0,0.0,0.0,0.0,0.0,0.0,0.0,0.0,0.0,0.0,2.8205,0.0,0.0,0.0,0.0,0.0,0.0,0.0,0.0,0.0,0.0,0.0,0.0,0.0,0.0,0.0,0.0,0.0,0.0,0.0,0.0,0.0,0.0,0.0,0.0,0.0,0.0,0.0,0.0,0.0,0.0,0.0,0.0,0.0,0.0,0.0,0.0,0.0,0.0,0.0,0.0,0.0,0.0,0.0,0.0,0.0,0.0,0.0,0.0,0.0,0.0,0.0,0.0,0.0,0.0,0.0,0.0,0.0,0.0,0.0,3.5704,3.5704,3.5704,3.5704,3.569,3.5236,3.4812,0.0,0.0,0.0,0.0,0.0,0.0,0.0,0.0,0.0,0.0,0.0,0.0,0.0,0.0,0.0,0.0,0.0,0.0,0.0,0.0,0.0,0.0,0.0,0.0,0.0,0.0,0.0,0.0,0.0,0.0,0.0,0.0,0.0,0.0,0.0,0.0,0.0,0.0,0.0,0.0,0.0,0.0,0.0,0.0,0.0,0.0,0.0,0.0,0.0,0.0,0.0,0.0,0.0,0.0,0.0,0.0,0.0,0.0,0.0,0.0,0.0,0.0,0.0,0.0,0.0,0.0,0.0,0.0,0.0,0.0,0.0,0.0,0.0,0.0,0.0,0.0,0.0,0.0,0.0,0.0,0.0,0.0,0.0,0.0,0.0,0.0,0.0,0.0,0.0,0.0,0.0,0.0,0.0,0.0,0.0,0.0,0.0,0.0,0.0,0.0,0.0,0.0,0.0,0.0,0.0,0.0,0.0,3.5704,3.5704,3.5704,3.5704,3.5704,3.5704,3.5704,3.5701,3.5702,0.0,0.0,0.0,0.0,0.0,0.0,0.0,0.0,0.0,0.0,0.0,0.0,0.0,0.0,0.0,0.0,0.0,0.0,0.0,0.0,0.0,0.0,0.0,0.0,0.0,0.0,0.0,0.0,0.0,0.0,0.0,0.0,0.0,0.0,0.0,0.0,0.0,0.0,2.8294,2.8519,0.0,0.0,0.0,0.0,0.0,0.0,0.0,0.0,3.0799,0.0,0.0,0.0,0.0,0.0,0.0,0.0,0.0,0.0,0.0,0.0,0.0,0.0,0.0,0.0,0.0,0.0,0.0,0.0,0.0,0.0,0.0,0.0,0.0,0.0,0.0,0.0,0.0,0.0,0.0,0.0,0.0,0.0,0.0,0.0,0.0,0.0,0.0,0.0,0.0,0.0,0.0,0.0,0.0,0.0,0.0,0.0,0.0,0.0,0.0,0.0,0.0,0.0,0.0,0.0,0.0,3.5704,3.5704,3.5704,3.5704,3.5704,3.5704,3.5704,3.5704,3.5709,3.5715,0.0,0.0,0.0,0.0,0.0,0.0,0.0,0.0,0.0,0.0,0.0,0.0,0.0,0.0,0.0,0.0,0.0,0.0,0.0,0.0,0.0,0.0,0.0,0.0,0.0,0.0,0.0,0.0,0.0,0.0,0.0,0.0,0.0,0.0,0.0,0.0,0.0,0.0,0.0,2.9899,3.043,0.0,0.0,0.0,0.0,0.0,0.0,0.0,0.0,3.0723,0.0,0.0,0.0,0.0,0.0,0.0,0.0,0.0,0.0,0.0,0.0,0.0,0.0,0.0,0.0,0.0,0.0,0.0,0.0,0.0,0.0,0.0,0.0,0.0,0.0,0.0,0.0,0.0,0.0,0.0,0.0,0.0,0.0,0.0,0.0,0.0,0.0,0.0,0.0,0.0,0.0,0.0,0.0,0.0,0.0,0.0,0.0,0.0,0.0,0.0,0.0,0.0,0.0,0.0,0.0,3.5723,3.611,3.6323,3.6323,3.6767,3.7,3.7,3.7,3.7,0.0,0.0,0.0,0.0,0.0,0.0,0.0,0.0,0.0,0.0,0.0,0.0,0.0,0.0,0.0,0.0,0.0,0.0,0.0,0.0,0.0,0.0,0.0,0.0,0.0,0.0,0.0,0.0,0.0,0.0,0.0,0.0,0.0,0.0,0.0,0.0,0.0,0.0,0.0,0.0,3.0533,3.0795,3.0793,0.0,0.0,0.0,0.0,0.0,0.0,3.2158,3.2155,0.0,0.0,0.0,0.0,0.0,0.0,0.0,0.0,0.0,0.0,0.0,0.0,0.0,0.0,0.0,0.0,0.0,0.0,0.0,0.0,0.0,0.0,0.0,0.0,0.0,0.0,0.0,0.0,0.0,0.0,0.0,0.0,0.0,0.0,0.0,0.0,0.0,0.0,0.0,0.0,0.0,0.0,0.0,0.0,0.0,0.0,0.0,0.0,0.0,0.0,0.0,0.0,0.0,0.0,0.0,3.6207,3.6826,3.7168,3.7193,3.7845,3.8212,3.8212,3.8212,3.8212,0.0,0.0,0.0,0.0,0.0,0.0,0.0,0.0,0.0,0.0,0.0,0.0,0.0,0.0,0.0,0.0,0.0,0.0,0.0,0.0,0.0,0.0,0.0,0.0,0.0,0.0,0.0,0.0,0.0,0.0,0.0,0.0,0.0,0.0,0.0,0.0,0.0,0.0,0.0,0.0,0.0,3.1143,3.1289,3.193,0.0,0.0,0.0,0.0,3.339,3.3386,0.0,0.0,0.0,0.0,0.0,0.0,0.0,0.0,0.0,0.0,0.0,0.0,0.0,0.0,0.0,0.0,0.0,0.0,0.0,0.0,0.0,0.0,0.0,0.0,0.0,0.0,0.0,0.0,0.0,0.0,0.0,0.0,0.0,0.0,0.0,0.0,0.0,0.0,0.0,0.0,0.0,0.0,0.0,0.0,0.0,0.0,0.0,0.0,0.0,0.0,0.0,0.0,0.0,0.0,0.0,0.0,3.7883,3.798,3.8038,3.8063,3.8154,3.8212,3.8212,3.8212,3.8212,0.0,0.0,0.0,0.0,0.0,0.0,0.0,0.0,0.0,0.0,0.0,0.0,0.0,0.0,0.0,0.0,0.0,0.0,0.0,0.0,0.0,0.0,0.0,0.0,0.0,0.0,0.0,0.0,0.0,0.0,0.0,0.0,0.0,0.0,0.0,0.0,0.0,0.0,0.0,0.0,0.0,3.2226,3.2988,3.3184,3.3241,0.0,0.0,3.3378,3.3327,3.3357,0.0,0.0,0.0,0.0,0.0,0.0,0.0,0.0,0.0,0.0,0.0,0.0,0.0,0.0,0.0,0.0,0.0,0.0,0.0,0.0,0.0,0.0,0.0,0.0,0.0,0.0,0.0,0.0,0.0,0.0,0.0,0.0,0.0,0.0,0.0,0.0,0.0,0.0,0.0,0.0,0.0,0.0,0.0,0.0,0.0,0.0,0.0,0.0,0.0,0.0,0.0,0.0,0.0,0.0,0.0,3.7825,3.8212,3.8702,3.8934,3.8959,3.9417,3.9688,3.9688,3.9669,3.9669,0.0,0.0,0.0,0.0,0.0,0.0,0.0,0.0,0.0,0.0,0.0,0.0,0.0,0.0,0.0,0.0,0.0,0.0,0.0,0.0,0.0,0.0,0.0,0.0,0.0,0.0,0.0,0.0,0.0,0.0,0.0,0.0,0.0,0.0,0.0,0.0,0.0,0.0,0.0,0.0,0.0,0.0,3.3294,3.3761,0.0,0.0,0.0,3.4812,3.4763,0.0,0.0,0.0,0.0,0.0,0.0,0.0,0.0,0.0,0.0,0.0,0.0,0.0,0.0,0.0,0.0,0.0,0.0,0.0,0.0,0.0,0.0,0.0,0.0,0.0,0.0,0.0,0.0,0.0,0.0,0.0,0.0,0.0,0.0,0.0,0.0,0.0,0.0,0.0,0.0,0.0,0.0,0.0,0.0,0.0,0.0,0.0,0.0,0.0,0.0,0.0,0.0,0.0,0.0,0.0,0.0,0.0,3.8838,3.9438,3.9773,3.9811,4.0462,4.0797,4.0797,4.0797,0.0,0.0,0.0,0.0,0.0,0.0,0.0,0.0,0.0,0.0,0.0,0.0,0.0,0.0,0.0,0.0,0.0,0.0,0.0,0.0,0.0,0.0,0.0,0.0,0.0,0.0,0.0,3.0885,0.0,0.0,0.0,0.0,0.0,0.0,0.0,0.0,0.0,0.0,0.0,0.0,0.0,0.0,3.3776,3.3934,3.4514,3.4911,0.0,0.0,3.5898,3.5888,3.5894,3.589,0.0,0.0,0.0,0.0,0.0,0.0,0.0,0.0,0.0,0.0,0.0,0.0,0.0,0.0,0.0,0.0,0.0,0.0,0.0,0.0,0.0,0.0,0.0,0.0,0.0,0.0,0.0,0.0,0.0,0.0,0.0,0.0,0.0,0.0,0.0,0.0,0.0,0.0,0.0,0.0,0.0,0.0,0.0,0.0,0.0,0.0,0.0,0.0,0.0,0.0,0.0,0.0,0.0,0.0,0.0,4.05,4.0448,4.0487,4.0623,4.0739,4.0797,4.0797,4.0797,4.0797,0.0,0.0,0.0,0.0,0.0,0.0,0.0,0.0,0.0,0.0,0.0,0.0,0.0,0.0,0.0,0.0,0.0,0.0,0.0,0.0,0.0,0.0,0.0,0.0,0.0,0.0,0.0,0.0,0.0,0.0,0.0,0.0,0.0,0.0,0.0,0.0,0.0,0.0,0.0,0.0,0.0,3.4798,3.5602,3.5777,3.5794,0.0,0.0,3.5894,3.5823,3.5876,3.5897,3.5899,0.0,0.0,0.0,0.0,0.0,0.0,0.0,0.0,0.0,0.0,0.0,0.0,0.0,0.0,0.0,0.0,0.0,0.0,0.0,0.0,0.0,0.0,0.0,0.0,0.0,0.0,0.0,0.0,0.0,0.0,0.0,0.0,0.0,0.0,0.0,0.0,0.0,0.0,0.0,0.0,0.0,0.0,0.0,0.0,0.0,0.0,0.0,0.0,0.0,0.0,0.0,0.0,0.0,4.0305,4.0674,4.0619,4.0586,4.0647,4.0668,4.07,4.0739,4.0739,4.0752,0.0,0.0,0.0,0.0,0.0,0.0,0.0,0.0,0.0,0.0,0.0,0.0,0.0,0.0,0.0,0.0,0.0,0.0,0.0,0.0,0.0,0.0,0.0,0.0,0.0,0.0,0.0,0.0,3.2828,3.3147,3.3951,0.0,0.0,0.0,0.0,0.0,0.0,0.0,0.0,0.0,0.0,3.5447,3.5785,3.5802,0.0,0.0,3.6578,3.677,3.7273,3.7376,3.7401,3.7436,3.744,0.0,0.0,0.0,0.0,0.0,0.0,0.0,0.0,0.0,0.0,0.0,0.0,0.0,0.0,0.0,0.0,0.0,0.0,0.0,0.0,0.0,0.0,0.0,0.0,0.0,0.0,0.0,0.0,0.0,0.0,0.0,0.0,0.0,0.0,0.0,0.0,0.0,0.0,0.0,0.0,0.0,0.0,0.0,0.0,0.0,0.0,0.0,0.0,0.0,0.0,0.0,0.0,4.0391,4.045,4.0367,4.0332,4.0391,4.0473,4.0537,4.0579,4.0621,4.07,0.0,0.0,0.0,0.0,0.0,0.0,0.0,0.0,0.0,0.0,0.0,0.0,0.0,0.0,0.0,0.0,0.0,0.0,0.0,0.0,0.0,0.0,0.0,0.0,0.0,0.0,0.0,0.0,3.3873,3.4241,3.4807,0.0,0.0,0.0,0.0,0.0,0.0,0.0,0.0,0.0,0.0,3.6542,3.6561,3.6511,3.6678,3.7312,3.739,3.7589,3.821,3.8292,3.8321,3.8358,0.0,0.0,0.0,0.0,0.0,0.0,0.0,0.0,0.0,0.0,0.0,0.0,0.0,0.0,0.0,0.0,0.0,0.0,0.0,0.0,0.0,0.0,0.0,0.0,0.0,0.0,0.0,0.0,0.0,0.0,3.301,0.0,0.0,0.0,0.0,0.0,0.0,0.0,0.0,0.0,0.0,0.0,0.0,0.0,0.0,0.0,0.0,0.0,0.0,0.0,0.0,0.0,0.0,3.9735,3.9912,3.9746,3.9724,3.9922,4.0166,4.029,4.0317,4.0496,4.0614,4.0614,0.0,0.0,0.0,0.0,0.0,0.0,0.0,0.0,0.0,0.0,0.0,0.0,0.0,0.0,0.0,0.0,0.0,0.0,0.0,0.0,0.0,0.0,0.0,0.0,0.0,0.0,3.4438,3.519,3.566,0.0,0.0,0.0,0.0,0.0,0.0,0.0,0.0,0.0,0.0,3.771,3.8234,3.8214,3.8228,3.819,3.8287,3.8267,3.8287,3.8364,3.8345,3.8306,0.0,0.0,0.0,0.0,0.0,0.0,0.0,0.0,0.0,0.0,0.0,0.0,0.0,0.0,0.0,0.0,0.0,0.0,0.0,0.0,0.0,0.0,0.0,0.0,0.0,0.0,0.0,3.3105,3.3102,0.0,0.0,0.0,0.0,0.0,0.0,0.0,0.0,0.0,0.0,0.0,3.7108,3.7376,0.0,0.0,0.0,0.0,0.0,0.0,0.0,0.0,0.0,0.0,0.0,0.0,3.9838,3.9891,3.9786,3.9775,3.9829,3.9924,3.9965,4.0033,4.0229,4.0415,4.0588,0.0,0.0,0.0,0.0,0.0,0.0,0.0,0.0,0.0,0.0,0.0,0.0,0.0,0.0,0.0,0.0,0.0,0.0,0.0,0.0,0.0,0.0,0.0,0.0,0.0,3.519,0.0,0.0,0.0,0.0,0.0,0.0,0.0,0.0,0.0,0.0,0.0,3.7804,3.7804,3.8064,3.8247,3.8247,3.8247,3.844,0.0,0.0,0.0,0.0,0.0,0.0,0.0,0.0,0.0,0.0,0.0,0.0,0.0,0.0,3.7527,3.7629,3.7652,3.7652,3.7671,0.0,0.0,0.0,0.0,0.0,0.0,0.0,0.0,0.0,0.0,0.0,0.0,0.0,0.0,3.3769,0.0,3.4044,0.0,0.0,0.0,0.0,0.0,0.0,0.0,0.0,3.7879,3.7899,3.7707,3.7988,3.8391,0.0,3.8822,3.8535,0.0,0.0,0.0,0.0,0.0,0.0,0.0,0.0,3.9625,3.9625,3.959,3.9566,3.9566,3.9648,3.9717,3.9769,3.9954,4.0147,4.034,4.0415,4.0488,0.0,0.0,0.0,0.0,0.0,0.0,0.0,0.0,0.0,0.0,0.0,0.0,0.0,0.0,0.0,0.0,0.0,0.0,0.0,0.0,0.0,0.0,0.0,3.6797,0.0,0.0,0.0,0.0,0.0,0.0,0.0,0.0,0.0,3.8346,3.849,3.8653,3.8653,3.8926,3.9088,3.9108,0.0,0.0,0.0,0.0,0.0,0.0,0.0,4.0808,4.0792,4.0798,4.0798,4.0809,4.0358,3.9823,3.9276,0.0,0.0,3.8565,3.8461,3.8481,3.8486,3.8505,3.8564,3.8858,3.8917,3.9014,0.0,0.0,0.0,0.0,0.0,0.0,0.0,0.0,3.5073,3.5073,0.0,3.5883,0.0,0.0,0.0,0.0,0.0,3.7706,0.0,0.0,3.829,3.849,3.8283,3.9064,3.9344,3.9115,3.9096,3.9078,3.9105,3.9606,0.0,0.0,0.0,0.0,0.0,0.0,3.9101,3.9115,3.9115,3.9096,3.9129,3.9363,3.9483,3.9508,3.9694,3.9819,3.9901,4.0082,4.022,4.03,4.053,0.0,0.0,0.0,0.0,0.0,0.0,0.0,0.0,0.0,0.0,0.0,0.0,0.0,0.0,0.0,0.0,0.0,0.0,0.0,0.0,3.823,0.0,0.0,0.0,0.0,0.0,0.0,0.0,0.0,0.0,0.0,3.8517,3.9024,3.952,3.9539,0.0,0.0,0.0,0.0,4.0759,4.0759,4.0784,4.0771,4.0784,4.079,4.0797,4.0797,0.0,0.0,4.0814,4.0794,4.0767,4.0782,4.071,4.0311,3.8792,3.8575,3.858,3.8633,3.8692,3.8873,3.9536,3.9724,3.9962,3.573,0.0,0.0,0.0,0.0,3.6378,3.6483,3.6701,3.6711,3.6711,3.672,3.6948,0.0,0.0,0.0,0.0,0.0,0.0,3.8544,3.8889,3.914,3.9089,3.887,3.9093,3.9165,3.9101,3.9101,3.9101,3.9115,3.9253,3.9305,3.9253,0.0,0.0,0.0,0.0,3.9101,3.9101,3.9101,3.9101,3.9101,3.9165,3.9311,3.9483,3.9556,3.9648,3.9819,3.9863,3.9944,4.0023,4.022,0.0,0.0,0.0,0.0,0.0,0.0,0.0,0.0,0.0,0.0,0.0,0.0,0.0,0.0,0.0,0.0,0.0,0.0,0.0,3.8205,3.8766,3.9133,0.0,0.0,0.0,0.0,0.0,0.0,0.0,0.0,0.0,3.9512,4.0017,4.0429,0.0,0.0,4.0583,4.0583,4.0465,4.0383,4.0364,4.0489,0.0,0.0,4.0713,4.0797,4.0797,4.0797,4.0797,4.0803,4.0809,4.0809,4.0802,4.0802,4.0637,4.0267,4.0111,4.011,4.0185,4.0213,4.0291,4.0489,4.0548,4.0606,3.7873,3.8026,3.744,3.7187,3.7165,3.7165,3.7144,3.7103,3.7118,3.7118,3.714,3.7446,3.7653,3.7783,3.8169,0.0,0.0,0.0,3.9079,3.9337,3.935,3.9259,3.9115,3.9101,3.9101,3.9101,3.9101,3.9101,3.9101,3.9101,3.9101,3.9101,0.0,0.0,3.9101,3.9101,3.9101,3.9101,3.9101,3.9101,3.9101,3.9101,3.9165,3.9318,3.935,3.9389,3.9519,3.9625,3.9694,3.9747,4.0024,4.0184,0.0,0.0,0.0,0.0,0.0,0.0,0.0,0.0,0.0,0.0,0.0,3.9199,3.911,0.0,0.0,0.0,3.8972,3.8994,3.9069,3.9437,0.0,0.0,0.0,0.0,0.0,0.0,0.0,4.0201,4.0155,4.0072,3.9937,4.0217,4.0439,4.0439,4.0427,4.0386,4.0273,0.0,4.0167,4.0148,4.0286,4.0397,4.0481,4.0598,4.0694,4.0784,4.0797,4.0797,4.0797,4.0797,4.0797,4.0797,4.0797,4.0803,4.0796,4.08,4.0809,4.0842,4.0853,4.0848,4.0848,4.0867,4.0862,3.9305,3.9189,3.7858,3.7193,3.6981,3.6981,3.6955,3.6872,3.6904,3.6885,3.6928,3.7671,3.8145,3.8413,3.9331,0.0,3.9477,3.9458,3.9356,3.9194,3.9212,3.9231,3.9305,3.9305,3.9305,3.9287,3.9287,3.9305,3.9324,3.9305,3.9287,3.9287,3.9305,3.9231,3.912,3.9101,3.9101,3.9101,3.9101,3.9101,3.9101,3.9101,3.9101,3.9101,3.9101,3.9082,3.9096,3.9337,3.9477,3.9489,3.9893,4.0053,3.9891,0.0,0.0,0.0,0.0,0.0,0.0,0.0,0.0,0.0,0.0,0.0,0.0,0.0,0.0,0.0,4.012,0.0,4.0345,4.0091,0.0,0.0,0.0,3.9888,3.9888,3.9888,3.9897,3.9858,0.0,0.0,3.9846,3.9837,3.9867,3.9827,4.0072,4.0156,3.9917,3.9954,4.0041,4.0021,4.011,4.0242,4.0381,4.0492,4.0576,4.0726,4.079,4.0797,4.0797,4.0797,4.0797,4.0797,4.0797,4.0797,4.0797,4.0797,4.0796,4.0809,4.0801,4.0801,4.0807,4.0801,4.0801,4.0996,4.0958,4.063,3.9737,3.8571,3.8552,3.8539,3.8525,3.8544,3.8525,3.8544,3.8729,3.8845,3.8931,3.9165,3.9227,3.9192,3.921,3.9523,4.0067,4.0085,4.0401,4.0996,4.0996,4.0996,4.0996,4.0996,4.0996,4.0996,4.0996,4.1014,4.0996,4.0996,4.0364,3.9138,3.9101,3.9101,3.9101,3.9101,3.9101,3.9101,3.9101,3.9101,3.9101,3.9101,3.9101,3.9101,3.9151,3.9192,3.9205,3.9489,3.9644,3.9597,3.9848,0.0,0.0,0.0,0.0,0.0,0.0,0.0,0.0,0.0,4.0321,4.0414,0.0,4.0258,0.0,3.9975,3.9966,3.9996,3.9947,0.0,0.0,3.9888,3.9888,3.9888,3.9886,3.981,3.9615,3.9595,3.9519,3.9307,3.9489,3.9519,3.932,3.9564,3.9727,3.9671,3.9604,3.9595,3.9674,3.9868,3.9927,4.0099,4.0313,4.0569,4.0549,4.0706,4.0797,4.0816,4.0797,4.0797,4.0797,4.0797,4.0797,4.0835,4.0797,4.0816,4.0796,4.0794,4.0806,4.0806,4.0806,4.082,4.1605,4.1605,4.1605,4.1051,4.0215,4.0197,4.0197,4.0215,4.0197,4.0197,4.0215,4.0197,4.0197,4.0215,4.0197,4.0197,4.0215,4.0197,4.0457,4.0936,4.0936,4.1163,4.159,4.1605,4.1605,4.1605,4.1605,4.1605,4.1605,4.1605,4.1605,4.1605,4.1605,4.1126,4.0253,4.0215,4.0215,4.0215,4.0215,4.003,3.9677,3.9677,3.9858,4.0178,3.9491,3.9287,3.9677,3.9305,3.9101,3.9115,3.97,3.9808,3.9356,3.9912,4.0095,0.0,0.0,0.0,0.0,0.0,0.0,0.0,0.0,0.0,0.0,0.0,4.0015,3.9917,3.9708,3.9615,3.9708,3.9626,3.9534,3.9545,3.9564,3.9545,3.9564,3.9548,3.9501,3.9332,3.9331,3.9272,3.9129,3.9586,3.9869,3.9705,4.0144,4.0364,4.0026,3.9904,4.0018,4.0432,4.0621,4.0842,4.11,4.1416,4.1628,4.175,4.1827,4.1912,4.1912,4.1912,4.1912,4.1912,4.1912,4.1893,4.1912,4.1899,4.1912,4.1919,4.1906,4.1783,4.1415,4.1628,4.1912,4.1906,4.1906,4.1887,4.1887,4.1887,4.1906,4.1794,4.1605,4.1605,4.1605,4.1605,4.1605,4.1605,4.1605,4.1605,4.1605,4.1605,4.1605,4.1646,4.1757,4.1739,4.1813,4.1906,4.1906,4.1906,4.1906,4.1887,4.1906,4.1906,4.1906,4.1906,4.1906,4.1887,4.1887,4.1906,4.1906,4.1813,4.159,4.1605,4.1252,4.0568,4.0564,4.0899,4.1497,4.0178,3.9733,4.0346,3.9677,3.9212,3.9133,3.9984,4.0066,3.9184,3.9978,4.0177,0.0,3.9488,0.0,0.0,0.0,0.0,0.0,0.0,0.0,0.0,3.9727,3.9804,3.9796,3.9427,3.9253,3.9427,3.924,3.9101,3.9101,3.9101,3.9101,3.9101,3.9194,3.9268,3.9268,3.9342,3.9417,3.951,4.0085,4.0564,4.0587,4.108,4.1299,4.0876,4.0696,4.0891,4.1618,4.1801,4.187,4.2286,4.2642,4.2825,4.3046,4.3033,4.3231,4.3167,4.3167,4.3201,4.324,4.3169,4.3227,4.3305,4.3266,4.3266,4.3189,4.3266,4.3131,4.2454,4.2667,4.3266,4.3559,4.3559,4.354,4.3559,4.3559,4.3559,4.2797,4.1605,4.1605,4.1605,4.1605,4.1605,4.1605,4.1605,4.1605,4.1605,4.1605,4.1605,4.1943,4.2575,4.2556,4.2927,4.3503,4.354,4.354,4.354,4.3559,4.3559,4.3559,4.3559,4.354,4.354,4.3559,4.354,4.3559,0.0,0.0,0.0,4.1605,4.1516,4.1386,4.1382,4.1441,4.1605,4.1293,0.0,4.042,4.0234,3.9825,3.9157,3.9305,0.0,0.0,0.0,0.0,0.0,0.0,0.0,0.0,0.0,0.0,0.0,3.9248,3.932,3.9481,3.9358,3.9274,3.9313,3.9187,3.9124,3.9178,3.9142,3.9101,3.9101,3.9101,3.9101,3.912,3.9714,4.0174,4.016,4.0698,4.1107,4.107,4.1293,4.1367,4.1386,4.1497,4.1794,4.2277,4.1772,4.1504,4.1692,4.1889,4.1921,4.2032,4.2312,4.2604,4.2487,4.2641,4.285,4.3085,4.3118,4.3162,4.3315,4.3305,4.3337,4.3337,4.3305,4.3395,4.3324,4.3885,4.4091,4.3247,4.3189,4.3305,4.2727,0.0,4.2727,4.2949,0.0,4.3348,4.3126,4.2736,4.2782,4.2779,4.2779,4.2779,4.2779,4.2779,4.2779,4.2779,4.2779,4.2779,4.2987,4.333,4.333,4.3555,4.3915,4.3929,4.3942,4.3942,4.3974,4.4005,4.4005,4.4005,4.4005,4.4005,4.4005,4.4005,4.4005,4.4005,4.341,4.2203,4.2575,4.2575,4.2203,4.2184,4.2389,4.2742,4.1999,0.0,0.0,0.0,0.0,0.0,0.0,0.0,0.0,0.0,0.0,3.912,3.9232,3.9245,3.9129,3.9219,3.9264,3.9115,3.9101,3.9165,3.9281,3.9192,3.9115,3.9142,3.9115,3.9101,3.9101,3.9491,3.9733,3.9751,4.0085,4.0327,4.0364,4.0717,4.0996,4.1014,4.133,4.1605,4.1605,4.198,4.2184,4.2222,4.2556,4.2909,4.3225,4.2705,4.2344,4.2847,4.2965,4.3044,4.3214,4.3347,4.3483,4.3654,4.3778,4.3922,4.4049,4.4087,4.4124,4.4233,4.4231,4.4256,4.4373,4.4388,4.443,4.4541,4.4891,4.5065,4.4601,4.4543,4.4523,4.1597,4.1595,4.1696,4.2097,4.2705,4.285,4.3267,4.3881,0.0,0.0,0.0,4.4005,4.4005,4.4005,4.3971,4.3974,4.3974,4.3958,4.3926,4.3899,4.4029,4.4073,4.4026,4.4219,4.4323,4.4323,4.4369,4.4416,4.44,4.44,4.4326,4.4212,4.4209,4.4153,4.4023,4.4005,4.367,4.3076,4.3652,4.3689,4.302,4.3002,4.3318,4.3986,4.2705,4.2259,4.276,4.2166,4.1739,4.1609,4.1605,4.1293,4.0657,4.062,4.0304,3.9602,3.9547,3.9547,3.9547,3.9547,3.9547,3.9528,3.9528,3.9491,3.9342,3.9324,3.9398,3.951,3.9547,3.9547,3.9565,4.016,4.062,4.0624,4.1196,4.1571,4.159,4.1739,4.1794,4.1813,4.198,4.2036,4.211,4.2612,4.3002,4.3095,4.3503,4.4005,4.3931,4.341,4.3237,4.3855,4.3927,4.4158,4.4416,4.4463,4.4707,4.4735,4.4909,4.5082,4.5126,4.5118,4.514,4.5079,4.5182,4.5217,4.537,4.533,4.5565,4.5908,4.5947,4.5978,4.6143,4.6201,4.6073,4.2316,4.239,4.2758,4.2955,4.3066,4.3531,4.3775,4.3818,4.3945,4.4005,4.4005,4.4005,4.4005,4.4005,4.3945,4.3913,4.3931,4.3851,4.382,4.3857,4.4541,4.4855,4.4857,4.5606,4.5971,4.5971,4.597,4.5988,4.597,4.5951,4.5636,4.5022,4.5069,4.4748,4.4061,4.4005,4.3949,4.3856,4.3949,4.3949,4.3856,4.3838,4.3875,4.3986,4.3782,4.3373,4.2816,4.2705,4.2314,4.1646,4.1605,4.1534,4.1456,4.1423,4.1386,4.1256,4.1237,4.1237,4.1252,4.1256,4.1237,4.1237,4.1256,4.0958,4.0271,4.0215,4.0513,4.1126,4.1163,4.1237,4.1256,4.1349,4.1438,4.1441,4.1549,4.1623,4.1716,4.2259,4.2612,4.2649,4.3243,4.3596,4.354,4.3689,4.3763,4.3819,4.3893,4.4005,4.3986,4.3912,4.3875,4.4002,4.402,4.4082,4.4218,4.427,4.4368,4.4477,4.4546,4.4642,4.4831,4.4924,4.5003,4.5167,4.5282,4.5314,4.5357,4.5234,4.5726,4.6423,4.6512,4.6608,4.7308,4.7517,4.7223,4.1032,4.1071,4.1264,4.1722,4.2359,4.3328,4.3769,4.3804,4.3867,4.3899,4.3899,4.3899,4.3899,4.3899,4.3851,4.3835,4.3853,4.4264,4.4417,4.4403,4.5196,4.5547,4.553,4.5968,4.6187,4.6187,4.6221,4.6257,4.6238,4.6257,4.6053,4.572,4.5754,4.5601,4.5243,4.4814,4.4626,4.4692,4.4246,4.4005,4.4005,4.4005,4.4005,4.4005,4.4005,4.3838,4.3466,4.3448,4.328,4.2909,4.2482,4.224,4.224,4.1832,4.1605,4.1605,4.1605,4.1605,4.1605,4.1605,4.1605,4.1605,4.1605,4.1646,4.1702,4.1293,4.1196,4.1553,4.1605,4.1605,4.1609,4.1999,4.2259,4.224,4.2612,4.289,4.2927,4.3188,4.3429,4.3485,4.3763,4.4005,4.4005,4.4005,4.4005,4.4005,4.4005,4.4023,4.4061,4.4432,4.4525,4.4116,4.4005,4.4039,4.4104,4.4169,4.4229,4.427,4.4329,4.4393,4.4587,4.4891,4.5278,4.5483,4.5824,4.6196,4.6288,4.6323,4.6649,4.7023,4.7214,4.7393,4.7745,4.7914,4.7766,4.0073,4.0073,4.0177,4.0815,4.1847,4.2958,4.3426,4.348,4.3652,4.3686,4.3618,4.3738,4.3788,4.3788,4.3771,4.3863,4.4086,4.464,4.4976,4.5127,4.5936,4.6287,4.6232,4.6488,4.6635,4.6653,4.6689,4.6724,4.6724,4.6724,4.6614,4.6483,4.6298,4.6222,4.6305,4.5694,4.5428,4.5528,4.4896,4.4376,4.4023,4.4005,4.4005,4.4005,4.4005,4.4005,4.4005,4.4005,4.4005,4.3986,4.341,4.3076,4.3039,4.2482,4.2129,4.2129,4.2147,4.2129,4.2147,4.2147,4.2147,4.2147,4.2129,4.2407,4.2927,4.2519,4.2129,4.2147,4.2203,4.2203,4.2277,4.2686,4.3076,4.3095,4.3596,4.3893,4.3986,4.4005,4.4005,4.4005,4.4005,4.4005,4.4042,4.4172,4.4413,4.4618,4.4562,4.4562,4.4655,4.5175,4.5194,4.4804,4.4562,4.4655,4.4562,4.4718,4.4802,4.4743,4.486,4.5006,4.5136,4.5529,4.5821,4.6002,4.6467,4.6854,4.713,4.7165,4.734,4.7722,4.7824,4.79,4.8369,4.8602,4.8432,4.0793,4.088,4.1253,4.1777,4.2241,4.2753,4.275,4.2518,4.3178,4.3322,4.3068,4.3549,4.3771,4.3788,4.3686,4.4021,4.4665,4.4725,4.5149,4.5846,4.6636,4.7021,4.7076,4.7849,4.8292,4.8237,4.82,4.8126,4.8126,4.82,4.7924,4.7276,4.6557,4.6296,4.6306,4.6232,4.6246,4.6382,4.6308,4.5528,4.4116,4.4005,4.4005,4.4005,4.4005,4.4005,4.4005,4.4005,4.4005,4.4005,4.3931,4.3875,4.3856,4.3801,4.3763,4.3745,4.3763,4.3782,4.3763,4.3782,4.3726,4.3782,4.3708,4.3726,4.3856,4.3801,4.3763,4.3689,4.3726,4.3652,4.3782,4.3819,4.3819,4.3782,4.3912,4.4005,4.4023,4.4005,4.4005,4.4005,4.4172,4.4023,4.4265,4.4766,4.5417,4.5937,4.5955,4.5974,4.6011,4.6215,4.6364,4.6252,4.6252,4.6215,4.6141,4.6252,4.6097,4.6236,4.6326,4.6224,4.6249,4.6392,4.6632,4.6709,4.6873,4.714,4.7162,4.7055,4.7471,4.8245,4.8459,4.8494,4.9579,4.9999,4.9673,4.0894,4.0918,4.1117,4.1468,4.1867,4.23,4.2378,4.2257,4.2577,4.2617,4.2536,4.2751,4.3142,4.3655,4.4044,4.4432,4.4798,4.5681,4.6305,4.6672,4.7424,4.781,4.7865,4.8197,4.8382,4.84,4.8382,4.8363,4.8382,4.84,4.8217,4.7942,4.7592,4.7482,4.7572,4.7129,4.6943,4.6993,4.6548,4.5992,4.541,4.4976,4.4506,4.4061,4.4005,4.4005,4.4005,4.4005,4.4005,4.4005,4.4005,4.4005,4.4005,4.4005,4.4005,4.4005,4.4005,4.4005,4.4005,4.4005,4.4005,4.4005,4.4005,4.4005,4.4005,4.4005,4.4005,4.4005,4.4023,4.4005,4.4023,4.4023,4.4005,4.4005,4.4005,4.4023,4.4005,4.4488,4.4766,4.4804,4.5194,4.5454,4.5509,4.5788,4.6141,4.6457,4.6531,4.6587,4.655,4.6884,4.7181,4.7274,4.759,4.7441,4.681,4.6513,4.6548,4.6562,4.6525,4.6557,4.6715,4.7119,4.7359,4.7457,4.7825,4.8119,4.8437,4.8362,4.857,4.902,4.911,4.9183,4.9679,5.0094,4.9896,4.0894,4.0894,4.0894,4.1047,4.1356,4.1821,4.1966,4.1885,4.2074,4.2136,4.2029,4.2368,4.2843,4.3469,4.4071,4.4508,4.509,4.6202,4.6839,4.7075,4.766,4.7975,4.8113,4.8094,4.8172,4.8287,4.8324,4.8324,4.8324,4.8324,4.8324,4.8324,4.8324,4.8363,4.8439,4.7887,4.7647,4.7682,4.7129,4.6776,4.6567,4.6135,4.5498,4.4766,4.4469,4.4323,4.4308,4.4119,4.3989,4.3992,4.3989,4.4005,4.4005,4.4005,4.4005,4.4005,4.3989,4.3974,4.4005,4.4005,4.4005,4.4005,4.4005,4.4005,4.4042,4.4209,4.4358,4.4395,4.4544,4.4692,4.4376,4.4358,4.4432,4.4636,4.4692,4.4692,4.4785,4.5287,4.5621,4.5695,4.6048,4.6605,4.6773,4.6847,4.694,4.72,4.7218,4.7144,4.72,4.7683,4.8036,4.8054,4.8537,4.837,4.7386,4.7293,4.7163,4.7144,4.7256,4.7326,4.7208,4.7804,4.8116,4.831,4.8868,4.9085,4.8942,4.9123,4.9265,4.9418,4.9498,4.9521,4.9669,4.9955,5.0147,4.0894,4.0929,4.0894,4.097,4.0982,4.1443,4.138,4.1244,4.1905,4.198,4.1816,4.2725,4.3262,4.334,4.3486,4.4239,4.5529,4.5805,4.6292,4.6883,4.6986,4.7204,4.7611,4.7632,4.7856,4.8152,4.817,4.8209,4.8229,4.8267,4.8324,4.8267,4.8229,4.8324,4.8382,4.8289,4.8421,4.8311,4.8237,4.8015,4.7406,4.7258,4.6922,4.6283,4.5639,4.5164,4.5006,4.4385,4.4013,4.3952,4.4053,4.4063,4.4026,4.4008,4.3989,4.3989,4.3926,4.3947,4.4026,4.4063,4.4082,4.4082,4.4178,4.4063,4.4252,4.4843,4.5178,4.5231,4.5788,4.5918,4.5435,4.5268,4.5509,4.6104,4.629,4.6252,4.6308,4.6308,4.6438,4.6457,4.6605,4.6995,4.7571,4.7646,4.7961,4.8407,4.8704,4.8649,4.8556,4.8723,4.876,4.876,4.8816,4.8853,4.876,4.8426,4.85,4.8444,4.8259,4.8574,4.876,4.887,4.8903,4.8919,4.901,4.9115,4.9197,4.9262,4.9343,4.9452,4.9577,4.9646,4.9577,4.9968,5.0219,4.2085,4.1619,4.1619,4.1602,4.1671,4.2289,4.2514,4.2427,4.2688,4.2759,4.2693,4.3079,4.3476,4.3947,4.3947,4.4566,4.5686,4.6208,4.6641,4.6908,4.6908,4.6981,4.7138,4.716,4.7226,4.7396,4.7399,4.7399,4.7417,4.7399,4.7417,4.7417,4.7417,4.7421,4.746,4.746,4.7503,4.7527,4.7527,4.7407,4.7182,4.7161,4.7059,4.693,4.6231,4.5867,4.5796,4.5517,4.5404,4.5389,4.5386,4.5181,4.4679,4.4142,4.3883,4.3867,4.3869,4.4056,4.4533,4.4642,4.4885,4.5347,4.5404,4.5366,4.5458,4.5731,4.5929,4.6003,4.6255,4.6475,4.6717,4.6382,4.6178,4.642,4.6513,4.6568,4.6605,4.694,4.7274,4.7348,4.7664,4.8166,4.8296,4.8463,4.8593,4.8816,4.889,4.889,4.889,4.889,4.889,4.889,4.889,4.889,4.889,4.8872,4.8872,4.8872,4.8834,4.8797,4.889,4.889,4.8887,4.8905,4.896,4.9049,4.9115,4.9216,4.9297,4.9343,4.9472,4.9702,4.9469,5.0005,5.0377,4.2896,4.243,4.2396,4.2396,4.2447,4.2965,4.3207,4.3207,4.3207,4.3207,4.3241,4.3448,4.3845,4.4311,4.457,4.497,4.5605,4.6164,4.6418,4.6418,4.6435,4.6489,4.6654,4.6678,4.6747,4.6886,4.6908,4.6908,4.6908,4.6908,4.6908,4.6908,4.6908,4.6908,4.6908,4.6908,4.6908,4.6908,4.6908,4.6918,4.6968,4.6972,4.6995,4.7024,4.6662,4.6283,4.6101,4.5846,4.5699,4.5718,4.5865,4.5789,4.5376,4.486,4.4564,4.4563,4.4564,4.4767,4.5264,4.5375,4.5615,4.6132,4.6206,4.6206,4.6224,4.6478,4.6624,4.6697,4.7061,4.7502,4.7797,4.7573,4.7274,4.7274,4.7274,4.7274,4.7311,4.7757,4.8036,4.8147,4.8481,4.8816,4.889,4.889,4.889,4.889,4.889,4.889,4.889,4.889,4.889,4.889,4.889,4.889,4.889,4.889,4.889,4.889,4.889,4.889,4.889,4.889,4.889,4.889,4.8945,4.8998,4.9049,4.9152,4.922,4.9291,4.9615,4.9955,5.0006,5.0194,5.0685,4.3224,4.3189,4.3207,4.3189,4.3207,4.3362,4.3293,4.3379,4.3362,4.3448,4.3586,4.4018,4.4363,4.4475,4.5044,4.5381,4.5425,4.5529,4.5563,4.5554,4.5528,4.5752,4.6186,4.6186,4.6387,4.6724,4.684,4.6822,4.6747,4.6747,4.6747,4.6817,4.6765,4.6701,4.684,4.6747,4.6794,4.6771,4.6724,4.6794,4.6886,4.6776,4.6753,4.6799,4.6743,4.6418,4.5827,4.524,4.5033,4.4935,4.5343,4.5754,4.6011,4.5845,4.5973,4.5826,4.5954,4.6045,4.6135,4.6153,4.619,4.6448,4.6336,4.6448,4.6595,4.7037,4.7405,4.7515,4.8085,4.8676,4.8656,4.8635,4.865,4.8853,4.8612,4.8612,4.8723,4.8834,4.8872,4.8816,4.889,4.889,4.889,4.889,4.889,4.889,4.889,4.889,4.889,4.889,4.889,4.889,4.889,4.889,4.889,4.889,4.889,4.889,4.889,4.889,4.889,4.889,4.889,4.8909,4.9224,4.9296,4.9444,4.955,4.9715,4.9823,5.0116,5.0411,5.0572,5.0825,5.1312,4.3966,4.3966,4.3966,4.3966,4.4035,4.4492,4.4734,4.4716,4.4734,4.4716,4.4768,4.4958,4.5061,4.5096,4.5311,4.5414,4.5414,4.5414,4.5414,4.5414,4.5414,4.5485,4.5641,4.5649,4.5744,4.5837,4.5862,4.5905,4.5887,4.5887,4.5862,4.5862,4.5887,4.5862,4.5895,4.5862,4.5862,4.5862,4.5879,4.5862,4.5862,4.5887,4.5887,4.5879,4.5862,4.5748,4.5553,4.5969,4.6186,4.6123,4.6358,4.6298,4.5864,4.5302,4.5014,4.5075,4.5334,4.578,4.6295,4.6652,4.704,4.7481,4.7629,4.7647,4.7684,4.7924,4.8108,4.8145,4.8476,4.8678,4.866,4.8678,4.875,4.8891,4.889,4.8891,4.8873,4.889,4.889,4.889,4.889,4.889,4.889,4.889,4.889,4.889,4.889,4.889,4.889,4.889,4.889,4.889,4.889,4.889,4.889,4.889,4.889,4.889,4.889,4.889,4.889,4.8909,4.8909,4.9169,4.9466,4.9726,4.9873,5.0058,5.0279,5.0575,5.0946,5.1112,5.1185,5.1556,5.2076,4.4699,4.4699,4.4699,4.4699,4.4751,4.5207,4.5414,4.5414,4.5414,4.5414,4.5397,4.5397,4.5414,4.5414,4.5414,4.5414,4.5414,4.5414,4.5414,4.5414,4.5414,4.5414,4.5414,4.5414,4.5414,4.5414,4.5414,4.5414,4.5414,4.5414,4.5414,4.5397,4.5414,4.5441,4.5414,4.5414,4.5414,4.5414,4.5441,4.5414,4.5414,4.5414,4.5414,4.5414,4.5414,4.5414,4.545,4.6003,4.6346,4.637,4.6513,4.6435,4.6096,4.5691,4.5401,4.5445,4.566,4.6107,4.6582,4.6864,4.7191,4.7704,4.7917,4.8017,4.8075,4.8248,4.8419,4.8438,4.8513,4.855,4.8569,4.8587,4.8678,4.8767,4.8785,4.8803,4.8838,4.8873,4.889,4.889,4.889,4.889,4.889,4.889,4.889,4.889,4.889,4.889,4.889,4.889,4.8946,4.8946,4.889,4.889,4.889,4.889,4.889,4.889,4.889,4.889,4.889,4.8909,4.8927,4.9633,5.006,5.0506,5.0691,5.0877,5.11,5.1453,5.1731,5.1879,5.1991,5.2381,5.2845,4.5397,4.5414,4.5397,4.5345,4.5345,4.5397,4.5414,4.5414,4.5414,4.5414,4.5414,4.5414,4.5414,4.5414,4.5414,4.5414,4.5414,4.5414,4.5414,4.5414,4.5414,4.5414,4.5414,4.5414,4.5414,4.5414,4.5414,4.5414,4.5414,4.5414,4.5414,4.5414,4.5414,4.5414,4.5414,4.5414,4.5414,4.5414,4.5414,4.5414,4.5414,4.5414,4.5414,4.5414,4.5414,4.5414,4.5423,4.5528,4.5502,4.5502,4.5938,4.6297,4.6642,4.6799,4.6541,4.6465,4.6763,4.672,4.6809,4.6874,4.6955,4.7053,4.7378,4.7569,4.7591,4.7935,4.8209,4.821,4.8382,4.8494,4.8494,4.8532,4.8569,4.8587,4.8624,4.8678,4.8787,4.8839,4.8856,4.8874,4.8891,4.8966,4.9096,4.9133,4.9243,4.9243,4.9299,4.9373,4.9355,4.9466,4.9187,4.9243,4.9503,4.9596,4.98,4.9819,4.9819,4.9837,4.9689,4.9503,4.941,4.9392,4.9522,5.019,5.0803,5.1231,5.1584,5.1788,5.1918,5.2141,5.2382,5.2568,5.2828,5.3163,5.3312,4.5414,4.5414,4.5414,4.5414,4.5414,4.5414,4.5414,4.5414,4.5414,4.5414,4.5414,4.5414,4.5414,4.5414,4.5414,4.5414,4.5414,4.5414,4.5414,4.5414,4.5414,4.5414,4.5414,4.5414,4.5414,4.5414,4.5414,4.5414,4.5414,4.5414,4.5414,4.5414,4.5414,4.5414,4.5414,4.5414,4.5414,4.5414,4.5414,4.5414,4.5414,4.5414,4.5414,4.5414,4.5414,4.5414,4.5414,4.5414,4.5414,4.5414,4.5511,4.5667,4.5837,4.5862,4.5887,4.592,4.6211,4.6405,4.6459,4.6678,4.6863,4.6908,4.6999,4.7071,4.7093,4.7506,4.7754,4.7856,4.8113,4.8325,4.8343,4.8363,4.8382,4.8401,4.8587,4.8661,4.8697,4.8678,4.8678,4.8733,4.9305,4.9638,4.9823,5.0192,5.0544,5.0599,5.058,5.0562,5.0395,5.0432,5.032,5.0618,5.0841,5.0803,5.0822,5.0822,5.0841,5.0915,5.0785,5.0543,5.0469,5.0432,5.0673,5.1119,5.1751,5.2252,5.2531,5.2772,5.2847,5.281,5.307,5.3292,5.3423,5.3646,5.3609,4.5414,4.5414,4.5414,4.5414,4.5414,4.5414,4.5414,4.5414,4.5414,4.5414,4.5414,4.5414,4.5414,4.5414,4.5414,4.5414,4.5414,4.5414,4.5414,4.5414,4.5414,4.5414,4.5414,4.5414,4.5414,4.5414,4.5414,4.5414,4.5414,4.5414,4.5414,4.5414,4.5414,4.5414,4.5414,4.5414,4.5414,4.5414,4.5414,4.5414,4.5414,4.5414,4.5414,4.5414,4.5414,4.5414,4.5414,4.5414,4.5414,4.5414,4.5414,4.5414,4.5414,4.5414,4.5414,4.5423,4.5718,4.5879,4.5887,4.6119,4.6266,4.6315,4.6435,4.6602,4.6678,4.7026,4.7313,4.7353,4.7588,4.7775,4.8015,4.8172,4.847,4.8821,4.8935,4.9011,4.9048,4.9123,4.9307,4.964,5.0102,5.0472,5.0509,5.1028,5.1269,5.1324,5.1231,5.1249,5.1268,5.1416,5.1491,5.1602,5.1584,5.1416,5.1342,5.1342,5.1416,5.1546,5.1806,5.1565,5.1416,5.1398,5.1676,5.2048,5.2679,5.3125,5.3255,5.3385,5.3441,5.3515,5.3775,5.3813,5.3813,5.3813,5.3813,4.5414,4.5414,4.5414,4.5414,4.5414,4.5414,4.5414,4.5414,4.5414,4.5414,4.5414,4.5414,4.5414,4.5414,4.5414,4.5414,4.5414,4.5414,4.5414,4.5414,4.5414,4.5414,4.5414,4.5414,4.5414,4.5414,4.5414,4.5414,4.5414,4.5414,4.5414,4.5414,4.5414,4.55,4.5638,4.5604,4.5535,4.5604,4.5673,4.5552,4.5449,4.5414,4.5414,4.5414,4.5414,4.5414,4.5414,4.5414,4.5414,4.5414,4.5414,4.5414,4.5414,4.5414,4.5414,4.5414,4.545,4.5476,4.5423,4.5528,4.5476,4.5589,4.5912,4.6112,4.6193,4.6537,4.684,4.684,4.6863,4.7182,4.7521,4.799,4.8608,4.916,4.9421,4.9723,4.9873,4.9933,5.0211,5.095,5.106,5.121,5.1286,5.1379,5.1565,5.2158,5.2103,5.2159,5.2159,5.2215,5.2178,5.2104,5.2011,5.1844,5.1825,5.1825,5.1918,5.2048,5.2531,5.2549,5.2289,5.2308,5.2568,5.2921,5.3255,5.3478,5.3627,5.3738,5.3813,5.3813,5.3813,5.3813,5.3813,5.3813,5.3813,4.5414,4.5414,4.5414,4.5414,4.5414,4.5414,4.5414,4.5414,4.5414,4.5414,4.5414,4.5414,4.5414,4.5414,4.5414,4.5414,4.5414,4.5414,4.5414,4.5414,4.5414,4.5414,4.5414,4.5414,4.5414,4.5414,4.5414,4.5414,4.5414,4.5414,4.5414,4.5414,4.5449,4.5725,4.6234,4.6224,4.6355,4.6328,4.631,4.5966,4.5518,4.5432,4.5414,4.5414,4.5414,4.5414,4.5414,4.5414,4.5414,4.5414,4.5414,4.5414,4.5414,4.5414,4.5414,4.5414,4.5414,4.5414,4.5414,4.5414,4.5414,4.5423,4.5511,4.5563,4.5598,4.6062,4.6332,4.6411,4.6678,4.6863,4.7102,4.806,4.8675,4.9104,4.9919,5.0745,5.1208,5.0934,5.0772,5.1031,5.1532,5.1905,5.1943,5.2539,5.2763,5.2987,5.3007,5.3063,5.3027,5.2955,5.2863,5.2678,5.2753,5.2661,5.2661,5.2661,5.2661,5.2679,5.3051,5.3292,5.3051,5.3014,5.32,5.3404,5.3645,5.3794,5.3813,5.3813,5.3813,5.3813,5.3813,5.3813,5.3813,5.3813,5.3813,4.5414,4.5414,4.5414,4.5414,4.5414,4.5414,4.5414,4.5414,4.5414,4.5414,4.5414,4.5414,4.5414,4.5414,4.5414,4.5414,4.5414,4.5414,4.5414,4.5414,4.5414,4.5414,4.5414,4.5414,4.5414,4.5414,4.5414,4.5414,4.5414,4.5414,4.5414,4.5414,4.5414,4.5811,4.6493,4.6648,4.6803,4.6948,4.6724,4.6362,4.6,4.5569,4.5414,4.5414,4.5414,4.5414,4.5414,4.5414,4.5414,4.5414,4.5414,4.5414,4.5414,4.5414,4.5414,4.5414,4.5414,4.5414,4.5414,4.5414,4.5414,4.5414,4.5414,4.5414,4.5423,4.5675,4.5795,4.5879,4.6062,4.6266,4.659,4.7678,4.843,4.9176,5.0177,5.1274,5.1864,5.1684,5.1555,5.1848,5.2387,5.2576,5.2876,5.3195,5.3311,5.3204,5.3224,5.3281,5.3319,5.3265,5.3358,5.3342,5.353,5.3587,5.3569,5.3532,5.3497,5.346,5.3497,5.3627,5.3515,5.359,5.372,5.3794,5.3794,5.3794,5.3813,5.3813,5.3813,5.3813,5.3813,5.3813,5.3813,5.3813,5.3813,4.5414,4.5414,4.5414,4.5414,4.5414,4.5414,4.5414,4.5414,4.5414,4.5414,4.5414,4.5414,4.5414,4.5414,4.5414,4.5414,4.5414,4.5414,4.5414,4.5414,4.5414,4.5414,4.5414,4.5414,4.5414,4.5414,4.5414,4.5414,4.5414,4.5414,4.5414,4.5414,4.5414,4.5828,4.6441,4.6786,4.7079,4.7431,4.731,4.6872,4.651,4.5931,4.5656,4.5414,4.5414,4.5414,4.5414,4.5414,4.5414,4.5414,4.5414,4.5414,4.5414,4.5414,4.5414,4.5414,4.5414,4.5414,4.5414,4.5414,4.5414,4.5414,4.5414,4.5414,4.5423,4.545,4.5476,4.5476,4.5563,4.5675,4.6108,4.7409,4.8366,4.915,5.0311,5.1514,5.2127,5.2207,5.2358,5.2876,5.2913,5.2955,5.307,5.3258,5.3359,5.3439,5.3439,5.3459,5.3479,5.3479,5.3499,5.3539,5.3599,5.3715,5.3734,5.3735,5.3774,5.3813,5.3813,5.3813,5.3813,5.3813,5.3813,5.3813,5.3794,5.3813,5.3813,5.3813,5.3813,5.3813,5.3813,5.3813,5.3813,5.3813,5.3813,4.5414,4.5414,4.5414,4.5414,4.5414,4.5414,4.5414,4.5414,4.5414,4.5414,4.5397,4.5414,4.5414,4.5397,4.5414,4.5414,4.5414,4.5414,4.5414,4.5414,4.5414,4.5414,4.5414,4.5414,4.5414,4.5414,4.5414,4.5414,4.5414,4.5414,4.5414,4.5414,4.5414,4.5811,4.6579,4.7165,4.751,4.7844,4.8,4.7741,4.6965,4.6431,4.6017,4.5569,4.5466,4.5414,4.5414,4.5414,4.5414,4.5414,4.5414,4.5414,4.5414,4.5414,4.5414,4.5414,4.5414,4.5414,4.5414,4.5414,4.5414,4.5414,4.5414,4.5414,4.5414,4.5414,4.5414,4.5414,4.5414,4.5476,4.558,4.7167,4.8229,4.9048,5.0243,5.1633,5.2112,5.2354,5.2466,5.298,5.3103,5.3206,5.3209,5.3251,5.3272,5.3314,5.3314,5.3336,5.3357,5.3378,5.3398,5.3459,5.3519,5.3598,5.3694,5.3714,5.3734,5.3774,5.3793,5.3813,5.3813,5.3813,5.3813,5.3813,5.3813,5.3813,5.3813,5.3813,5.3813,5.3813,5.3813,5.3813,5.3813,5.3813,5.3813,4.5414,4.5414,4.5414,4.5414,4.5414,4.5414,4.5414,4.5414,4.5397,4.5353,4.5327,4.5371,4.5371,4.5327,4.5371,4.5414,4.5414,4.5414,4.5414,4.5414,4.5414,4.5414,4.5397,4.5414,4.5414,4.5414,4.5414,4.5414,4.5414,4.5414,4.5414,4.5414,4.5414,4.5793,4.6569,4.7276,4.7872,4.8189,4.8534,4.8499,4.7655,4.7103,4.6372,4.6069,4.5621,4.5432,4.5414,4.5414,4.5414,4.5414,4.5414,4.5414,4.5414,4.5414,4.5414,4.5414,4.5414,4.5414,4.5414,4.5414,4.5414,4.5414,4.5414,4.5414,4.5414,4.5414,4.5414,4.5414,4.5414,4.5414,4.5475,4.7098,4.7908,4.8424,4.9934,5.112,5.1601,5.206,5.2431,5.2761,5.3017,5.3103,5.3185,5.3206,5.3185,5.3185,5.3185,5.3209,5.3254,5.3274,5.3314,5.3355,5.3398,5.3479,5.3576,5.3616,5.3656,5.3716,5.3774,5.3793,5.3813,5.3793,5.3813,5.3813,5.3813,5.3813,5.3813,5.3813,5.3813,5.3813,5.3813,5.3813,5.3813,5.3813,5.3813,4.5318,4.5318,4.5344,4.5371,4.5371,4.5371,4.5353,4.5353,4.53,4.5247,4.5194,4.5247,4.5264,4.5194,4.5247,4.5318,4.5318,4.5318,4.5291,4.5318,4.5344,4.5371,4.5371,4.5397,4.5414,4.5414,4.5414,4.5414,4.5414,4.5414,4.5414,4.5414,4.5414,4.5656,4.6328,4.7189,4.7965,4.843,4.8965,4.8999,4.8499,4.7569,4.6837,4.6751,4.6052,4.569,4.5742,4.55,4.5432,4.5414,4.5414,4.5414,4.5414,4.5414,4.5414,4.5414,4.5414,4.5414,4.5414,4.5414,4.5414,4.5414,4.5414,4.5414,4.5414,4.5414,4.5414,4.5414,4.5414,4.5414,4.5587,4.6803,4.7572,4.8104,4.9371,5.0721,5.1052,5.1449,5.1897,5.2297,5.2761,5.3017,5.306,5.3185,5.3185,5.3185,5.3185,5.3185,5.3209,5.3209,5.3248,5.3248,5.3272,5.3357,5.3418,5.3499,5.3558,5.3617,5.3716,5.3754,5.3755,5.3793,5.3793,5.3813,5.3813,5.3813,5.3813,5.3813,5.3813,5.3813,5.3813,5.3813,5.3813,5.3813,5.3813,4.5032,4.5059,4.5167,4.523,4.5203,4.5247,4.522,4.522,4.513,4.5032,4.5015,4.5076,4.5076,4.5076,4.5059,4.5059,4.5059,4.5103,4.5103,4.513,4.5194,4.5203,4.523,4.5353,4.5371,4.5371,4.5371,4.5414,4.5414,4.5414,4.5414,4.5414,4.5414,4.5483,4.5793,4.6914,4.7689,4.8079,4.9148,4.951,4.8827,4.8017,4.762,4.7362,4.6879,4.6379,4.6286,4.5845,4.55,4.5414,4.5414,4.5414,4.5414,4.5414,4.5414,4.5414,4.5414,4.5414,4.5414,4.5414,4.5414,4.5414,4.5414,4.5414,4.5414,4.5414,4.5414,4.5414,4.5414,4.5414,4.5656,4.681,4.7493,4.82,4.9169,5.0216,5.0712,5.0999,5.1424,5.175,5.2179,5.2649,5.2912,5.306,5.3185,5.3185,5.3185,5.3185,5.3185,5.3185,5.3185,5.3206,5.3206,5.3272,5.3316,5.3398,5.3459,5.3519,5.3617,5.3715,5.3754,5.3754,5.3793,5.3793,5.3813,5.3813,5.3813,5.3813,5.3813,5.3813,5.3813,5.3813,5.3813,5.3813,5.3813,4.4858,4.5022,4.5076,4.5086,4.5086,4.5086,4.5086,4.5086,4.5032,4.4951,4.4913,4.4995,4.5022,4.4995,4.5022,4.5022,4.5022,4.4995,4.5022,4.4995,4.5042,4.5086,4.5086,4.514,4.5194,4.5247,4.522,4.5274,4.5344,4.5414,4.5414,4.5414,4.5414,4.5414,4.5483,4.65,4.7207,4.7982,4.9079,4.974,4.939,4.8803,4.8327,4.8275,4.7603,4.7096,4.6648,4.6355,4.5793,4.5569,4.5414,4.5414,4.5414,4.5414,4.5414,4.5414,4.5414,4.5414,4.5414,4.5414,4.5414,4.5414,4.5414,4.5414,4.5414,4.5414,4.5414,4.5414,4.5414,4.5414,4.5656,4.681,4.7424,4.8131,4.9028,4.9711,5.0369,5.0684,5.1017,5.1314,5.1594,5.2012,5.2495,5.2806,5.2955,5.3121,5.3143,5.3185,5.3185,5.3185,5.3185,5.3185,5.3206,5.3209,5.3251,5.3295,5.3339,5.34,5.3499,5.3598,5.3695,5.3734,5.3754,5.3812,5.3793,5.3813,5.3813,5.3813,5.3813,5.3813,5.3813,5.3813,5.3813,5.3813,5.3813,4.4709,4.4913,4.494,4.4951,4.4951,4.4951,4.4951,4.4968,4.4896,4.4831,4.4803,4.4858,4.4886,4.4913,4.4886,4.4903,4.4903,4.4913,4.4896,4.4896,4.4923,4.4951,4.4978,4.4978,4.5059,4.5167,4.5086,4.5113,4.5238,4.5318,4.5371,4.5414,4.5414,4.5414,4.5604,4.6286,4.7079,4.812,4.9079,4.9683,4.9769,4.9424,4.9154,4.8861,4.8407,4.7717,4.7251,4.6924,4.6483,4.6224,4.5845,4.5811,4.5793,4.5569,4.5432,4.5414,4.5414,4.5414,4.5414,4.5414,4.5414,4.5414,4.5414,4.5414,4.5414,4.5414,4.5414,4.5414,4.5414,4.5414,4.5673,4.6621,4.7286,4.7976,4.881,4.9459,5.0017,5.0341,5.0564,5.0712,5.0991,5.1288,5.1793,5.232,5.2676,5.2934,5.306,5.3143,5.3164,5.3143,5.3185,5.3185,5.3185,5.3206,5.3209,5.3251,5.3256,5.3297,5.3398,5.3459,5.3538,5.3656,5.3734,5.3754,5.3774,5.3813,5.3813,5.3813,5.3813,5.3813,5.3813,5.3813,5.3813,5.3813,5.3813,4.4598,4.4626,4.4765,4.4803,4.4803,4.4803,4.482,4.4803,4.4682,4.4654,4.4626,4.4626,4.4654,4.4671,4.4682,4.4654,4.4626,4.4626,4.4637,4.4709,4.4737,4.4803,4.4831,4.4913,4.4978,4.5022,4.4968,4.4968,4.5076,4.5167,4.5247,4.5371,4.5371,4.5397,4.5638,4.6234,4.7234,4.8155,4.8896,4.9396,4.9804,4.9855,4.9821,4.9683,4.9154,4.8654,4.8568,4.7948,4.7476,4.7224,4.6759,4.6527,4.6414,4.6052,4.5828,4.5638,4.5604,4.5552,4.5449,4.5414,4.5414,4.5414,4.5414,4.5414,4.5414,4.5414,4.5414,4.5414,4.5414,4.5414,4.5638,4.6138,4.7027,4.7803,4.8586,4.9321,4.9786,5.0022,5.0178,5.0206,5.0415,5.0739,5.1044,5.1576,5.2108,5.2384,5.2631,5.2717,5.2955,5.2999,5.3121,5.3164,5.3185,5.3185,5.3185,5.3209,5.323,5.3233,5.3295,5.3318,5.3359,5.3479,5.3598,5.3715,5.3754,5.3774,5.3813,5.3813,5.3813,5.3813,5.3813,5.3813,5.3813,5.3813,5.3813,4.4207,4.4598,4.4654,4.4682,4.4682,4.4682,4.4682,4.4654,4.4626,4.4598,4.4598,4.4598,4.4598,4.4598,4.4598,4.4598,4.4598,4.4598,4.4598,4.4598,4.4654,4.4682,4.4709,4.4737,4.4793,4.4831,4.4803,4.4841,4.5005,4.5005,4.5032,4.514,4.5274,4.5397,4.5673,4.6138,4.7103,4.7913,4.8586,4.9172,4.9792,5.0011,5.0011,4.9942,4.9838,4.9223,4.8827,4.8534,4.8137,4.7758,4.7458,4.7338,4.7241,4.6845,4.65,4.619,4.6121,4.5931,4.5535,4.5466,4.5414,4.5414,4.5414,4.5414,4.5414,4.5414,4.5414,4.5414,4.5414,4.5414,4.55,4.6104,4.6924,4.762,4.8327,4.9079,4.9597,4.9821,4.9993,5.0109,5.0138,5.0291,5.0537,5.082,5.1339,5.1817,5.206,5.2297,5.2545,5.2761,5.2846,5.3017,5.3039,5.3164,5.3185,5.3185,5.3185,5.3206,5.323,5.3233,5.3277,5.33,5.344,5.3559,5.3715,5.3754,5.3793,5.3793,5.3813,5.3813,5.3813,5.3813,5.3813,5.3813,5.3813,4.3499,4.396,4.396,4.4093,4.4281,4.4514,4.4468,4.4338,4.4514,4.4598,4.4598,4.4598,4.4598,4.4598,4.4598,4.4598,4.4598,4.4598,4.4598,4.4598,4.4598,4.4598,4.4598,4.4598,4.4682,4.4692,4.4682,4.4709,4.4831,4.4803,4.4886,4.4995,4.514,4.5264,4.5465,4.5931,4.6603,4.73,4.8086,4.8844,4.9482,4.989,4.9993,5.0011,4.9942,4.9752,4.9373,4.9154,4.8965,4.8596,4.8252,4.8034,4.7931,4.7775,4.7458,4.7148,4.6845,4.6603,4.619,4.5587,4.5466,4.5414,4.5414,4.5414,4.5414,4.5414,4.5414,4.5414,4.5414,4.5414,4.5414,4.588,4.6448,4.7086,4.7827,4.8551,4.9286,4.9683,4.9873,5.0022,5.0022,5.0051,5.0166,5.0453,5.0964,5.1442,5.1793,5.1964,5.2042,5.225,5.2426,5.2627,5.2846,5.2995,5.3164,5.3185,5.3185,5.3185,5.3227,5.3209,5.3233,5.3256,5.33,5.3439,5.3578,5.3695,5.3754,5.3774,5.3793,5.3813,5.3813,5.3813,5.3813,5.3813,5.3813,4.2519,4.2552,4.2614,4.2953,4.3512,4.4281,4.415,4.3647,4.4207,4.4497,4.4497,4.4542,4.4598,4.4598,4.4598,4.4598,4.4598,4.4598,4.4598,4.4598,4.4598,4.4598,4.4598,4.4598,4.4598,4.4598,4.4598,4.4598,4.4654,4.472,4.4776,4.4831,4.4968,4.5103,4.522,4.5344,4.5757,4.6381,4.7307,4.7995,4.8747,4.9401,4.9711,4.9746,4.9947,4.9873,4.9786,4.9735,4.9614,4.9493,4.8999,4.881,4.8758,4.8258,4.7913,4.7734,4.77,4.7631,4.751,4.6207,4.569,4.5449,4.5414,4.5414,4.5414,4.5414,4.5414,4.5414,4.5414,4.5414,4.5432,4.55,4.6035,4.669,4.7448,4.8189,4.8913,4.9666,4.989,5.0011,5.0011,5.0011,5.0011,5.0149,5.063,5.1096,5.1467,5.1619,5.1601,5.1701,5.1866,5.2244,5.2518,5.2739,5.2912,5.3143,5.3185,5.3185,5.3206,5.3206,5.3248,5.3272,5.3295,5.3357,5.3479,5.3637,5.3696,5.3736,5.3774,5.3813,5.3813,5.3813,5.3813,5.3813,5.3813,4.1693,4.2489,4.252,4.2363,4.23,4.2909,4.3045,4.2984,4.3529,4.3869,4.3972,4.4321,4.4598,4.4598,4.4525,4.4497,4.457,4.4598,4.4598,4.4598,4.4598,4.4598,4.4598,4.4598,4.4598,4.4598,4.4598,4.4598,4.4598,4.4637,4.4637,4.4709,4.482,4.494,4.5049,4.5182,4.5446,4.6079,4.6552,4.7009,4.7809,4.8587,4.9108,4.9143,4.966,4.993,4.9964,5.0011,5.0011,5.0011,4.9533,4.9516,4.9499,4.9068,4.8924,4.8586,4.8413,4.8183,4.7827,4.7017,4.6431,4.5897,4.5483,4.55,4.5414,4.5414,4.5414,4.5414,4.5414,4.5414,4.5414,4.5414,4.5862,4.6596,4.7338,4.8034,4.8775,4.9516,5.0011,5.0011,5.0011,5.0011,5.0011,5.0011,5.0359,5.0481,5.0766,5.0991,5.0999,5.1105,5.1262,5.1775,5.2155,5.2408,5.2672,5.2955,5.3164,5.3185,5.3185,5.3206,5.3227,5.3248,5.3272,5.3316,5.3439,5.3598,5.3676,5.3735,5.3774,5.3813,5.3813,5.3813,5.3813,5.3813,5.3813,4.0654,4.1453,4.1708,4.1591,4.1343,4.2109,4.252,4.2583,4.2953,4.3166,4.3257,4.368,4.3844,4.3827,4.3856,4.4105,4.4179,4.4207,4.4497,4.4525,4.4598,4.4598,4.4598,4.4542,4.4598,4.457,4.457,4.4598,4.4598,4.4598,4.4598,4.4626,4.4665,4.4765,4.4858,4.5009,4.5166,4.5661,4.5952,4.6418,4.7044,4.7666,4.8323,4.8707,4.916,4.9625,4.9878,4.9964,4.9982,4.9982,5.0011,5.0011,5.0011,4.9924,4.9735,4.9344,4.9154,4.881,4.8293,4.8086,4.7396,4.65,4.6035,4.5673,4.5483,4.5414,4.5414,4.5414,4.5414,4.5414,4.5414,4.5414,4.5673,4.6397,4.6896,4.762,4.8293,4.9016,4.9769,4.9786,4.9993,4.9993,5.0011,5.0011,5.0109,5.008,5.0051,5.0291,5.0509,5.0602,5.0749,5.1236,5.175,5.2108,5.2495,5.2934,5.3082,5.3185,5.3185,5.3185,5.3185,5.3227,5.323,5.3274,5.3378,5.3499,5.3637,5.3735,5.3774,5.3813,5.3813,5.3813,5.3813,5.3813,5.3813,3.9477,3.9601,4.0197,4.0528,4.0749,4.1804,4.2332,4.2395,4.2442,4.2442,4.2489,4.2583,4.2769,4.2645,4.2614,4.2953,4.3393,4.3482,4.381,4.4179,4.415,4.4253,4.4281,4.4281,4.4236,4.4395,4.4468,4.4412,4.4542,4.4598,4.4598,4.4598,4.4626,4.4654,4.472,4.482,4.4926,4.5154,4.5454,4.58,4.6169,4.6806,4.7444,4.7963,4.8529,4.9114,4.9498,4.9832,4.9918,4.9982,5.0011,5.0011,5.0011,5.0011,4.9993,4.9976,4.9924,4.9413,4.8999,4.8861,4.843,4.7569,4.7069,4.6345,4.5793,4.5638,4.5604,4.5483,4.5414,4.5414,4.5414,4.5414,4.5432,4.5914,4.631,4.6948,4.7603,4.8372,4.9166,4.9545,4.9873,4.9976,4.9993,5.0011,5.0011,5.0011,5.0011,5.0022,5.0206,5.0178,5.0387,5.0712,5.1236,5.1768,5.2203,5.2631,5.302,5.3124,5.3185,5.3185,5.3185,5.3185,5.3227,5.3251,5.3277,5.338,5.3617,5.3716,5.3774,5.3793,5.3813,5.3813,5.3813,5.3813,5.3813,3.8646,3.9524,3.9724,4.0043,4.0512,4.0922,4.1075,4.1125,4.1558,4.1771,4.1836,4.23,4.2363,4.252,4.252,4.2614,4.2707,4.28,4.2892,4.3092,4.335,4.3183,4.3152,4.329,4.3393,4.3676,4.3885,4.4047,4.444,4.4542,4.4542,4.4598,4.4598,4.4598,4.4626,4.4682,4.4682,4.476,4.5026,4.5122,4.5337,4.592,4.6488,4.6948,4.7842,4.8442,4.8912,4.9497,4.9681,4.9801,4.9935,4.9982,5.0011,5.0011,4.9993,4.9993,4.9976,4.9855,4.9671,4.9637,4.9321,4.8654,4.8224,4.7448,4.6724,4.6173,4.6,4.5742,4.5466,4.5414,4.5414,4.5414,4.5414,4.5638,4.6035,4.6535,4.7234,4.7993,4.8786,4.9441,4.9769,4.9976,4.9993,5.0011,5.0011,5.0011,5.0011,5.0011,5.0011,5.0011,5.0051,5.0387,5.0803,5.1365,5.1817,5.2226,5.2698,5.3042,5.3124,5.3185,5.3185,5.3185,5.3185,5.3209,5.3274,5.3418,5.3636,5.3734,5.3754,5.3793,5.3813,5.3813,5.3813,5.3813,5.3813,3.7984,3.8708,3.8982,3.9508,4.0028,4.0105,4.0228,4.0547,4.0922,4.1091,4.1158,4.1492,4.1706,4.1641,4.1641,4.1804,4.2078,4.2126,4.2285,4.2614,4.2378,4.2583,4.2552,4.2489,4.2784,4.3015,4.3136,4.329,4.3827,4.4133,4.4207,4.4598,4.4598,4.4598,4.4598,4.4598,4.4598,4.4598,4.4615,4.4598,4.4829,4.5156,4.5433,4.6011,4.7084,4.7602,4.8309,4.899,4.926,4.9551,4.9772,4.9789,4.9801,4.983,4.9935,4.9964,4.9993,4.9993,4.9878,4.9942,4.97,4.9413,4.9206,4.8603,4.7689,4.6948,4.6483,4.6052,4.5673,4.5414,4.5414,4.5414,4.5414,4.5432,4.5828,4.6251,4.6975,4.7689,4.8476,4.9235,4.9648,4.9907,5.0011,5.0011,5.0011,5.0011,5.0011,5.0011,5.0011,5.0011,5.0011,5.012,5.0547,5.0999,5.1398,5.1866,5.2384,5.2828,5.3082,5.3124,5.3164,5.3185,5.3185,5.3209,5.3254,5.3398,5.3578,5.3694,5.3715,5.3774,5.3793,5.3813,5.3813,5.3813,5.3813,3.7461,3.7615,3.8231,3.8893,3.9367,3.9413,3.9721,4.029,4.0266,4.037,4.0389,4.0358,4.0322,4.0337,4.037,4.062,4.0807,4.097,4.126,4.2219,4.1837,4.1853,4.2062,4.23,4.2157,4.23,4.2489,4.2676,4.2862,4.3363,4.4001,4.4525,4.4598,4.4598,4.4598,4.4598,4.4598,4.4598,4.4598,4.4598,4.4598,4.4744,4.4942,4.5597,4.6113,4.6567,4.7675,4.8314,4.8634,4.9112,4.9381,4.9347,4.956,4.9637,4.9801,4.983,4.9877,4.9906,4.9906,4.9918,4.9964,4.9895,4.9959,4.9476,4.8648,4.7758,4.7207,4.6431,4.6,4.5621,4.5518,4.5449,4.5414,4.5414,4.5621,4.5897,4.631,4.7138,4.8017,4.8769,4.9373,4.9637,5.0011,5.0011,5.0011,5.0011,5.0011,5.0011,5.0011,5.0011,5.0011,5.0011,5.0246,5.0657,5.1026,5.1493,5.2036,5.2495,5.2806,5.3103,5.3164,5.3185,5.3185,5.3209,5.3233,5.3318,5.3459,5.3538,5.3617,5.3735,5.3774,5.3793,5.3793,5.3813,5.3813,3.703,3.7554,3.8231,3.8616,3.8739,3.8754,3.8813,3.8985,3.8985,3.9293,3.9601,3.9228,3.9062,3.917,3.917,3.9354,3.9373,3.9709,3.9722,4.0185,4.0407,4.0885,4.0997,4.1196,4.1311,4.1608,4.1852,4.2173,4.2831,4.3333,4.381,4.444,4.4468,4.4384,4.4384,4.4384,4.4367,4.431,4.4338,4.4338,4.4384,4.4514,4.4778,4.5111,4.5416,4.5823,4.6673,4.707,4.7661,4.8269,4.857,4.8924,4.9466,4.9513,4.9577,4.9607,4.9654,4.9713,4.9755,4.9784,4.983,4.9935,4.9947,4.9861,4.9476,4.8689,4.7896,4.7052,4.6328,4.5931,4.5621,4.5535,4.5414,4.5414,4.5432,4.5587,4.5759,4.6638,4.7569,4.8258,4.8947,4.9361,4.9752,4.9942,4.9993,5.0011,5.0011,5.0011,5.0011,5.0011,5.0011,5.0011,5.0011,5.0302,5.0684,5.107,5.1594,5.2036,5.2366,5.2721,5.3082,5.3185,5.3185,5.3206,5.3209,5.3295,5.3339,5.3341,5.3461,5.3638,5.3735,5.3754,5.3793,5.3813,5.3813,3.6487,3.6854,3.7254,3.7543,3.7803,3.7818,3.8052,3.8332,3.8054,3.8196,3.8631,3.8539,3.8508,3.8492,3.8508,3.8446,3.8446,3.8539,3.8868,3.9064,3.9354,3.9791,4.0013,4.0336,4.0684,4.1024,4.1109,4.1575,4.2567,4.2629,4.2862,4.3604,4.3739,4.3739,4.371,4.3693,4.3722,4.3634,4.3739,4.3739,4.3873,4.415,4.4525,4.4801,4.4959,4.5319,4.5771,4.6247,4.6767,4.7475,4.7925,4.8303,4.8809,4.9146,4.9376,4.9488,4.9518,4.9547,4.9573,4.9602,4.9649,4.9772,4.9842,4.9727,4.9791,4.9103,4.8844,4.7982,4.6759,4.6242,4.5983,4.5845,4.5535,4.5414,4.5483,4.5604,4.5966,4.6613,4.7338,4.7941,4.8413,4.8654,4.8999,4.9292,4.9447,4.9993,4.9993,4.9993,4.9993,5.0011,5.0011,5.0011,5.0011,5.0022,5.0274,5.0657,5.1079,5.15,5.1922,5.2297,5.2654,5.3017,5.3185,5.3185,5.3206,5.3251,5.3274,5.3277,5.342,5.3637,5.3715,5.3715,5.3754,5.3793,5.3793,3.602,3.602,3.6035,3.6339,3.6825,3.6871,3.7288,3.7768,3.731,3.7162,3.7413,3.7904,3.8165,3.8262,3.8246,3.8262,3.8154,3.7908,3.8123,3.8492,3.8844,3.9259,3.9659,4.0062,4.0346,4.0531,4.0646,4.1057,4.1754,4.1804,4.2046,4.2395,4.252,4.2552,4.252,4.2552,4.2707,4.28,4.28,4.2676,4.3061,4.3621,4.3989,4.4224,4.4377,4.468,4.5101,4.5375,4.5677,4.6541,4.7212,4.7666,4.7963,4.8333,4.8613,4.8758,4.8976,4.9057,4.9236,4.9355,4.9436,4.953,4.9568,4.9524,4.9536,4.932,4.9045,4.8402,4.7179,4.6535,4.6259,4.5941,4.5604,4.5414,4.5518,4.5587,4.6044,4.6424,4.6906,4.7476,4.7734,4.7931,4.831,4.8603,4.9016,4.9597,4.989,4.9942,4.9976,4.9993,5.0011,5.0011,5.0011,5.0022,5.0051,5.0302,5.0684,5.0999,5.1424,5.1824,5.2226,5.2631,5.2995,5.3185,5.3206,5.323,5.3251,5.3274,5.3437,5.3578,5.3578,5.3578,5.3734,5.3774,5.3774,3.602,3.602,3.602,3.6096,3.6171,3.6203,3.6278,3.6402,3.6341,3.6315,3.6501,3.6453,3.6624,3.6907,3.6876,3.6969,3.72,3.7107,3.7369,3.7707,3.8031,3.8662,3.9216,3.949,3.9982,4.0197,4.0389,4.0857,4.1084,4.1347,4.1771,4.2316,4.2395,4.2426,4.2426,4.2395,4.2269,4.2237,4.2269,4.2269,4.2363,4.2724,4.2816,4.2909,4.2909,4.299,4.3088,4.3105,4.3918,4.5036,4.6206,4.6752,4.7107,4.7289,4.7581,4.7831,4.8082,4.8265,4.8443,4.8732,4.883,4.9018,4.8953,4.8641,4.8499,4.8186,4.798,4.7876,4.6976,4.6542,4.6224,4.5759,4.5414,4.5414,4.5466,4.5466,4.5673,4.5828,4.6069,4.65,4.6872,4.7269,4.7769,4.8,4.8241,4.8706,4.9045,4.9148,4.9545,4.9735,4.9873,4.989,4.9855,5.0011,4.9993,5.0022,5.0331,5.063,5.0964,5.1416,5.1866,5.2338,5.2649,5.2912,5.3143,5.3206,5.3209,5.3251,5.3295,5.3398,5.3359,5.3418,5.3617,5.3754,5.3754]}]]